[[{"header":{"parameterUnit":"m.s-1","parameterCategory":1,"la1":31.0,"la2":29.5877,"lo1":-88.7671,"lo2":-86.6584,"dx":0.0162,"dy":0.0185,"nx":115,"ny":88,"refTime":"2022-11-24T18:00:00:Z","depth":0,"parameterNumber":2,"parameterNumberName":"U-component_of_WINDS"},"data":[0.0,0.0,0.0,0.0,0.0,0.0,0.0,0.0,0.0,0.0,0.0,0.0,0.0,0.0,0.0,0.0,0.0,0.0,0.0,0.0,0.0,0.0,0.0,0.0,0.0,0.0,0.0,0.0,0.0,0.0,0.0,0.0,0.0,0.0,0.0,0.0,0.0,0.0,0.0,0.0,0.0,0.0,0.0,0.0,0.0,0.0,0.0,0.0,0.0,0.0,0.0,0.0,0.0,0.0,0.0,0.0,0.0,0.0,0.0,0.0,0.0,0.0,0.0,0.0,0.0,0.0,0.0,0.0,0.0,0.0,0.0,0.0,0.0,0.0,0.0,0.0,0.0,0.0,0.0,0.0,0.0,0.0,0.0,0.0,0.0,0.0,0.0,0.0,0.0,0.0,0.0,0.0,0.0,0.0,0.0,0.0,0.0,0.0,0.0,0.0,0.0,0.0,0.0,0.0,0.0,0.0,0.0,0.0,0.0,0.0,0.0,0.0,0.0,0.0,0.0,0.0,0.0,0.0,0.0,0.0,0.0,0.0,0.0,0.0,0.0,0.0,0.0,0.0,0.0,0.0,0.0,0.0,0.0,0.0,0.0,0.0,0.0,0.0,0.0,0.0,0.0,0.0,0.0,0.0,0.0,0.0,0.0,0.0,0.0,0.0,0.0,0.0,0.0,0.0,0.0,0.0,0.0,0.0,0.0,0.0,0.0,0.0,0.0,0.0,0.0,0.0,0.0,0.0,0.0,0.0,0.0,0.0,0.0,0.0,0.0,0.0,0.0,0.0,0.0,0.0,0.0,0.0,0.0,0.0,0.0,0.0,0.0,0.0,0.0,0.0,0.0,0.0,0.0,0.0,0.0,0.0,0.0,0.0,0.0,0.0,0.0,0.0,0.0,0.0,0.0,0.0,0.0,0.0,0.0,0.0,0.0,0.0,0.0,0.0,0.0,0.0,0.0,0.0,0.0,0.0,0.0,0.0,0.0,0.0,0.0,0.0,0.0,0.0,0.0,0.0,0.0,0.0,0.0,0.0,0.0,0.0,0.0,0.0,0.0,0.0,0.0,0.0,0.0,0.0,0.0,0.0,0.0,0.0,0.0,0.0,0.0,0.0,0.0,0.0,0.0,0.0,0.0,0.0,0.0,0.0,0.0,0.0,0.0,0.0,0.0,0.0,0.0,0.0,0.0,0.0,0.0,0.0,0.0,0.0,0.0,0.0,0.0,0.0,0.0,0.0,0.0,0.0,0.0,0.0,0.0,0.0,0.0,0.0,0.0,0.0,0.0,0.0,0.0,0.0,0.0,0.0,0.0,0.0,0.0,0.0,0.0,0.0,0.0,0.0,0.0,0.0,0.0,0.0,0.0,0.0,0.0,0.0,0.0,0.0,0.0,0.0,0.0,0.0,0.0,0.0,0.0,0.0,0.0,0.0,0.0,0.0,0.0,0.0,0.0,0.0,0.0,0.0,0.0,0.0,0.0,0.0,0.0,0.0,0.0,0.0,0.0,0.0,0.0,0.0,0.0,0.0,0.0,0.0,0.0,0.0,0.0,0.0,0.0,0.0,0.0,0.0,0.0,0.0,0.0,0.0,0.0,0.0,0.0,0.0,0.0,0.0,0.0,0.0,0.0,0.0,0.0,0.0,0.0,0.0,0.0,0.0,0.0,0.0,0.0,0.0,0.0,0.0,0.0,0.0,0.0,0.0,0.0,0.0,0.0,0.0,0.0,0.0,0.0,0.0,0.0,0.0,0.0,0.0,0.0,0.0,0.0,0.0,0.0,0.0,0.0,0.0,0.0,0.0,0.0,0.0,0.0,0.0,0.0,0.0,0.0,0.0,0.0,0.0,0.0,0.0,0.0,0.0,0.0,0.0,0.0,0.0,0.0,0.0,0.0,0.0,0.0,0.0,0.0,0.0,0.0,0.0,0.0,0.0,0.0,0.0,0.0,0.0,0.0,0.0,0.0,0.0,0.0,0.0,0.0,0.0,0.0,0.0,0.0,0.0,0.0,0.0,0.0,0.0,0.0,0.0,0.0,0.0,0.0,0.0,0.0,0.0,0.0,0.0,0.0,0.0,0.0,0.0,0.0,0.0,0.0,0.0,0.0,0.0,0.0,0.0,0.0,0.0,0.0,0.0,0.0,0.0,0.0,0.0,0.0,0.0,0.0,0.0,0.0,0.0,0.0,0.0,0.0,0.0,0.0,0.0,0.0,0.0,0.0,0.0,0.0,0.0,0.0,0.0,0.0,0.0,0.0,0.0,0.0,0.0,0.0,0.0,0.0,0.0,0.0,0.0,0.0,0.0,0.0,0.0,0.0,0.0,0.0,0.0,0.0,0.0,0.0,0.0,0.0,0.0,0.0,0.0,0.0,0.0,0.0,0.0,0.0,0.0,0.0,0.0,0.0,0.0,0.0,0.0,0.0,0.0,0.0,0.0,0.0,0.0,0.0,0.0,0.0,0.0,0.0,0.0,0.0,0.0,0.0,0.0,0.0,0.0,0.0,0.0,0.0,0.0,0.0,0.0,0.0,0.0,0.0,0.0,0.0,0.0,0.0,0.0,0.0,0.0,0.0,0.0,0.0,0.0,0.0,0.0,0.0,0.0,0.0,0.0,0.0,0.0,0.0,0.0,0.0,0.0,0.0,0.0,0.0,0.0,0.0,0.0,0.0,0.0,0.0,0.0,0.0,0.0,0.0,0.0,0.0,0.0,0.0,0.0,0.0,0.0,0.0,0.0,0.0,0.0,0.0,0.0,0.0,0.0,0.0,0.0,0.0,0.0,0.0,0.0,0.0,0.0,0.0,0.0,0.0,0.0,0.0,0.0,0.0,0.0,0.0,0.0,0.0,0.0,0.0,0.0,0.0,0.0,0.0,0.0,0.0,0.0,0.0,0.0,0.0,0.0,0.0,0.0,0.0,0.0,0.0,0.0,0.0,0.0,0.0,0.0,0.0,0.0,0.0,0.0,0.0,0.0,0.0,0.0,0.0,0.0,0.0,0.0,0.0,0.0,0.0,0.0,0.0,0.0,0.0,0.0,0.0,0.0,0.0,0.0,0.0,0.0,0.0,0.0,0.0,0.0,0.0,0.0,0.0,0.0,0.0,0.0,0.0,0.0,0.0,0.0,0.0,0.0,0.0,0.0,0.0,0.0,0.0,0.0,0.0,0.0,0.0,0.0,0.0,0.0,0.0,0.0,0.0,0.0,0.0,0.0,0.0,0.0,0.0,0.0,0.0,0.0,0.0,0.0,0.0,0.0,0.0,0.0,0.0,0.0,0.0,0.0,0.0,0.0,0.0,0.0,0.0,0.0,0.0,0.0,0.0,0.0,0.0,0.0,0.0,0.0,0.0,0.0,0.0,0.0,0.0,0.0,0.0,0.0,0.0,0.0,0.0,0.0,0.0,0.0,0.0,0.0,0.0,0.0,0.0,0.0,0.0,0.0,0.0,0.0,0.0,0.0,0.0,0.0,0.0,0.0,0.0,0.0,0.0,0.0,0.0,0.0,0.0,0.0,0.0,0.0,0.0,0.0,0.0,0.0,0.0,0.0,0.0,0.0,0.0,0.0,0.0,0.0,0.0,0.0,0.0,0.0,0.0,0.0,0.0,0.0,0.0,0.0,0.0,0.0,0.0,0.0,0.0,0.0,0.0,0.0,0.0,0.0,0.0,0.0,0.0,0.0,0.0,0.0,0.0,0.0,0.0,0.0,0.0,0.0,0.0,0.0,0.0,0.0,0.0,0.0,0.0,0.0,0.0,0.0,0.0,0.0,0.0,0.0,0.0,0.0,0.0,0.0,0.0,0.0,0.0,0.0,0.0,0.0,0.0,0.0,0.0,0.0,0.0,0.0,0.0,0.0,0.0,0.0,0.0,0.0,0.0,0.0,0.0,0.0,0.0,0.0,0.0,0.0,0.0,0.0,0.0,0.0,0.0,0.0,0.0,0.0,0.0,0.0,0.0,0.0,0.0,0.0,0.0,0.0,0.0,0.0,0.0,0.0,0.0,0.0,0.0,0.0,0.0,0.0,0.0,0.0,0.0,0.0,0.0,0.0,0.0,0.0,0.0,0.0,0.0,0.0,0.0,0.0,0.0,0.0,0.0,0.0,0.0,0.0,0.0,0.0,0.0,0.0,0.0,0.0,0.0,0.0,0.0,0.0,0.0,0.0,0.0,0.0,0.0,0.0,0.0,0.0,0.0,0.0,0.0,0.0,0.0,0.0,0.0,0.0,0.0,0.0,0.0,0.0,-0.4682,0.0,0.0,0.0,-0.5588,0.0,0.0,0.0,0.0,0.0,0.0,0.0,0.0,0.0,0.0,0.0,0.0,0.0,0.0,0.0,0.0,0.0,0.0,0.0,0.0,0.0,0.0,0.0,0.0,0.0,0.0,0.0,0.0,0.0,0.0,0.0,0.0,0.0,0.0,0.0,0.0,0.0,0.0,0.0,0.0,0.0,0.0,0.0,0.0,0.0,0.0,0.0,0.0,0.0,0.0,0.0,0.0,0.0,0.0,0.0,0.0,0.0,0.0,0.0,0.0,0.0,0.0,0.0,0.0,0.0,0.0,0.0,0.0,0.0,0.0,0.0,0.0,0.0,0.0,0.0,0.0,0.0,0.0,0.0,0.0,0.0,0.0,0.0,0.0,0.0,0.0,0.0,0.0,0.0,0.0,0.0,0.0,0.0,0.0,0.0,0.0,0.0,0.0,0.0,0.0,0.0,0.0,0.0,0.0,0.0,0.0,0.0,0.0,0.0,0.0,-0.5455,-0.5576,-0.6545,-0.6661,-0.5951,0.0,0.0,0.0,0.0,0.0,0.0,0.0,0.0,0.0,0.0,0.0,0.0,0.0,0.0,0.0,0.0,0.0,0.0,0.0,0.0,0.0,0.0,0.0,0.0,0.0,0.0,0.0,0.0,0.0,0.0,0.0,0.0,0.0,0.0,0.0,0.0,0.0,0.0,0.0,0.0,0.0,0.0,0.0,0.0,0.0,0.0,0.0,0.0,0.0,0.0,0.0,0.0,0.0,0.0,0.0,0.0,0.0,0.0,0.0,0.0,0.0,0.0,0.0,0.0,0.0,0.0,0.0,0.0,0.0,0.0,0.0,0.0,0.0,0.0,0.0,0.0,0.0,0.0,0.0,0.0,0.0,0.0,0.0,0.0,0.0,0.0,0.0,0.0,0.0,0.0,0.0,0.0,0.0,0.0,0.0,0.0,0.0,0.0,0.0,0.0,0.0,0.0,0.0,0.0,0.0,0.0,0.0,0.0,0.0,0.0,0.0,0.0,-0.6997,-0.7328,-0.6791,0.0,0.0,0.0,0.0,0.0,0.0,0.0,0.0,0.0,0.0,0.0,0.0,0.0,0.0,0.0,0.0,0.0,0.0,0.0,0.0,0.0,0.0,0.0,0.0,0.0,0.0,0.0,0.0,0.0,0.0,0.0,0.0,0.0,0.0,0.0,0.0,0.0,0.0,0.0,0.0,0.0,0.0,0.0,0.0,0.0,0.0,0.0,0.0,0.0,0.0,0.0,0.0,0.0,0.0,0.0,0.0,0.0,0.0,0.0,0.0,0.0,0.0,0.0,0.0,0.0,0.0,0.0,0.0,0.0,0.0,0.0,0.0,0.0,0.0,0.0,0.0,0.0,0.0,0.0,0.0,0.0,0.0,0.0,0.0,0.0,0.0,0.0,0.0,0.0,0.0,0.0,0.0,0.0,0.0,0.0,0.0,0.0,0.0,0.0,0.0,0.0,0.0,0.0,0.0,0.0,0.0,0.0,0.0,0.0,0.0,-0.6222,-0.735,-0.7106,0.0,-0.8142,0.0,0.0,0.0,0.0,0.0,0.0,0.0,0.0,0.0,0.0,0.0,0.0,0.0,0.0,0.0,0.0,0.0,0.0,0.0,0.0,0.0,0.0,0.0,0.0,0.0,0.0,0.0,0.0,0.0,0.0,0.0,0.0,0.0,0.0,0.0,0.0,0.0,0.0,0.0,0.0,0.0,0.0,0.0,0.0,0.0,0.0,0.0,0.0,0.0,0.0,0.0,0.0,0.0,0.0,0.0,0.0,0.0,0.0,0.0,0.0,0.0,0.0,0.0,0.0,0.0,0.0,0.0,0.0,0.0,0.0,0.0,0.0,0.0,0.0,0.0,0.0,0.0,0.0,0.0,0.0,0.0,0.0,0.0,0.0,0.0,0.0,0.0,0.0,0.0,0.0,0.0,0.0,0.0,0.0,0.0,0.0,0.0,0.0,0.0,0.0,0.0,0.0,0.0,0.0,0.0,0.0,0.0,0.0,0.0,0.0,-0.6741,-0.6432,-0.6166,-0.6705,0.0,0.0,0.0,0.0,0.0,0.0,0.0,0.0,0.0,0.0,0.0,0.0,0.0,0.0,0.0,0.0,0.0,0.0,0.0,0.0,0.0,0.0,0.0,0.0,0.0,0.0,0.0,0.0,0.0,0.0,0.0,0.0,0.0,0.0,0.0,0.0,0.0,0.0,0.0,0.0,0.0,0.0,0.0,0.0,0.0,0.0,0.0,0.0,0.0,0.0,0.0,0.0,0.0,0.0,0.0,0.0,0.0,0.0,0.0,0.0,0.0,0.0,0.0,0.0,0.0,0.0,0.0,0.0,0.0,0.0,0.0,0.0,0.0,0.0,0.0,0.0,0.0,0.0,0.0,0.0,0.0,0.0,0.0,0.0,0.0,0.0,0.0,0.0,0.0,0.0,0.0,0.0,0.0,0.0,0.0,0.0,0.0,0.0,0.0,0.0,0.0,0.0,0.0,0.0,0.0,0.0,0.0,0.0,0.0,0.0,-0.6689,-0.6878,-0.6194,-0.6071,-0.6678,-0.8052,0.0,0.0,0.0,0.0,0.0,0.0,0.0,0.0,0.0,0.0,0.0,0.0,0.0,0.0,0.0,0.0,0.0,0.0,0.0,0.0,0.0,0.0,0.0,0.0,0.0,0.0,0.0,0.0,0.0,0.0,0.0,0.0,0.0,0.0,0.0,0.0,0.0,0.0,0.0,0.0,0.0,0.0,0.0,0.0,0.0,0.0,0.0,0.0,0.0,0.0,0.0,0.0,0.0,0.0,0.0,0.0,0.0,0.0,0.0,0.0,0.0,0.0,0.0,0.0,0.0,0.0,0.0,0.0,0.0,0.0,0.0,0.0,0.0,0.0,0.0,0.0,0.0,0.0,0.0,0.0,0.0,0.0,0.0,0.0,0.0,0.0,0.0,0.0,0.0,0.0,0.0,0.0,0.0,0.0,0.0,0.0,0.0,0.0,0.0,0.0,0.0,0.0,0.0,0.0,0.0,0.0,0.0,0.0,-0.5949,-0.5917,-0.6426,-0.7462,-0.7512,-0.778,0.0,0.0,0.0,0.0,0.0,0.0,0.0,0.0,0.0,0.0,0.0,0.0,0.0,0.0,0.0,0.0,0.0,0.0,0.0,0.0,0.0,0.0,0.0,0.0,0.0,0.0,0.0,0.0,0.0,0.0,0.0,0.0,0.0,0.0,0.0,0.0,0.0,0.0,0.0,0.0,0.0,0.0,0.0,0.0,0.0,0.0,0.0,0.0,0.0,0.0,0.0,0.0,0.0,0.0,0.0,0.0,0.0,0.0,0.0,0.0,0.0,0.0,0.0,0.0,0.0,0.0,0.0,0.0,0.0,0.0,0.0,0.0,0.0,0.0,0.0,0.0,0.0,0.0,0.0,0.0,0.0,0.0,0.0,0.0,0.0,0.0,0.0,0.0,0.0,0.0,0.0,0.0,0.0,0.0,0.0,0.0,0.0,0.0,0.0,0.0,0.0,0.0,0.0,0.0,0.0,0.0,0.0,0.0,0.0,-0.5325,-0.5542,-0.6581,-0.8413,-0.7451,-0.7649,0.0,0.0,0.0,0.0,0.0,0.0,0.0,0.0,0.0,0.0,0.0,0.0,0.0,0.0,0.0,0.0,0.0,0.0,0.0,0.0,0.0,0.0,0.0,0.0,0.0,0.0,0.0,0.0,0.0,0.0,0.0,0.0,0.0,0.0,0.0,0.0,0.0,0.0,0.0,0.0,0.0,0.0,0.0,0.0,0.0,0.0,0.0,0.0,0.0,0.0,0.0,0.0,0.0,0.0,0.0,0.0,0.0,0.0,0.0,0.0,0.0,0.0,0.0,0.0,0.0,0.0,0.0,0.0,0.0,0.0,0.0,0.0,0.0,0.0,0.0,0.0,0.0,0.0,0.0,0.0,0.0,0.0,0.0,0.0,0.0,0.0,0.0,0.0,0.0,0.0,0.0,0.0,0.0,0.0,0.0,0.0,0.0,0.0,0.0,0.0,0.0,0.0,0.0,0.0,0.0,0.0,0.0,0.0,0.0,-0.5432,-0.6635,-0.7738,-0.8522,-0.7747,-0.7952,0.0,0.0,0.0,0.0,0.0,0.0,0.0,0.0,0.0,0.0,0.0,0.0,0.0,0.0,0.0,0.0,0.0,0.0,0.0,0.0,0.0,0.0,0.0,0.0,0.0,0.0,0.0,0.0,0.0,0.0,0.0,0.0,0.0,0.0,0.0,0.0,0.0,0.0,0.0,0.0,0.0,0.0,0.0,0.0,0.0,0.0,0.0,0.0,0.0,0.0,0.0,0.0,0.0,0.0,0.0,0.0,0.0,0.0,0.0,0.0,0.0,0.0,0.0,0.0,0.0,0.0,0.0,0.0,0.0,0.0,0.0,0.0,0.0,0.0,0.0,0.0,0.0,0.0,0.0,0.0,0.0,0.0,0.0,0.0,0.0,0.0,0.0,0.0,0.0,0.0,0.0,0.0,0.0,0.0,0.0,0.0,0.0,0.0,0.0,0.0,0.0,0.0,0.0,0.0,0.0,0.0,0.0,0.0,-0.5479,-0.6437,-0.918,-0.9669,-0.7756,-0.8562,-0.869,0.0,0.0,0.0,0.0,0.0,0.0,0.0,0.0,0.0,0.0,0.0,0.0,0.0,0.0,0.0,0.0,0.0,0.0,0.0,0.0,0.0,0.0,0.0,0.0,0.0,0.0,0.0,0.0,0.0,0.0,0.0,0.0,0.0,0.0,0.0,0.0,0.0,0.0,0.0,0.0,0.0,0.0,0.0,0.0,0.0,0.0,0.0,0.0,0.0,0.0,0.0,0.0,0.0,0.0,0.0,0.0,0.0,0.0,0.0,0.0,0.0,0.0,0.0,0.0,0.0,0.0,0.0,0.0,0.0,0.0,0.0,0.0,0.0,0.0,0.0,0.0,0.0,0.0,0.0,0.0,0.0,0.0,0.0,0.0,0.0,0.0,0.0,0.0,0.0,0.0,0.0,0.0,0.0,0.0,0.0,0.0,0.0,0.0,0.0,0.0,0.0,0.0,0.0,0.0,0.0,0.0,0.0,0.0,0.0,-0.8949,-0.9814,-1.021,-1.0,-0.9173,-0.9167,0.0,0.0,0.0,0.0,0.0,0.0,0.0,0.0,0.0,0.0,0.0,0.0,0.0,0.0,0.0,0.0,0.0,0.0,0.0,0.0,0.0,0.0,0.0,0.0,0.0,0.0,0.0,0.0,0.0,0.0,0.0,0.0,0.0,0.0,0.0,0.0,0.0,0.0,0.0,0.0,0.0,0.0,0.0,0.0,0.0,0.0,0.0,0.0,0.0,0.0,0.0,0.0,0.0,0.0,0.0,0.0,0.0,0.0,0.0,0.0,0.0,0.0,0.0,0.0,0.0,0.0,0.0,0.0,0.0,0.0,0.0,0.0,0.0,0.0,0.0,0.0,0.0,0.0,0.0,0.0,0.0,0.0,0.0,0.0,0.0,0.0,0.0,0.0,0.0,0.0,0.0,0.0,0.0,0.0,0.0,0.0,0.0,0.0,0.0,0.0,0.0,0.0,0.0,0.0,0.0,0.0,0.0,0.0,0.0,-1.0623,-1.1625,-1.1845,-1.1142,-0.9928,-0.9547,-1.0058,0.0,0.0,0.0,0.0,0.0,0.0,0.0,0.0,0.0,0.0,0.0,0.0,0.0,0.0,0.0,0.0,0.0,0.0,0.0,0.0,0.0,0.0,0.0,0.0,0.0,0.0,0.0,0.0,0.0,0.0,0.0,0.0,0.0,0.0,0.0,0.0,0.0,0.0,0.0,0.0,0.0,0.0,0.0,0.0,0.0,0.0,0.0,0.0,0.0,0.0,0.0,0.0,0.0,0.0,0.0,0.0,0.0,0.0,0.0,0.0,0.0,0.0,0.0,0.0,0.0,0.0,0.0,0.0,0.0,0.0,0.0,0.0,0.0,0.0,0.0,0.0,0.0,0.0,0.0,0.0,0.0,0.0,0.0,0.0,0.0,0.0,0.0,0.0,0.0,0.0,0.0,0.0,0.0,0.0,0.0,0.0,0.0,0.0,0.0,0.0,0.0,0.0,0.0,0.0,0.0,0.0,0.0,0.0,-1.1466,-1.4243,-1.4206,-1.1236,-1.0697,-0.9957,0.0,0.0,0.0,0.0,0.0,0.0,0.0,0.0,0.0,0.0,0.0,0.0,0.0,0.0,0.0,0.0,0.0,0.0,0.0,0.0,0.0,0.0,0.0,0.0,0.0,0.0,0.0,0.0,0.0,0.0,0.0,0.0,0.0,0.0,0.0,0.0,0.0,0.0,0.0,0.0,0.0,0.0,0.0,0.0,0.0,0.0,0.0,0.0,0.0,0.0,0.0,0.0,0.0,0.0,0.0,0.0,0.0,0.0,0.0,0.0,0.0,0.0,0.0,0.0,0.0,0.0,0.0,0.0,0.0,0.0,0.0,0.0,0.0,0.0,0.0,0.0,0.0,0.0,0.0,0.0,0.0,0.0,0.0,0.0,0.0,0.0,0.0,0.0,0.0,0.0,0.0,0.0,0.0,0.0,0.0,0.0,0.0,0.0,0.0,0.0,0.0,0.0,0.0,0.0,0.0,0.0,0.0,0.0,0.0,-1.2892,-1.3597,-1.3064,-1.1164,-1.1485,-1.121,0.0,0.0,0.0,0.0,0.0,0.0,0.0,0.0,0.0,0.0,0.0,0.0,0.0,0.0,0.0,0.0,0.0,0.0,0.0,0.0,0.0,0.0,0.0,0.0,0.0,0.0,0.0,0.0,0.0,0.0,0.0,0.0,0.0,0.0,0.0,0.0,0.0,0.0,0.0,0.0,0.0,0.0,0.0,0.0,0.0,0.0,0.0,0.0,0.0,0.0,0.0,0.0,0.0,0.0,0.0,0.0,0.0,0.0,0.0,0.0,0.0,0.0,0.0,0.0,0.0,0.0,0.0,0.0,0.0,0.0,0.0,0.0,0.0,0.0,0.0,0.0,0.0,0.0,0.0,0.0,0.0,0.0,0.0,0.0,0.0,0.0,0.0,0.0,0.0,0.0,0.0,0.0,0.0,0.0,0.0,0.0,0.0,0.0,0.0,0.0,0.0,0.0,0.0,0.0,0.0,0.0,0.0,0.0,-1.15,-1.2217,-1.3635,-1.3268,-1.0981,-1.1069,-1.1019,0.0,0.0,0.0,0.0,0.0,0.0,0.0,0.0,0.0,0.0,0.0,0.0,0.0,0.0,0.0,0.0,0.0,0.0,0.0,0.0,0.0,0.0,0.0,0.0,0.0,0.0,0.0,0.0,0.0,0.0,0.0,0.0,0.0,0.0,0.0,0.0,0.0,0.0,0.0,0.0,0.0,0.0,0.0,0.0,0.0,0.0,0.0,0.0,0.0,0.0,0.0,0.0,0.0,0.0,0.0,0.0,0.0,0.0,0.0,0.0,0.0,0.0,0.0,0.0,0.0,0.0,0.0,0.0,0.0,0.0,0.0,0.0,0.0,0.0,0.0,0.0,0.0,0.0,0.0,0.0,0.0,0.0,0.0,0.0,0.0,0.0,0.0,0.0,0.0,0.0,0.0,0.0,0.0,0.0,0.0,0.0,0.0,0.0,0.0,0.0,0.0,0.0,0.0,0.0,0.0,0.0,0.0,0.0,-1.1256,-1.0531,-1.3678,-1.384,-1.0829,-1.0198,-1.0273,0.0,0.0,0.0,0.0,0.0,0.0,0.0,0.0,0.0,0.0,0.0,0.0,0.0,0.0,0.0,0.0,0.0,0.0,0.0,0.0,0.0,0.0,0.0,0.0,0.0,0.0,0.0,0.0,0.0,0.0,0.0,0.0,0.0,0.0,0.0,0.0,0.0,0.0,0.0,0.0,0.0,0.0,0.0,0.0,0.0,0.0,0.0,0.0,0.0,0.0,0.0,0.0,0.0,0.0,0.0,0.0,0.0,0.0,0.0,0.0,0.0,0.0,0.0,0.0,0.0,0.0,0.0,0.0,0.0,0.0,0.0,0.0,0.0,0.0,0.0,0.0,0.0,0.0,0.0,0.0,0.0,0.0,0.0,0.0,0.0,0.0,0.0,0.0,0.0,0.0,0.0,0.0,0.0,0.0,0.0,0.0,0.0,0.0,0.0,0.0,0.0,0.0,0.0,0.0,0.0,0.0,0.0,0.0,-1.0186,-1.0538,-1.1352,-1.1439,-1.0717,-1.1394,-1.1859,0.0,0.0,0.0,0.0,0.0,0.0,0.0,0.0,0.0,0.0,0.0,0.0,0.0,0.0,0.0,0.0,0.0,0.0,0.0,0.0,0.0,0.0,0.0,0.0,0.0,0.0,0.0,0.0,0.0,0.0,0.0,0.0,0.0,0.0,0.0,0.0,0.0,0.0,0.0,0.0,0.0,0.0,0.0,0.0,0.0,0.0,0.0,0.0,-0.4158,0.0,0.0,0.0,0.0,0.0,0.0,0.0,0.0,0.0,0.0,0.0,0.0,0.0,0.0,0.0,0.0,0.0,0.0,0.0,0.0,0.0,0.0,0.0,0.0,0.0,0.0,0.0,0.0,0.0,0.0,0.0,0.0,0.0,0.0,0.0,0.0,0.0,0.0,0.0,0.0,0.0,0.0,0.0,0.0,0.0,0.0,0.0,0.0,0.0,0.0,0.0,0.0,0.0,0.0,0.0,0.0,0.0,0.0,0.0,-0.993,-1.0575,-1.0677,-1.0717,-1.0704,-1.1298,-1.1523,0.0,0.0,0.0,0.0,0.0,0.0,0.0,0.0,0.0,0.0,0.0,0.0,0.0,0.0,0.0,0.0,0.0,0.0,0.0,0.0,0.0,0.0,0.0,0.0,0.0,0.0,0.0,0.0,0.0,0.0,0.0,0.0,0.0,0.0,0.0,0.0,0.0,0.0,0.0,0.0,0.0,0.0,0.0,0.0,0.0,0.0,0.0,0.0,0.0,0.0,0.0,0.0,0.0,0.0,0.0,0.0,0.0,0.0,0.0,0.0,0.0,0.0,0.0,0.0,0.0,0.0,0.0,0.0,0.0,0.0,0.0,0.0,0.0,0.0,0.0,0.0,0.0,0.0,0.0,0.0,0.0,0.0,0.0,0.0,0.0,0.0,0.0,0.0,0.0,0.0,0.0,0.0,0.0,0.0,0.0,0.0,0.0,0.0,0.0,0.0,0.0,0.0,0.0,0.0,0.0,0.0,0.0,-0.934,-1.0039,-1.0751,-1.0785,-1.0785,-1.0785,-1.0765,-1.0565,-1.0341,0.0,0.0,0.0,0.0,0.0,0.0,0.0,0.0,0.0,0.0,0.0,0.0,0.0,0.0,0.0,0.0,0.0,0.0,0.0,0.0,0.0,0.0,0.0,0.0,0.0,0.0,0.0,0.0,0.0,0.0,0.0,0.0,0.0,0.0,0.0,0.0,0.0,0.0,-0.5651,-0.6238,0.0,0.0,0.0,0.0,0.0,0.0,0.0,0.0,-0.5786,0.0,0.0,0.0,0.0,0.0,0.0,0.0,0.0,0.0,0.0,0.0,0.0,0.0,0.0,0.0,0.0,0.0,0.0,0.0,0.0,0.0,0.0,0.0,0.0,0.0,0.0,0.0,0.0,0.0,0.0,0.0,0.0,0.0,0.0,0.0,0.0,0.0,0.0,0.0,0.0,0.0,0.0,0.0,0.0,0.0,0.0,0.0,0.0,0.0,0.0,0.0,0.0,0.0,0.0,0.0,0.0,-0.9578,-0.9849,-1.0337,-1.107,-1.109,-1.109,-1.1084,-1.0975,-1.0842,-1.0827,0.0,0.0,0.0,0.0,0.0,0.0,0.0,0.0,0.0,0.0,0.0,0.0,0.0,0.0,0.0,0.0,0.0,0.0,0.0,0.0,0.0,0.0,0.0,0.0,0.0,0.0,0.0,0.0,0.0,0.0,0.0,0.0,0.0,0.0,0.0,0.0,0.0,0.0,0.0,-0.7068,-0.7262,0.0,0.0,0.0,0.0,0.0,0.0,0.0,0.0,-0.5976,0.0,0.0,0.0,0.0,0.0,0.0,0.0,0.0,0.0,0.0,0.0,0.0,0.0,0.0,0.0,0.0,0.0,0.0,0.0,0.0,0.0,0.0,0.0,0.0,0.0,0.0,0.0,0.0,0.0,0.0,0.0,0.0,0.0,0.0,0.0,0.0,0.0,0.0,0.0,0.0,0.0,0.0,0.0,0.0,0.0,0.0,0.0,0.0,0.0,0.0,0.0,0.0,0.0,0.0,0.0,-0.9296,-1.0058,-1.0724,-1.1214,-1.1234,-1.1234,-1.1227,-1.1752,-1.1933,0.0,0.0,0.0,0.0,0.0,0.0,0.0,0.0,0.0,0.0,0.0,0.0,0.0,0.0,0.0,0.0,0.0,0.0,0.0,0.0,0.0,0.0,0.0,0.0,0.0,0.0,0.0,0.0,0.0,0.0,0.0,0.0,0.0,0.0,0.0,0.0,0.0,0.0,0.0,0.0,-0.7624,-0.7773,-0.7923,0.0,0.0,0.0,0.0,0.0,0.0,-0.639,-0.622,0.0,0.0,0.0,0.0,0.0,0.0,0.0,0.0,0.0,0.0,0.0,0.0,0.0,0.0,0.0,0.0,0.0,0.0,0.0,0.0,0.0,0.0,0.0,0.0,0.0,0.0,0.0,0.0,0.0,0.0,0.0,0.0,0.0,0.0,0.0,0.0,0.0,0.0,0.0,0.0,0.0,0.0,0.0,0.0,0.0,0.0,0.0,0.0,0.0,0.0,0.0,0.0,0.0,0.0,0.0,-0.9049,-1.0172,-1.0975,-1.1192,-1.1206,-1.1192,-1.1227,-1.2202,-1.2666,0.0,0.0,0.0,0.0,0.0,0.0,0.0,0.0,0.0,0.0,0.0,0.0,0.0,0.0,0.0,0.0,0.0,0.0,0.0,0.0,0.0,0.0,0.0,0.0,0.0,0.0,0.0,0.0,0.0,0.0,0.0,0.0,0.0,0.0,0.0,0.0,0.0,0.0,0.0,0.0,0.0,-0.816,-0.8357,-0.7855,0.0,0.0,0.0,0.0,-0.7048,-0.6959,0.0,0.0,0.0,0.0,0.0,0.0,0.0,0.0,0.0,0.0,0.0,0.0,0.0,0.0,0.0,0.0,0.0,0.0,0.0,0.0,0.0,0.0,0.0,0.0,0.0,0.0,0.0,0.0,0.0,0.0,0.0,0.0,0.0,0.0,0.0,0.0,0.0,0.0,0.0,0.0,0.0,0.0,0.0,0.0,0.0,0.0,0.0,0.0,0.0,0.0,0.0,0.0,0.0,0.0,0.0,0.0,-0.9313,-1.0127,-1.0812,-1.1335,-1.1369,-1.1301,-1.1165,-1.1331,-1.1774,0.0,0.0,0.0,0.0,0.0,0.0,0.0,0.0,0.0,0.0,0.0,0.0,0.0,0.0,0.0,0.0,0.0,0.0,0.0,0.0,0.0,0.0,0.0,0.0,0.0,0.0,0.0,0.0,0.0,0.0,0.0,0.0,0.0,0.0,0.0,0.0,0.0,0.0,0.0,0.0,0.0,-0.8208,-0.8106,-0.7902,-0.7787,0.0,0.0,-0.7821,-0.8214,-0.8262,0.0,0.0,0.0,0.0,0.0,0.0,0.0,0.0,0.0,0.0,0.0,0.0,0.0,0.0,0.0,0.0,0.0,0.0,0.0,0.0,0.0,0.0,0.0,0.0,0.0,0.0,0.0,0.0,0.0,0.0,0.0,0.0,0.0,0.0,0.0,0.0,0.0,0.0,0.0,0.0,0.0,0.0,0.0,0.0,0.0,0.0,0.0,0.0,0.0,0.0,0.0,0.0,0.0,0.0,0.0,-0.9377,-0.9632,-1.0622,-1.1341,-1.1748,-1.1606,-1.1525,-1.1538,-1.2186,-1.224,0.0,0.0,0.0,0.0,0.0,0.0,0.0,0.0,0.0,0.0,0.0,0.0,0.0,0.0,0.0,0.0,0.0,0.0,0.0,0.0,0.0,0.0,0.0,0.0,0.0,0.0,0.0,0.0,0.0,0.0,0.0,0.0,0.0,0.0,0.0,0.0,0.0,0.0,0.0,0.0,0.0,0.0,-0.8946,-0.8649,0.0,0.0,0.0,-0.833,-0.8357,0.0,0.0,0.0,0.0,0.0,0.0,0.0,0.0,0.0,0.0,0.0,0.0,0.0,0.0,0.0,0.0,0.0,0.0,0.0,0.0,0.0,0.0,0.0,0.0,0.0,0.0,0.0,0.0,0.0,0.0,0.0,0.0,0.0,0.0,0.0,0.0,0.0,0.0,0.0,0.0,0.0,0.0,0.0,0.0,0.0,0.0,0.0,0.0,0.0,0.0,0.0,0.0,0.0,0.0,0.0,0.0,0.0,-0.9829,-1.1043,-1.1762,-1.1932,-1.1694,-1.1592,-1.1653,-1.2555,0.0,0.0,0.0,0.0,0.0,0.0,0.0,0.0,0.0,0.0,0.0,0.0,0.0,0.0,0.0,0.0,0.0,0.0,0.0,0.0,0.0,0.0,0.0,0.0,0.0,0.0,0.0,-0.4798,0.0,0.0,0.0,0.0,0.0,0.0,0.0,0.0,0.0,0.0,0.0,0.0,0.0,0.0,-0.8852,-0.9557,-0.9367,-0.9128,0.0,0.0,-0.8886,-0.8737,-0.8899,-0.8804,0.0,0.0,0.0,0.0,0.0,0.0,0.0,0.0,0.0,0.0,0.0,0.0,0.0,0.0,0.0,0.0,0.0,0.0,0.0,0.0,0.0,0.0,0.0,0.0,0.0,0.0,0.0,0.0,0.0,0.0,0.0,0.0,0.0,0.0,0.0,0.0,0.0,0.0,0.0,0.0,0.0,0.0,0.0,0.0,0.0,0.0,0.0,0.0,0.0,0.0,0.0,0.0,0.0,0.0,-0.9476,-0.9842,-1.1138,-1.1769,-1.1653,-1.1491,-1.1341,-1.1219,-1.1461,-1.1344,0.0,0.0,0.0,0.0,0.0,0.0,0.0,0.0,0.0,0.0,0.0,0.0,0.0,0.0,0.0,0.0,0.0,0.0,0.0,0.0,0.0,0.0,0.0,0.0,0.0,0.0,0.0,0.0,0.0,0.0,0.0,0.0,0.0,0.0,0.0,0.0,0.0,0.0,0.0,0.0,0.0,-0.8572,-0.9173,-0.9523,-0.9863,0.0,-0.9829,-0.9639,-0.9822,-0.9876,-0.9417,-0.8058,0.0,0.0,0.0,0.0,0.0,0.0,0.0,0.0,0.0,0.0,0.0,0.0,0.0,0.0,0.0,0.0,0.0,0.0,0.0,0.0,0.0,0.0,0.0,0.0,0.0,0.0,0.0,0.0,0.0,0.0,0.0,0.0,0.0,0.0,0.0,0.0,0.0,0.0,0.0,0.0,0.0,0.0,0.0,0.0,0.0,0.0,0.0,0.0,0.0,0.0,0.0,0.0,0.0,-1.0098,-1.0107,-1.1335,-1.2033,-1.2149,-1.1932,-1.1889,-1.1857,-1.1735,-1.1338,0.0,0.0,0.0,0.0,0.0,0.0,0.0,0.0,0.0,0.0,0.0,0.0,0.0,0.0,0.0,0.0,0.0,0.0,0.0,0.0,0.0,0.0,0.0,0.0,0.0,0.0,0.0,0.0,-0.6742,-0.6946,-0.6817,0.0,0.0,0.0,0.0,0.0,0.0,0.0,0.0,0.0,0.0,-0.9693,-1.0188,-1.0405,0.0,0.0,-1.0249,-1.0059,-1.0175,-0.9958,-0.9523,-0.8757,-0.8438,0.0,0.0,0.0,0.0,0.0,0.0,0.0,0.0,0.0,0.0,0.0,0.0,0.0,0.0,0.0,0.0,0.0,0.0,0.0,0.0,0.0,0.0,0.0,0.0,0.0,0.0,-1.108,-1.1209,0.0,0.0,0.0,0.0,0.0,0.0,0.0,0.0,0.0,0.0,0.0,0.0,0.0,0.0,0.0,0.0,0.0,0.0,0.0,0.0,0.0,0.0,0.0,0.0,-1.0718,-1.034,-1.1545,-1.2271,-1.2433,-1.2189,-1.2115,-1.221,-1.1965,-1.143,-1.0582,0.0,0.0,0.0,0.0,0.0,0.0,0.0,0.0,0.0,0.0,0.0,0.0,0.0,0.0,0.0,0.0,0.0,0.0,0.0,0.0,0.0,0.0,0.0,0.0,0.0,0.0,0.0,-0.7405,-0.7333,-0.7112,0.0,0.0,0.0,0.0,0.0,0.0,0.0,0.0,0.0,0.0,-1.0575,-1.0948,-1.1043,-1.0962,-1.0812,-1.05,-1.0249,-1.0154,-1.0025,-0.9781,-0.93,0.0,0.0,0.0,0.0,0.0,0.0,0.0,0.0,0.0,0.0,0.0,0.0,0.0,0.0,0.0,0.0,0.0,0.0,0.0,0.0,0.0,0.0,0.0,0.0,0.0,0.0,0.0,-0.9184,0.0,0.0,-0.9157,0.0,0.0,0.0,0.0,0.0,0.0,0.0,0.0,0.0,0.0,0.0,0.0,0.0,0.0,0.0,0.0,0.0,0.0,0.0,0.0,0.0,0.0,-1.1172,-1.0354,-1.1807,-1.2427,-1.2305,-1.2142,-1.2149,-1.2081,-1.1918,-1.1413,-1.0731,0.0,0.0,0.0,0.0,0.0,0.0,0.0,0.0,0.0,0.0,0.0,0.0,0.0,0.0,0.0,0.0,0.0,0.0,0.0,0.0,0.0,0.0,0.0,0.0,0.0,0.0,-0.8121,-0.7334,-0.6964,0.0,0.0,0.0,0.0,0.0,0.0,0.0,0.0,0.0,-0.9903,-1.0419,-1.0887,-1.1328,-1.1267,-1.1151,-1.0995,-1.0595,-1.0202,-0.9937,-1.0331,-1.0399,0.0,0.0,0.0,0.0,0.0,0.0,0.0,0.0,0.0,0.0,0.0,0.0,0.0,0.0,0.0,0.0,0.0,0.0,0.0,0.0,0.0,0.0,0.0,0.0,0.0,0.0,0.0,-1.0568,-1.0193,0.0,0.0,0.0,0.0,0.0,0.0,0.0,0.0,0.0,0.0,0.0,-1.1321,-1.147,0.0,0.0,0.0,0.0,0.0,0.0,0.0,0.0,0.0,0.0,0.0,0.0,-1.2153,-1.1978,-1.3657,-1.3846,-1.2504,-1.2379,-1.24,-1.2501,-1.2352,-1.1789,-1.0751,0.0,0.0,0.0,0.0,0.0,0.0,0.0,0.0,0.0,0.0,0.0,0.0,0.0,0.0,0.0,0.0,0.0,0.0,0.0,0.0,0.0,0.0,0.0,0.0,0.0,-0.978,0.0,0.0,0.0,0.0,0.0,0.0,0.0,0.0,0.0,0.0,-0.9144,-1.0025,-1.0575,-1.1375,-1.1959,-1.2108,-1.2176,-1.2149,0.0,0.0,0.0,0.0,0.0,0.0,0.0,0.0,0.0,0.0,0.0,0.0,0.0,-1.0005,-0.9958,-0.8526,-0.8221,-0.816,-0.8065,0.0,0.0,0.0,0.0,0.0,0.0,0.0,0.0,0.0,0.0,0.0,0.0,0.0,0.0,-1.0732,-1.0631,-1.057,-0.9878,0.0,0.0,0.0,0.0,0.0,0.0,0.0,-1.2176,-1.2501,-1.2556,-1.2691,-1.2501,-1.202,-1.1714,-1.0989,0.0,0.0,0.0,0.0,0.0,0.0,0.0,0.0,-1.2744,-1.3319,-1.4082,-1.4237,-1.3568,-1.2881,-1.2549,-1.2644,-1.2508,-1.206,-1.1294,-1.0867,-1.0426,0.0,0.0,0.0,0.0,0.0,0.0,0.0,0.0,0.0,0.0,0.0,0.0,0.0,0.0,0.0,0.0,0.0,0.0,0.0,0.0,0.0,0.0,0.0,-0.9798,0.0,0.0,0.0,0.0,0.0,0.0,0.0,0.0,0.0,-0.9137,-1.0229,-1.1185,-1.1592,-1.223,-1.2664,-1.2664,0.0,0.0,0.0,0.0,0.0,0.0,0.0,-1.1165,-1.1314,-1.0982,-1.0649,-1.0534,-1.1097,-1.1457,-1.1029,0.0,0.0,-1.0025,-0.9673,-0.9579,-0.9579,-0.9754,-0.9829,-0.9788,-1.0059,-1.0297,0.0,0.0,0.0,0.0,-1.0422,0.0,0.0,0.0,-1.0819,-1.0731,0.0,-1.0504,0.0,0.0,0.0,0.0,-1.0995,-1.2176,0.0,0.0,-1.3804,-1.4136,-1.4224,-1.3817,-1.3627,-1.3614,-1.3302,-1.2793,-1.204,-1.0643,-0.9591,0.0,0.0,0.0,0.0,0.0,-1.3046,-1.444,-1.3529,-1.38,-1.5319,-1.3491,-1.2501,-1.2515,-1.24,-1.2318,-1.2257,-1.147,-1.0927,-1.086,-0.9429,0.0,0.0,0.0,0.0,0.0,0.0,0.0,0.0,0.0,0.0,0.0,0.0,0.0,0.0,0.0,0.0,0.0,0.0,0.0,0.0,-0.9556,0.0,0.0,0.0,0.0,0.0,0.0,0.0,0.0,0.0,-1.1111,-1.0432,-1.1124,-1.1979,-1.28,0.0,0.0,0.0,0.0,-1.2325,-1.2325,-1.1952,-1.164,-1.1497,-1.1925,-1.2237,-1.2203,0.0,0.0,-1.1606,-1.2169,-1.2431,-1.1816,-1.2386,-1.2698,-1.1816,-1.1287,-1.0954,-1.0941,-1.0914,-1.0853,-1.0927,-1.1335,-1.166,-1.2149,0.0,0.0,0.0,0.0,-1.1803,-1.2223,-1.2922,-1.2603,-1.2386,-1.2244,-1.2094,0.0,0.0,0.0,0.0,0.0,0.0,-1.3234,-1.3566,-1.3804,-1.3987,-1.4136,-1.4007,-1.3885,-1.3777,-1.3688,-1.3485,-1.3166,-1.2637,-1.1321,-0.93,0.0,0.0,0.0,0.0,-1.5905,-1.6126,-1.6601,-1.6433,-1.5463,-1.3568,-1.2556,-1.2664,-1.2834,-1.2773,-1.2454,-1.2298,-1.187,-1.1131,-1.0453,0.0,0.0,0.0,0.0,0.0,0.0,0.0,0.0,0.0,0.0,0.0,0.0,0.0,0.0,0.0,0.0,0.0,0.0,0.0,-0.9329,-1.0272,-1.0392,0.0,0.0,0.0,0.0,0.0,0.0,0.0,0.0,0.0,-1.1721,-1.2305,-1.2664,0.0,0.0,-1.3085,-1.2556,-1.2732,-1.2888,-1.2865,-1.2745,0.0,-1.2671,-1.2535,-1.2576,-1.2956,-1.3125,-1.3119,-1.2868,-1.3037,-1.3139,-1.2908,-1.3098,-1.318,-1.2949,-1.2617,-1.2386,-1.2379,-1.2345,-1.2332,-1.2386,-1.2501,-1.2576,-1.3559,-1.2862,-1.2474,-1.2501,-1.2847,-1.2834,-1.3247,-1.3919,-1.3709,-1.36,-1.3566,-1.3349,-1.2976,-1.2494,-1.2467,0.0,0.0,0.0,-1.3871,-1.4163,-1.4251,-1.434,-1.4421,-1.4367,-1.4258,-1.4109,-1.4109,-1.3973,-1.3715,-1.3566,-1.2494,-1.0602,0.0,-1.1139,-1.1701,-1.476,-1.6785,-1.7676,-1.8356,-1.8209,-1.6989,-1.415,-1.2732,-1.282,-1.2996,-1.2963,-1.2698,-1.2712,-1.2433,-1.1809,-1.1274,-1.0744,0.0,0.0,0.0,0.0,0.0,0.0,0.0,0.0,0.0,0.0,0.0,-0.7827,-0.7532,0.0,0.0,0.0,-1.0346,-1.0449,-1.0021,-1.084,0.0,0.0,0.0,0.0,0.0,0.0,0.0,-1.1497,-1.2162,-1.2637,-1.2881,-1.3214,-1.3261,-1.2793,-1.3119,-1.3214,-1.2712,0.0,-1.3214,-1.3145,-1.3166,-1.3261,-1.3261,-1.3085,-1.3078,-1.3431,-1.3437,-1.3403,-1.3397,-1.3397,-1.3397,-1.3397,-1.3397,-1.3397,-1.3397,-1.3254,-1.3139,-1.3132,-1.3085,-1.3044,-1.3044,-1.3003,-1.2949,-1.4746,-1.4665,-1.358,-1.3281,-1.3532,-1.3688,-1.3905,-1.417,-1.4312,-1.4441,-1.4543,-1.4265,-1.4061,-1.3892,-1.3641,0.0,-1.3933,-1.4367,-1.4699,-1.495,-1.4964,-1.4964,-1.4943,-1.4801,-1.4665,-1.4529,-1.4529,-1.4306,-1.3885,-1.3736,-1.3241,-1.2427,-1.225,-1.206,-1.193,-1.414,-1.648,-1.8983,-1.9234,-1.9192,-1.8946,-1.5273,-1.3238,-1.3077,-1.301,-1.3003,-1.3056,-1.284,-1.2752,-1.2705,-1.1932,-1.1294,-1.0873,0.0,0.0,0.0,0.0,0.0,0.0,0.0,0.0,0.0,0.0,0.0,0.0,0.0,0.0,-1.1046,-1.1285,0.0,-1.1335,-1.126,0.0,0.0,0.0,-1.0489,-1.0818,-1.1762,-1.2547,-1.2901,0.0,0.0,-1.4074,-1.4094,-1.3906,-1.3471,-1.3437,-1.3363,-1.3166,-1.3275,-1.3342,-1.3166,-1.3281,-1.3376,-1.3356,-1.3458,-1.3546,-1.36,-1.3498,-1.3403,-1.3397,-1.3376,-1.3383,-1.3349,-1.337,-1.3376,-1.3383,-1.337,-1.3397,-1.3363,-1.3261,-1.3166,-1.3159,-1.3057,-1.2929,-1.4808,-1.4889,-1.4611,-1.4529,-1.4611,-1.4753,-1.4855,-1.4923,-1.4957,-1.4991,-1.5011,-1.4835,-1.4672,-1.4529,-1.4577,-1.457,-1.4543,-1.4875,-1.4936,-1.4808,-1.4916,-1.4909,-1.4794,-1.4753,-1.4719,-1.4685,-1.4685,-1.4516,-1.419,-1.4041,-1.3804,-1.3478,-1.3207,-1.2725,-1.2196,-1.6089,-1.8473,-1.9149,-2.0791,-2.021,-1.7182,-1.621,-1.4988,-1.3377,-1.341,-1.3363,-1.3132,-1.3085,-1.2963,-1.2739,-1.2413,-1.2189,-1.2067,-1.0541,0.0,0.0,0.0,0.0,0.0,0.0,0.0,0.0,0.0,-0.9236,-0.8584,0.0,-0.9992,0.0,-1.2065,-1.2081,-1.0989,-1.1355,0.0,0.0,-1.2773,-1.3989,-1.519,-1.6766,-1.8106,-1.8698,-1.8976,-1.8418,-1.6697,-1.6451,-1.5755,-1.3998,-1.3736,-1.3519,-1.2956,-1.3166,-1.3308,-1.3091,-1.3146,-1.3227,-1.3247,-1.3356,-1.3498,-1.3614,-1.3505,-1.3403,-1.3397,-1.3302,-1.3193,-1.3098,-1.3159,-1.322,-1.3234,-1.3322,-1.3349,-1.3254,-1.3193,-1.3173,-1.3173,-1.3057,-1.3029,-1.4991,-1.5072,-1.5133,-1.5126,-1.5065,-1.5086,-1.5126,-1.5181,-1.512,-1.516,-1.5282,-1.5201,-1.5045,-1.4862,-1.4997,-1.5018,-1.495,-1.5106,-1.5092,-1.4943,-1.5025,-1.5018,-1.4936,-1.4936,-1.4936,-1.4936,-1.4936,-1.4746,-1.4407,-1.4312,-1.4122,-1.3844,-1.4674,-1.4893,-1.4607,-1.7715,-1.9331,-1.9308,-2.157,-2.1239,-1.8154,-1.7217,-1.5644,-1.3398,-1.3573,-1.3553,-1.3186,-1.4208,-1.4026,-1.2729,-1.3326,-1.3288,-1.2176,-1.1151,-1.0704,0.0,0.0,0.0,0.0,0.0,0.0,0.0,0.0,0.0,0.0,0.0,-1.0487,-1.105,-1.2406,-1.3167,-1.3039,-1.3672,-1.4501,-1.5655,-1.6603,-1.752,-1.8512,-1.9543,-2.0403,-2.0876,-2.0874,-2.0408,-1.9221,-1.9069,-1.8565,-1.7279,-1.6955,-1.5976,-1.3594,-1.3308,-1.3397,-1.3112,-1.318,-1.3302,-1.3363,-1.339,-1.3451,-1.358,-1.3498,-1.3397,-1.3397,-1.3329,-1.3247,-1.318,-1.322,-1.3275,-1.3275,-1.3275,-1.3268,-1.3186,-1.3064,-1.301,-1.3064,-1.3097,-1.2949,-1.5255,-1.5282,-1.5411,-1.5398,-1.5289,-1.5514,-1.5494,-1.5174,-1.5052,-1.514,-1.5377,-1.5384,-1.5423,-1.5468,-1.5313,-1.5368,-1.5643,-1.5643,-1.5455,-1.5275,-1.5556,-1.5556,-1.5181,-1.5181,-1.5194,-1.5208,-1.5174,-1.4957,-1.4577,-1.4516,-1.4374,-1.4421,-1.6305,-1.7459,-1.7771,-1.9326,-2.0151,-2.0426,-2.2225,-2.2128,-2.0138,-1.8007,-1.5723,-1.3453,-1.3654,-1.3688,-1.3398,-1.5185,-1.5132,-1.2828,-1.4182,-1.4085,-1.191,-1.183,-1.1531,0.0,-1.0873,0.0,0.0,0.0,0.0,0.0,0.0,0.0,0.0,-1.1748,-1.1856,-1.1833,-1.3205,-1.4751,-1.645,-1.7036,-1.8246,-2.041,-2.0817,-2.0973,-2.1254,-2.1578,-2.1874,-2.2012,-2.2044,-2.2033,-2.1801,-2.1735,-2.1735,-2.0982,-2.024,-1.8475,-1.4998,-1.4139,-1.4006,-1.3404,-1.3336,-1.3478,-1.3593,-1.3526,-1.3492,-1.3607,-1.3512,-1.3403,-1.3397,-1.3376,-1.3356,-1.3336,-1.3329,-1.3356,-1.337,-1.3275,-1.3207,-1.3173,-1.2969,-1.2834,-1.2901,-1.2895,-1.2861,-1.5622,-1.573,-1.5757,-1.5825,-1.6096,-1.8052,-1.7478,-1.5181,-1.5153,-1.5174,-1.5221,-1.5228,-1.6306,-1.7901,-1.609,-1.6284,-1.8127,-1.8228,-1.7118,-1.5275,-1.7305,-1.7118,-1.5275,-1.5181,-1.5248,-1.535,-1.512,-1.4964,-1.4875,-1.4516,-1.5249,-1.7045,-1.7187,-1.8211,-2.0145,0.0,0.0,0.0,-2.4202,-2.2371,-2.0302,-1.809,-1.5897,-1.38,-1.3919,0.0,-1.3991,-1.423,-1.407,-1.3424,-1.3643,0.0,-1.2961,0.0,0.0,0.0,0.0,0.0,0.0,0.0,0.0,0.0,-1.2155,-1.2094,-1.2142,-1.2915,-1.4635,-1.7652,-1.695,-1.7259,-1.9624,-1.9716,-1.9838,-2.0384,-2.2422,-2.3755,-2.3897,-2.5713,-2.7234,-2.7416,-2.7442,-2.6748,-2.4992,-2.4776,-2.3973,-2.2106,-1.9965,-1.8287,-1.704,-1.6438,-1.5461,-1.3811,-1.3492,-1.3634,-1.3777,-1.3675,-1.3634,-1.3729,-1.3573,-1.3424,-1.3403,-1.3308,-1.318,-1.3098,-1.3139,-1.3227,-1.3227,-1.3288,-1.3302,-1.32,-1.303,-1.2888,-1.2793,-1.2678,-1.2576,-1.5683,-1.575,-1.575,-1.5791,0.0,-1.856,-1.8751,-1.7466,-1.8678,-1.9244,-1.9244,-1.9244,-1.9988,-2.1011,-1.98,-1.9894,-2.1105,-2.1105,-1.98,-1.7458,-1.9988,-1.9056,-1.5404,-1.6634,-1.6546,-1.5398,-1.5181,-1.5682,-1.6689,-1.6537,-1.7599,-1.9962,-2.0888,-2.1998,-2.3115,-2.4028,-2.5477,-2.7268,-2.4812,-2.265,-2.0554,-1.8394,-1.6081,-1.3834,-1.4095,0.0,0.0,0.0,0.0,0.0,0.0,0.0,0.0,-1.2379,-1.2121,-1.234,-1.2934,-1.2924,-1.2072,-1.2963,-1.3504,-1.3186,-1.4355,-1.4919,-1.4434,-1.591,-1.7636,-1.9551,-1.911,-1.9683,-2.2056,-2.2316,-2.2788,-2.408,-2.532,-2.6125,-2.6457,-2.7487,-2.8497,-2.8764,-2.8831,-2.8286,-2.722,-2.7046,-2.6574,-2.5086,-2.3795,-2.2268,-2.0843,-1.7758,-1.4968,-1.3816,-1.3675,-1.3756,-1.3732,-1.379,-1.3749,-1.3797,-1.3715,-1.36,-1.3526,-1.3451,-1.3349,-1.322,-1.3241,-1.3281,-1.3281,-1.3295,-1.3261,-1.318,-1.3057,-1.2949,-1.2847,-1.2664,-1.2501,-1.5716,-1.5716,-1.5716,-1.5716,-1.5911,-1.8953,-2.076,-2.1706,-2.2874,0.0,0.0,-2.3412,-2.3695,-2.3978,-2.3591,-2.3685,-2.4073,-2.4062,-2.2645,-2.0375,-2.2835,-2.1327,-1.6483,-1.8295,-1.8136,-1.6099,-1.5894,-1.7026,-1.9192,-1.9223,-2.0449,-2.27,-2.4649,-2.5818,-2.6158,-2.5517,-2.575,-2.6682,-2.4069,-2.2081,-2.0752,-1.8614,-1.6685,-1.4927,-1.4965,-1.4847,-1.4359,-1.5986,-1.5861,-1.3748,-1.4995,-1.4927,-1.313,-1.3098,-1.3347,-1.3798,-1.5827,-1.6237,-1.4592,-1.617,-1.655,-1.5026,-1.7365,-1.8488,-1.7539,-1.9071,-2.0467,-2.1285,-2.1346,-2.2226,-2.4543,-2.4783,-2.566,-2.7861,-2.7896,-2.7883,-2.811,-2.8288,-2.8377,-2.8617,-2.8711,-2.8684,-2.8625,-2.8625,-2.8564,-2.8185,-2.7142,-2.6452,-2.376,-1.865,-1.498,-1.4736,-1.43,-1.3892,-1.3919,-1.3899,-1.3885,-1.3892,-1.3858,-1.3797,-1.3702,-1.3583,-1.3607,-1.3458,-1.3444,-1.3431,-1.3397,-1.3308,-1.3214,-1.3214,-1.3098,-1.3077,-1.3056,-1.2779,-1.2596,-1.6015,-1.6022,-1.6022,-1.6022,-1.6411,-2.1262,-2.5816,-2.9557,-2.5283,-2.3412,-2.3412,-2.3412,-2.4544,-2.6432,-2.4345,-2.4544,-2.6526,-2.6619,-2.5202,-2.3024,-2.539,-2.3874,-1.9134,-1.9234,-1.914,-1.8781,-1.833,-1.9437,-2.1722,-2.176,-2.2799,-2.4925,-2.5454,-2.6621,-2.8234,-2.6409,-2.5342,-2.5333,-2.0677,-1.9072,-2.0698,-1.8536,-1.818,-1.9632,-1.8182,-1.7326,-1.7227,-1.5652,-1.4611,-1.4177,-1.4354,-1.4242,-1.3964,-1.5539,-1.6643,-1.6801,-1.8885,-2.0046,-1.9878,-2.018,-2.0219,-2.0109,-2.2075,-2.2501,-2.0772,-2.0868,-2.2662,-2.6419,-2.4891,-2.4759,-2.7181,-2.7302,-2.7223,-2.7706,-2.7963,-2.8181,-2.8234,-2.8377,-2.8631,-2.8911,-2.8978,-2.8978,-2.8978,-2.8978,-2.8871,-2.8347,-2.7234,-2.4793,-2.2568,-1.8974,-1.7084,-1.6738,-1.532,-1.427,-1.4419,-1.4116,-1.4048,-1.4041,-1.3939,-1.3865,-1.3738,-1.3817,-1.3763,-1.362,-1.36,-1.3553,-1.3451,-1.339,-1.3376,-1.337,-1.3254,-1.3166,-1.3146,-1.3003,-1.2847,-1.6083,-1.6083,-1.6083,-1.6963,-1.8616,-2.3783,-2.8164,-3.1352,-2.9066,-2.789,-2.7902,-2.789,-2.8564,-2.9438,-2.8375,-2.8469,-2.9627,-2.9627,-2.8101,-2.58,-2.8314,-2.6685,-2.1897,-2.2819,-2.2675,-2.1226,-2.0862,-2.1997,-2.4274,-2.4349,-2.5507,-2.7788,-2.7966,-2.8434,-2.8934,-2.5577,-2.4285,-2.5191,-2.0279,-1.8727,-2.0928,-1.8813,-1.8727,-2.0928,-2.0115,-1.9084,-1.7851,-1.6816,-1.5735,-1.4503,-1.4278,-1.419,-1.4278,-1.6183,-1.7298,-1.7459,-2.0564,-2.2038,-2.0958,-2.0986,-2.1023,-2.1135,-2.3217,-2.4125,-2.3201,-2.3986,-2.544,-2.742,-2.6646,-2.6556,-2.7812,-2.7923,-2.7936,-2.7936,-2.8154,-2.8221,-2.8261,-2.8417,-2.8724,-2.8991,-2.9179,-2.9272,-2.9272,-2.9285,-2.9165,-2.8811,-2.7766,-2.6636,-2.5461,-2.3336,-2.1211,-1.9645,-1.7636,-1.6379,-1.6107,-1.503,-1.4373,-1.4197,-1.4136,-1.4061,-1.3994,-1.3966,-1.3899,-1.3777,-1.3743,-1.3722,-1.3641,-1.3641,-1.3614,-1.3526,-1.3478,-1.3403,-1.3315,-1.318,-1.3003,-1.6083,-1.6083,-1.6083,-1.7642,-2.0461,-2.5529,-2.8943,-3.0782,-3.1299,-3.161,-3.1664,-3.1677,-3.1677,-3.1677,-3.1677,-3.1677,-3.1677,-3.1677,-3.0437,-2.8576,-3.0492,-2.8777,-2.4471,-2.6094,-2.5772,-2.3799,-2.3394,-2.458,-2.6785,-2.7057,-2.7985,-2.9734,-2.9913,-2.9525,-2.8678,-2.4474,-2.3173,-2.4474,-2.0374,-1.9487,-2.1992,-2.005,-2.0138,-2.2707,-2.2595,-2.1194,-1.8866,-1.8291,-1.6934,-1.4689,-1.4407,-1.4333,-1.4469,-1.6725,-1.8175,-1.86,-2.2386,-2.4282,-2.2748,-2.2703,-2.2825,-2.301,-2.4597,-2.5652,-2.5787,-2.6903,-2.7602,-2.7522,-2.7679,-2.7839,-2.7976,-2.819,-2.835,-2.835,-2.8337,-2.8377,-2.8377,-2.8564,-2.8778,-2.9032,-2.9245,-2.9379,-2.9379,-2.9392,-2.9272,-2.9072,-2.8958,-2.8958,-2.877,-2.7334,-2.5354,-2.325,-2.0676,-1.8602,-1.8058,-1.6591,-1.518,-1.4626,-1.4346,-1.4272,-1.417,-1.4122,-1.4061,-1.3939,-1.3892,-1.3865,-1.3851,-1.3745,-1.3783,-1.3695,-1.3661,-1.362,-1.3478,-1.3336,-1.3132,-1.6083,-1.6083,-1.6175,-1.7642,-2.0657,-2.5722,-2.8068,-2.8619,-3.0333,-3.1423,-3.1664,-3.1677,-3.1664,-3.1677,-3.1664,-3.1664,-3.1664,-3.1664,-3.1301,-3.0767,-3.1062,-2.9555,-2.6678,-2.6758,-2.6548,-2.611,-2.5982,-2.7057,-2.9272,-2.9451,-2.9644,-2.9913,-2.9913,-2.8796,-2.6556,-2.3898,-2.2597,-2.2553,-1.9916,-2.0701,-2.478,-2.2835,-2.3721,-2.8156,-2.6297,-2.4074,-2.162,-1.9437,-1.715,-1.4792,-1.4502,-1.4434,-1.4755,-1.8427,-2.0816,-2.0988,-2.5204,-2.7825,-2.7846,-2.8134,-2.8004,-2.8243,-2.8217,-2.8478,-2.8478,-2.8711,-2.8617,-2.8243,-2.835,-2.8497,-2.8537,-2.8764,-2.8898,-2.8871,-2.8898,-2.8951,-2.8925,-2.8978,-2.9018,-2.8945,-2.9138,-2.8998,-2.9179,-2.9192,-2.9138,-2.9152,-2.9152,-2.9152,-2.9051,-2.8776,-2.84,-2.7384,-2.4669,-2.1185,-1.9303,-1.8262,-1.7103,-1.5227,-1.4496,-1.4599,-1.4592,-1.4448,-1.4231,-1.4089,-1.4048,-1.4007,-1.3919,-1.3759,-1.3858,-1.3838,-1.381,-1.377,-1.3634,-1.3485,-1.3281,-1.6963,-1.8426,-1.8418,-2.0862,-2.4851,-2.8548,-3.0102,-3.0198,-3.1057,-3.1557,-3.1664,-3.1677,-3.157,-3.141,-3.141,-3.141,-3.141,-3.141,-3.1249,-3.1009,-3.1142,-3.0306,-2.8818,-2.8843,-2.878,-2.8511,-2.8397,-2.8899,-2.9734,-2.9913,-2.9913,-2.9913,-2.9913,-2.9362,-2.8256,-2.5957,-2.4707,-2.4517,-2.215,-2.2556,-2.5351,-2.4719,-2.5642,-2.8496,-2.8047,-2.6521,-2.4119,-2.1799,-1.9348,-1.6963,-1.5445,-1.5243,-1.6689,-1.986,-2.2231,-2.3818,-2.6809,-2.8724,-2.8858,-2.8978,-2.8958,-2.8958,-2.8958,-2.8958,-2.8958,-2.8958,-2.8911,-2.8751,-2.8791,-2.8871,-2.8871,-2.8978,-2.8958,-2.8958,-2.8958,-2.8958,-2.8958,-2.9205,-2.9299,-2.9312,-2.9446,-2.9553,-2.9553,-2.9553,-2.9566,-2.9566,-2.9553,-2.9526,-2.9539,-2.9553,-2.9566,-2.9287,-2.7724,-2.576,-2.3041,-2.0012,-1.8899,-1.8408,-1.6423,-1.4861,-1.6224,-1.5127,-1.4373,-1.4319,-1.4373,-1.4352,-1.4143,-1.4102,-1.4095,-1.4021,-1.3878,-1.3732,-1.3678,-1.3641,-1.3485,-1.8714,-2.0951,-2.1832,-2.388,-2.6999,-3.0306,-3.1284,-3.0782,-3.1286,-3.1557,-3.1557,-3.1637,-3.1503,-3.1263,-3.1303,-3.1303,-3.1223,-3.1223,-3.1022,-3.0728,-3.0902,-3.0595,-2.9993,-3.0127,-3.0127,-2.9967,-2.9917,-3.0034,-3.0034,-3.0034,-2.9993,-2.9927,-2.9913,-2.9554,-2.8719,-2.6411,-2.5218,-2.4945,-2.2739,-2.3014,-2.5627,-2.5955,-2.6842,-2.9009,-2.9285,-2.8191,-2.5855,-2.4051,-2.1591,-1.8578,-1.6689,-1.6219,-1.7336,-2.02,-2.3321,-2.627,-2.8124,-2.9165,-2.9165,-2.9232,-2.9285,-2.9285,-2.9285,-2.9285,-2.9285,-2.9272,-2.9285,-2.9285,-2.9272,-2.9272,-2.9165,-2.9232,-2.9272,-2.9272,-2.9285,-2.9285,-2.9299,-2.9486,-2.9606,-2.9619,-2.9753,-2.9913,-2.9913,-2.9887,-2.9873,-2.9873,-2.9887,-2.9913,-2.9913,-2.9887,-2.9887,-2.9913,-2.981,-2.8642,-2.6104,-2.3368,-2.1701,-2.0814,-1.8931,-1.7887,-1.8937,-1.7388,-1.5824,-1.6544,-1.5734,-1.4815,-1.4326,-1.4258,-1.436,-1.415,-1.4021,-1.3919,-1.3905,-1.3783,-1.3709,-2.1343,-2.3977,-2.6409,-2.6216,-2.456,-2.9612,-3.0306,-2.8644,-3.0346,-3.1263,-3.1316,-3.1583,-3.1517,-3.1263,-3.1503,-3.149,-3.1249,-3.1183,-3.0902,-3.0434,-3.0421,-3.0247,-2.9927,-2.994,-2.994,-2.998,-3.0221,-3.0341,-3.0341,-3.0341,-3.0194,-2.994,-2.994,-2.8732,-2.6797,-2.4511,-2.2841,-2.277,-2.0732,-2.136,-2.54,-2.6013,-2.7165,-2.9283,-2.986,-2.8732,-2.6533,-2.6092,-2.379,-1.8866,-1.8492,-1.7429,-1.5756,-1.95,-2.4064,-2.8199,-2.9224,-2.9459,-2.9499,-2.9686,-2.9833,-2.9847,-2.9806,-2.9847,-2.9793,-2.9793,-2.9793,-2.9847,-2.9793,-2.9713,-2.9526,-2.9646,-2.9793,-2.9806,-2.9833,-2.9833,-2.9847,-2.9806,-2.9887,-2.9873,-2.9887,-2.9913,-2.9913,-2.9913,-2.9913,-2.9913,-2.9913,-2.9913,-2.9913,-2.9913,-2.9913,-2.9913,-2.9734,-2.9066,-2.6828,-2.5071,-2.4179,-2.355,-2.2643,-2.159,-2.173,-2.1363,-1.9948,-1.8779,-1.8145,-1.6952,-1.5094,-1.4387,-1.4469,-1.44,-1.415,-1.4075,-1.4061,-1.3933,-1.3851,-2.3977,-2.6602,-2.923,-2.9721,-2.9122,-3.0985,-3.1175,-3.0401,-3.1376,-3.157,-3.1383,-3.1931,-3.1957,-3.1517,-3.1623,-3.1503,-3.1209,-3.0849,-3.0555,-3.0368,-3.0368,-3.0207,-2.9953,-3.01,-3.0207,-3.0247,-3.0501,-3.0635,-3.0635,-3.0635,-3.0488,-3.0247,-3.0207,-2.9728,-2.8612,-2.6385,-2.4432,-2.2861,-2.183,-2.1494,-2.1748,-2.3014,-2.5036,-2.7431,-2.9092,-2.9541,-2.8629,-2.7057,-2.5264,-2.3528,-2.0511,-1.9113,-1.9961,-2.2858,-2.6037,-2.906,-2.97,-2.9753,-2.9766,-2.9847,-2.9913,-2.9913,-2.9913,-2.9913,-2.9913,-2.9913,-2.9913,-2.9913,-2.9913,-2.9847,-2.982,-2.986,-2.9913,-2.9913,-2.9913,-2.9913,-2.9913,-2.9913,-2.9913,-2.9913,-2.9913,-2.9913,-2.9953,-2.9913,-2.9913,-2.9913,-2.9913,-2.994,-2.9927,-2.9913,-2.9953,-2.9927,-2.9913,-2.9644,-2.8899,-2.7045,-2.5911,-2.5955,-2.5422,-2.4215,-2.3849,-2.3015,-2.1671,-2.1048,-2.0442,-1.9812,-1.8225,-1.6944,-1.6585,-1.5066,-1.4819,-1.4717,-1.4217,-1.4249,-1.4094,-2.7468,-2.923,-3.0985,-3.1677,-3.1677,-3.1677,-3.173,-3.1824,-3.2011,-3.1877,-3.1704,-3.2345,-3.2358,-3.1877,-3.181,-3.1583,-3.1183,-3.0635,-3.0314,-3.0221,-3.0221,-3.0154,-3.0114,-3.0261,-3.0408,-3.0528,-3.0795,-3.0929,-3.0929,-3.0929,-3.0782,-3.0515,-3.0501,-3.0501,-3.0031,-2.7197,-2.4577,-2.3074,-2.133,-1.9765,-1.9227,-2.0501,-2.2494,-2.5034,-2.7468,-2.9182,-2.9824,-2.8256,-2.6966,-2.5855,-2.3014,-2.1994,-2.3656,-2.5309,-2.7328,-2.9541,-2.9913,-2.9913,-2.9913,-2.9913,-2.9913,-2.9913,-2.9913,-2.9913,-2.9913,-2.9913,-2.9913,-2.9927,-3.002,-3.006,-3.0087,-3.014,-3.0127,-2.9967,-2.9913,-2.9913,-2.9927,-3.0007,-3.0114,-3.0207,-3.0234,-3.0221,-3.0194,-3.0207,-3.0221,-3.0194,-3.0194,-3.0207,-3.0194,-3.0194,-3.0194,-3.0194,-3.0234,-3.0194,-2.9779,-2.864,-2.7867,-2.7895,-2.7743,-2.6641,-2.5826,-2.4924,-2.4039,-2.3367,-2.281,-2.2333,-2.1444,-2.0055,-1.8436,-1.6673,-1.6099,-1.6068,-1.5454,-1.465,-1.4587,-3.1569,-3.1474,-3.1677,-3.1677,-3.1677,-3.1704,-3.1837,-3.1984,-3.2104,-3.2051,-3.1917,-3.2652,-3.2585,-3.2144,-3.1998,-3.1757,-3.1196,-3.0595,-3.0181,-2.9967,-2.9953,-3.01,-3.0405,-3.0381,-3.0581,-3.0849,-3.1102,-3.1223,-3.1223,-3.1223,-3.1076,-3.0849,-3.0795,-3.0795,-3.0795,-2.614,-2.3392,-2.2322,-1.8724,-1.7009,-1.8893,-1.8997,-2.0295,-2.2932,-2.5112,-2.739,-2.9761,-2.9747,-2.8616,-2.6695,-2.6048,-2.6048,-2.5855,-2.6139,-2.7328,-2.9451,-2.9913,-2.9913,-2.9913,-2.9913,-2.9913,-2.9927,-2.9927,-2.9953,-2.9927,-2.9967,-2.9993,-3.0007,-3.0207,-3.0368,-3.0394,-3.0568,-3.0515,-3.006,-3.002,-3.002,-3.0034,-3.0194,-3.0461,-3.0662,-3.0702,-3.0768,-3.0768,-3.0688,-3.0662,-3.0662,-3.0675,-3.0675,-3.0648,-3.0648,-3.0728,-3.0728,-3.0635,-3.0515,-3.0434,-3.0341,-3.0077,-2.984,-2.9478,-2.8848,-2.8514,-2.7785,-2.6921,-2.6174,-2.5583,-2.5004,-2.3129,-2.1895,-2.1309,-1.9956,-1.8997,-1.7902,-1.7534,-1.6912,-1.5403,-3.1677,-3.1677,-3.1677,-3.1677,-3.1704,-3.1877,-3.181,-3.1597,-3.2118,-3.1957,-3.153,-3.2452,-3.2545,-3.1944,-3.1797,-3.1597,-3.1169,-3.0434,-3.0007,-2.994,-2.9927,-3.0087,-3.0368,-3.0568,-3.0915,-3.133,-3.1476,-3.153,-3.1517,-3.153,-3.1383,-3.1142,-3.1089,-3.1089,-3.0809,-2.6106,-2.3435,-2.2948,-1.8415,-1.6181,-1.6691,-1.6678,-1.8724,-2.2611,-2.378,-2.6029,-2.9949,-3.0034,-2.9554,-2.8719,-2.7148,-2.6229,-2.6229,-2.6229,-2.7328,-2.9541,-2.9913,-2.9913,-2.9913,-2.9927,-2.994,-2.9953,-3.01,-3.01,-3.0007,-3.0287,-3.0394,-3.0287,-3.0488,-3.0662,-3.0675,-3.0728,-3.0715,-3.0541,-3.0515,-3.0488,-3.0501,-3.0595,-3.0688,-3.0768,-3.0795,-3.0795,-3.0795,-3.0808,-3.0849,-3.0835,-3.0835,-3.0835,-3.0822,-3.0862,-3.0795,-3.0795,-3.0782,-3.0822,-3.0715,-3.0621,-3.0501,-3.0261,-3.01,-2.9953,-2.9887,-2.9744,-2.9036,-2.8613,-2.8002,-2.7021,-2.512,-2.415,-2.3743,-2.2603,-2.1223,-2.0549,-2.0228,-1.9033,-1.7408,-3.1677,-3.1677,-3.1677,-3.1677,-3.1704,-3.1971,-3.1837,-3.1543,-3.2211,-3.2064,-3.1637,-3.2358,-3.2452,-3.1931,-3.1824,-3.1597,-3.1196,-3.0621,-3.0341,-3.0234,-3.0114,-3.0301,-3.0675,-3.0982,-3.1276,-3.1597,-3.1677,-3.1677,-3.1677,-3.1664,-3.157,-3.1423,-3.1396,-3.1396,-3.1006,-2.7331,-2.4726,-2.3369,-1.9547,-1.6803,-1.6175,-1.6645,-1.8608,-2.1696,-2.3726,-2.6165,-2.9009,-2.9677,-3.0034,-2.9657,-2.8346,-2.7612,-2.7612,-2.7702,-2.8256,-2.9478,-3.0007,-3.0047,-2.9953,-3.014,-3.0181,-3.0154,-3.0261,-3.0341,-3.0287,-3.0568,-3.0541,-3.0568,-3.0782,-3.0955,-3.0969,-3.1076,-3.1062,-3.0955,-3.0835,-3.0849,-3.0915,-3.0955,-3.1022,-3.1102,-3.1142,-3.1116,-3.1116,-3.1116,-3.1116,-3.1116,-3.1116,-3.1116,-3.1116,-3.1142,-3.1102,-3.1102,-3.1183,-3.1142,-3.0996,-3.0902,-3.0822,-3.0568,-3.0301,-3.01,-2.994,-2.99,-2.9525,-2.9383,-2.9007,-2.8686,-2.712,-2.7058,-2.6631,-2.5102,-2.3666,-2.3237,-2.2701,-2.0969,-1.9411,-3.1677,-3.1677,-3.1677,-3.1677,-3.1704,-3.1971,-3.1877,-3.169,-3.2238,-3.2251,-3.2038,-3.2305,-3.2345,-3.2104,-3.1984,-3.1704,-3.1276,-3.1102,-3.0929,-3.0742,-3.0595,-3.0702,-3.1116,-3.1423,-3.1597,-3.1664,-3.1677,-3.1677,-3.1677,-3.1677,-3.1677,-3.1637,-3.1623,-3.1664,-3.1136,-2.9027,-2.6387,-2.4304,-2.1463,-1.8947,-1.7202,-1.8705,-2.022,-2.1063,-2.4736,-2.7262,-2.8229,-2.9598,-3.0234,-2.9967,-2.9631,-2.9568,-2.9761,-2.994,-2.9787,-3.0034,-3.0247,-3.0221,-3.0167,-3.0434,-3.0621,-3.0421,-3.0461,-3.0488,-3.0675,-3.0675,-3.0702,-3.0822,-3.1089,-3.1249,-3.1303,-3.1436,-3.1463,-3.1263,-3.0982,-3.0929,-3.1142,-3.1169,-3.1263,-3.149,-3.1623,-3.165,-3.1583,-3.1583,-3.1597,-3.1597,-3.1583,-3.1557,-3.1557,-3.1517,-3.1623,-3.1597,-3.1503,-3.1423,-3.1263,-3.1236,-3.1142,-3.0889,-3.0608,-3.0381,-3.0074,-2.998,-2.9913,-2.986,-2.9806,-2.9611,-2.9442,-2.8893,-2.8713,-2.7877,-2.6781,-2.6142,-2.4944,-2.337,-2.2024,-3.1677,-3.1677,-3.1677,-3.1677,-3.1717,-3.1971,-3.1677,-3.1183,-3.1891,-3.1851,-3.1436,-3.1904,-3.2064,-3.181,-3.1784,-3.157,-3.1276,-3.1036,-3.1022,-3.1089,-3.1049,-3.1062,-3.1263,-3.153,-3.1677,-3.1677,-3.1677,-3.1677,-3.1677,-3.1677,-3.1677,-3.1677,-3.1677,-3.1677,-3.1284,-2.9135,-2.7588,-2.6505,-2.412,-2.2547,-2.1902,-2.2217,-2.3728,-2.5709,-2.7007,-2.8518,-2.9862,-3.0452,-3.0434,-2.9967,-2.9913,-3.002,-3.0207,-3.0247,-3.0314,-3.0501,-3.0608,-3.0648,-3.0608,-3.0715,-3.0755,-3.0715,-3.0835,-3.0929,-3.0808,-3.1129,-3.1209,-3.1236,-3.137,-3.1543,-3.1557,-3.1597,-3.1597,-3.1517,-3.1049,-3.0795,-3.0942,-3.1102,-3.1263,-3.1343,-3.153,-3.1623,-3.1677,-3.1677,-3.1677,-3.1677,-3.1677,-3.1677,-3.1677,-3.1677,-3.1677,-3.1677,-3.1623,-3.161,-3.157,-3.1557,-3.145,-3.1196,-3.0969,-3.0768,-3.0408,-3.0087,-2.9993,-2.99,-2.9873,-2.9704,-2.9717,-2.9614,-2.9597,-2.9566,-2.8942,-2.7839,-2.7561,-2.6443,-2.5055,-3.1677,-3.1677,-3.1677,-3.1677,-3.1704,-3.1971,-3.1677,-3.1223,-3.173,-3.169,-3.1236,-3.1623,-3.1824,-3.1677,-3.1677,-3.1583,-3.1396,-3.1236,-3.1263,-3.1383,-3.1396,-3.141,-3.1463,-3.161,-3.1677,-3.1677,-3.1677,-3.1677,-3.1677,-3.1677,-3.1677,-3.1677,-3.1677,-3.1677,-3.1677,-3.0401,-2.8847,-2.778,-2.6216,-2.5141,-2.4074,-2.5045,-2.6119,-2.7876,-2.8739,-3.0165,-3.1049,-3.1062,-3.0702,-3.0274,-3.0221,-3.0314,-3.0354,-3.0488,-3.0621,-3.0795,-3.0902,-3.0929,-3.0862,-3.0996,-3.1089,-3.1022,-3.1156,-3.1196,-3.1183,-3.141,-3.1396,-3.145,-3.1583,-3.165,-3.1623,-3.1463,-3.1316,-3.1196,-3.0782,-3.0595,-3.0902,-3.1009,-3.1116,-3.1223,-3.137,-3.1543,-3.1637,-3.1677,-3.1677,-3.1677,-3.1677,-3.1677,-3.1677,-3.1677,-3.1677,-3.1677,-3.1677,-3.165,-3.1637,-3.1623,-3.1623,-3.141,-3.1236,-3.1049,-3.0648,-3.0234,-3.006,-2.998,-2.994,-2.9913,-2.9913,-2.9913,-2.986,-2.9753,-2.97,-2.9482,-2.8932,-2.8523,-2.7296,-3.1677,-3.1677,-3.1677,-3.165,-3.165,-3.1891,-3.161,-3.1289,-3.169,-3.165,-3.1303,-3.1517,-3.169,-3.1677,-3.1677,-3.1664,-3.165,-3.1597,-3.1623,-3.1637,-3.1637,-3.1637,-3.1623,-3.165,-3.1677,-3.1677,-3.1677,-3.1677,-3.1677,-3.1677,-3.1677,-3.1677,-3.1677,-3.1677,-3.1677,-3.1474,-3.0401,-2.8847,-2.8464,-2.7384,-2.6312,-2.7287,-2.8356,-2.8847,-3.0306,-3.107,-3.1276,-3.1249,-3.1022,-3.0488,-3.0675,-3.0648,-3.0501,-3.0728,-3.0862,-3.0955,-3.1142,-3.1169,-3.1022,-3.137,-3.153,-3.133,-3.1276,-3.137,-3.1517,-3.1476,-3.1436,-3.161,-3.1664,-3.1677,-3.161,-3.1196,-3.1036,-3.0982,-3.0474,-3.0474,-3.0929,-3.0942,-3.0862,-3.1142,-3.1196,-3.137,-3.1557,-3.1677,-3.1677,-3.1677,-3.1677,-3.1677,-3.1677,-3.1677,-3.1677,-3.1677,-3.1677,-3.1677,-3.1664,-3.1664,-3.1664,-3.1583,-3.1436,-3.1209,-3.0808,-3.0448,-3.0207,-3.0047,-2.9953,-2.9913,-2.9913,-2.9913,-2.9913,-2.99,-2.982,-2.9847,-2.977,-2.9406,-2.8525,-3.1677,-3.1677,-3.1677,-3.153,-3.1356,-3.137,-3.1102,-3.0675,-3.1196,-3.1276,-3.1089,-3.145,-3.1664,-3.1677,-3.1677,-3.1677,-3.1677,-3.1677,-3.1677,-3.1677,-3.1677,-3.1677,-3.1677,-3.1677,-3.1677,-3.1677,-3.1677,-3.1677,-3.1677,-3.1677,-3.1677,-3.1677,-3.1677,-3.1677,-3.1677,-3.1664,-3.1569,-3.089,-3.0795,-3.0401,-2.9816,-3.0115,-3.0604,-3.07,-3.1379,-3.1555,-3.1597,-3.157,-3.1396,-3.1102,-3.0915,-3.0889,-3.0982,-3.1076,-3.1223,-3.1383,-3.149,-3.153,-3.1517,-3.157,-3.165,-3.157,-3.1543,-3.1597,-3.165,-3.161,-3.1597,-3.1677,-3.1677,-3.1677,-3.1637,-3.1343,-3.1223,-3.1196,-3.0915,-3.0715,-3.1022,-3.0782,-3.0675,-3.0875,-3.1116,-3.1343,-3.1623,-3.1664,-3.1677,-3.1677,-3.1677,-3.1677,-3.1677,-3.1677,-3.1677,-3.1677,-3.1677,-3.1677,-3.1677,-3.1677,-3.1677,-3.1677,-3.157,-3.1383,-3.0969,-3.0662,-3.0434,-3.0167,-2.9927,-2.9913,-2.994,-2.9913,-2.9913,-2.9913,-2.9913,-2.9913,-2.9887,-2.9793,-2.9753,-3.1797,-3.1677,-3.1677,-3.1583,-3.1423,-3.1289,-3.1209,-3.1169,-3.1183,-3.1303,-3.1423,-3.1637,-3.1677,-3.1677,-3.1677,-3.1677,-3.1677,-3.1677,-3.1677,-3.1677,-3.1677,-3.1677,-3.1677,-3.1677,-3.1677,-3.1677,-3.1677,-3.1677,-3.1677,-3.1677,-3.1677,-3.1677,-3.1677,-3.1677,-3.1677,-3.1677,-3.1677,-3.1582,-3.1677,-3.1677,-3.1677,-3.1677,-3.1677,-3.1677,-3.1677,-3.1677,-3.1664,-3.1664,-3.1583,-3.1436,-3.1289,-3.1183,-3.1249,-3.1356,-3.1517,-3.1623,-3.1677,-3.1677,-3.1664,-3.1677,-3.1677,-3.1677,-3.1677,-3.1677,-3.1677,-3.1677,-3.1677,-3.1677,-3.1677,-3.1664,-3.165,-3.1396,-3.1356,-3.133,-3.1076,-3.0889,-3.0942,-3.0742,-3.0675,-3.0929,-3.1156,-3.137,-3.1543,-3.161,-3.165,-3.165,-3.1677,-3.1677,-3.1677,-3.1677,-3.1677,-3.1677,-3.1677,-3.1677,-3.1677,-3.1677,-3.1677,-3.1677,-3.1637,-3.145,-3.1156,-3.0902,-3.0662,-3.0394,-3.0114,-2.9993,-2.9993,-2.9953,-2.9913,-2.9913,-2.9913,-2.9913,-2.99,-2.986,-2.9847,-3.1851,-3.1677,-3.1677,-3.165,-3.157,-3.133,-3.1396,-3.1637,-3.1423,-3.1396,-3.181,-3.1704,-3.1677,-3.1677,-3.1677,-3.1677,-3.1677,-3.1677,-3.1677,-3.1677,-3.1677,-3.1677,-3.1677,-3.1677,-3.1677,-3.1677,-3.1677,-3.1677,-3.1677,-3.1677,-3.1677,-3.1677,-3.1677,-3.1677,-3.1677,-3.1677,-3.1677,-3.1677,-3.1677,-3.1677,-3.1677,-3.1677,-3.1677,-3.1677,-3.1677,-3.1677,-3.1677,-3.1677,-3.1664,-3.1677,-3.1677,-3.1543,-3.1436,-3.1503,-3.1677,-3.1677,-3.1677,-3.1677,-3.1677,-3.1677,-3.1677,-3.1677,-3.1677,-3.1677,-3.1677,-3.1677,-3.1677,-3.1677,-3.1677,-3.1677,-3.165,-3.149,-3.1343,-3.1289,-3.1089,-3.0942,-3.0915,-3.0915,-3.1062,-3.1116,-3.1116,-3.1196,-3.141,-3.153,-3.157,-3.1623,-3.1637,-3.1677,-3.1677,-3.1677,-3.1677,-3.1677,-3.1677,-3.1677,-3.1677,-3.1677,-3.1677,-3.1677,-3.1677,-3.1543,-3.1356,-3.1249,-3.1009,-3.0608,-3.0354,-3.0221,-3.0074,-2.998,-2.9953,-2.9927,-2.9913,-2.9913,-2.9913,-2.9913,-2.9913,-3.149,-3.1677,-3.1677,-3.153,-3.1316,-3.1236,-3.1049,-3.0755,-3.1129,-3.1129,-3.1116,-3.1463,-3.1677,-3.1677,-3.1677,-3.1677,-3.1677,-3.1677,-3.1677,-3.1677,-3.1677,-3.1677,-3.1677,-3.1677,-3.1677,-3.1677,-3.1677,-3.1677,-3.1677,-3.1677,-3.1677,-3.1677,-3.1677,-3.1677,-3.1677,-3.1677,-3.1677,-3.1677,-3.1677,-3.1677,-3.1677,-3.1677,-3.1677,-3.1677,-3.1677,-3.1677,-3.1677,-3.1677,-3.1677,-3.1677,-3.1677,-3.1637,-3.1583,-3.1637,-3.1664,-3.1677,-3.1677,-3.1677,-3.1677,-3.1677,-3.1677,-3.1677,-3.1677,-3.1677,-3.1677,-3.1677,-3.1677,-3.1677,-3.1677,-3.1677,-3.1677,-3.1583,-3.1597,-3.157,-3.1517,-3.145,-3.1463,-3.145,-3.137,-3.1303,-3.1142,-3.0996,-3.1236,-3.137,-3.1356,-3.1423,-3.1517,-3.1597,-3.1677,-3.1677,-3.1677,-3.1677,-3.1677,-3.1677,-3.1677,-3.1677,-3.1677,-3.1677,-3.1677,-3.1677,-3.1557,-3.1597,-3.1383,-3.0982,-3.0635,-3.0408,-3.0247,-3.0087,-2.9967,-2.994,-2.9927,-2.9913,-2.9913,-2.9913,-2.9913,-3.1677,-3.1677,-3.1677,-3.1583,-3.1436,-3.1289,-3.1169,-3.1076,-3.1183,-3.1236,-3.133,-3.1543,-3.1677,-3.1677,-3.1677,-3.1677,-3.1677,-3.1677,-3.1677,-3.1677,-3.1677,-3.1677,-3.1677,-3.1677,-3.1677,-3.1677,-3.1677,-3.1677,-3.1677,-3.1677,-3.1677,-3.1677,-3.1677,-3.1677,-3.1677,-3.1677,-3.1677,-3.1677,-3.1677,-3.1677,-3.1677,-3.1677,-3.1677,-3.1677,-3.1677,-3.1677,-3.1677,-3.1677,-3.1677,-3.1677,-3.1677,-3.1677,-3.1677,-3.1677,-3.1677,-3.1677,-3.1677,-3.1677,-3.1677,-3.1677,-3.1677,-3.1677,-3.1677,-3.1677,-3.1677,-3.1677,-3.1677,-3.1677,-3.1677,-3.1677,-3.1677,-3.1677,-3.1677,-3.1677,-3.1677,-3.1677,-3.1677,-3.1677,-3.157,-3.1423,-3.1236,-3.1129,-3.1129,-3.1196,-3.1129,-3.1209,-3.1343,-3.1476,-3.1597,-3.1677,-3.1677,-3.1677,-3.1677,-3.1677,-3.1677,-3.1677,-3.1677,-3.1677,-3.1677,-3.1677,-3.1677,-3.1664,-3.1597,-3.1383,-3.1036,-3.0715,-3.0408,-3.0234,-3.01,-2.998,-2.9967,-2.9953,-2.9927,-2.9913,-2.9913,-3.1824,-3.1677,-3.1677,-3.1677,-3.1623,-3.1423,-3.1356,-3.145,-3.137,-3.1356,-3.149,-3.161,-3.1677,-3.1677,-3.1677,-3.1677,-3.1677,-3.1677,-3.1677,-3.1677,-3.1677,-3.1677,-3.1677,-3.1677,-3.1677,-3.1677,-3.1677,-3.1677,-3.1677,-3.1677,-3.1677,-3.1677,-3.1677,-3.1677,-3.1677,-3.1677,-3.1677,-3.1677,-3.1677,-3.1677,-3.1677,-3.1677,-3.1677,-3.1677,-3.1677,-3.1677,-3.1677,-3.1677,-3.1677,-3.1677,-3.1677,-3.1677,-3.1677,-3.1677,-3.1677,-3.1677,-3.1677,-3.1677,-3.1677,-3.1677,-3.1677,-3.1677,-3.1677,-3.1677,-3.1677,-3.1677,-3.1677,-3.1677,-3.1677,-3.1677,-3.1677,-3.1677,-3.1677,-3.1677,-3.1677,-3.1677,-3.1677,-3.1677,-3.1677,-3.1517,-3.133,-3.1169,-3.1076,-3.0875,-3.0782,-3.0942,-3.1076,-3.1209,-3.1356,-3.1623,-3.1664,-3.1677,-3.1677,-3.1677,-3.1677,-3.1677,-3.1677,-3.1677,-3.1677,-3.1677,-3.1677,-3.1677,-3.1597,-3.1557,-3.1463,-3.1129,-3.0768,-3.0461,-3.0394,-3.0287,-3.01,-3.0034,-3.0087,-2.9993,-2.9913,-3.1463,-3.1677,-3.1677,-3.1677,-3.1664,-3.1623,-3.1316,-3.0996,-3.1396,-3.1316,-3.1009,-3.1423,-3.165,-3.1677,-3.1677,-3.1677,-3.1677,-3.1677,-3.1677,-3.1677,-3.1677,-3.1677,-3.1677,-3.1677,-3.1677,-3.1677,-3.1677,-3.1677,-3.1677,-3.1677,-3.1677,-3.1677,-3.1677,-3.1677,-3.1677,-3.1677,-3.1677,-3.1677,-3.1677,-3.1677,-3.1677,-3.1677,-3.1677,-3.1677,-3.1677,-3.1677,-3.1677,-3.1677,-3.1677,-3.1677,-3.1677,-3.1677,-3.1677,-3.1677,-3.1677,-3.1677,-3.1677,-3.1677,-3.1677,-3.1677,-3.1677,-3.1677,-3.1677,-3.1677,-3.1677,-3.1677,-3.1677,-3.1677,-3.1677,-3.1677,-3.1677,-3.1677,-3.1677,-3.1664,-3.165,-3.1637,-3.1637,-3.1677,-3.1677,-3.149,-3.1263,-3.1036,-3.0862,-3.0621,-3.0434,-3.0635,-3.0808,-3.0955,-3.1116,-3.1396,-3.157,-3.1557,-3.165,-3.1677,-3.1677,-3.1677,-3.1677,-3.1677,-3.1677,-3.1677,-3.1677,-3.1677,-3.1677,-3.1623,-3.157,-3.1503,-3.1169,-3.0915,-3.0768,-3.0581,-3.0394,-3.0327,-3.0314,-3.0167,-2.998,-3.1557,-3.1677,-3.1677,-3.1677,-3.1677,-3.1677,-3.1343,-3.0955,-3.1223,-3.1183,-3.0915,-3.1223,-3.1503,-3.1637,-3.1677,-3.1677,-3.1677,-3.1677,-3.1677,-3.1677,-3.1677,-3.1677,-3.1677,-3.1677,-3.1677,-3.1677,-3.1677,-3.1677,-3.1677,-3.1677,-3.1677,-3.1677,-3.1677,-3.1677,-3.1677,-3.1677,-3.1677,-3.1677,-3.1677,-3.1677,-3.1677,-3.1677,-3.1677,-3.1677,-3.1677,-3.1677,-3.1677,-3.1677,-3.1677,-3.1677,-3.1677,-3.1677,-3.1677,-3.1677,-3.1677,-3.1677,-3.1677,-3.1677,-3.1677,-3.1677,-3.1677,-3.1677,-3.1677,-3.1677,-3.1677,-3.1677,-3.1677,-3.1677,-3.1677,-3.1664,-3.1664,-3.1677,-3.1557,-3.1517,-3.1557,-3.1543,-3.1557,-3.165,-3.1623,-3.141,-3.1196,-3.0969,-3.0702,-3.0394,-3.0274,-3.0448,-3.0662,-3.0875,-3.1009,-3.1183,-3.1316,-3.1383,-3.153,-3.1677,-3.1677,-3.1677,-3.1677,-3.1677,-3.1677,-3.1677,-3.1677,-3.1677,-3.1677,-3.1677,-3.1637,-3.1543,-3.145,-3.1263,-3.1022,-3.0849,-3.0688,-3.0608,-3.0528,-3.0341,-3.0154,-3.1677,-3.1677,-3.1677,-3.1677,-3.1677,-3.1677,-3.1383,-3.0969,-3.1142,-3.1102,-3.1022,-3.1223,-3.149,-3.1623,-3.1677,-3.1677,-3.1677,-3.1677,-3.1677,-3.1677,-3.1677,-3.1677,-3.1677,-3.1677,-3.1677,-3.1677,-3.1677,-3.1677,-3.1677,-3.1677,-3.1677,-3.1677,-3.1677,-3.1677,-3.1677,-3.1677,-3.1677,-3.1677,-3.1677,-3.1677,-3.1677,-3.1677,-3.1677,-3.1677,-3.1677,-3.1677,-3.1677,-3.1677,-3.1677,-3.1677,-3.1677,-3.1677,-3.1677,-3.1677,-3.1677,-3.1677,-3.1677,-3.1677,-3.1677,-3.1677,-3.1677,-3.1677,-3.1677,-3.1677,-3.1677,-3.1677,-3.1677,-3.1677,-3.1557,-3.1557,-3.1543,-3.149,-3.137,-3.1343,-3.141,-3.1396,-3.141,-3.157,-3.1637,-3.149,-3.1249,-3.0915,-3.0608,-3.0207,-3.0127,-3.0274,-3.0488,-3.0755,-3.0942,-3.1076,-3.1156,-3.1276,-3.149,-3.165,-3.1677,-3.1677,-3.1677,-3.1677,-3.1677,-3.1677,-3.1677,-3.1677,-3.1677,-3.1677,-3.1677,-3.1637,-3.1557,-3.141,-3.1276,-3.1183,-3.1062,-3.0849,-3.0702,-3.0515,-3.0327,-3.1677,-3.1677,-3.1677,-3.1677,-3.1677,-3.1677,-3.149,-3.1116,-3.1183,-3.1183,-3.1156,-3.1476,-3.1623,-3.1664,-3.1677,-3.1677,-3.1677,-3.1677,-3.1677,-3.1677,-3.1677,-3.1677,-3.1677,-3.1677,-3.1677,-3.1677,-3.1677,-3.1677,-3.1677,-3.1677,-3.1677,-3.1677,-3.1677,-3.1677,-3.1677,-3.1677,-3.1677,-3.1677,-3.1677,-3.1677,-3.1677,-3.1677,-3.1677,-3.1677,-3.1677,-3.1677,-3.1677,-3.1677,-3.1677,-3.1677,-3.1677,-3.1677,-3.1677,-3.1677,-3.1677,-3.1677,-3.1677,-3.1677,-3.1677,-3.1677,-3.1677,-3.1677,-3.1677,-3.1677,-3.1677,-3.1677,-3.1677,-3.1637,-3.149,-3.133,-3.1223,-3.1076,-3.1062,-3.1089,-3.1183,-3.1303,-3.1383,-3.157,-3.1623,-3.1543,-3.1276,-3.0889,-3.0568,-3.0181,-2.998,-3.0114,-3.0434,-3.0702,-3.0929,-3.1076,-3.1116,-3.1236,-3.1463,-3.161,-3.1664,-3.1677,-3.1677,-3.1677,-3.1677,-3.1677,-3.1677,-3.1677,-3.1677,-3.1677,-3.1677,-3.1677,-3.1664,-3.1557,-3.149,-3.153,-3.1423,-3.1169,-3.0875,-3.0621,-3.0461,-3.1677,-3.1677,-3.1677,-3.1677,-3.1677,-3.1677,-3.1396,-3.1009,-3.0955,-3.0955,-3.0996,-3.1436,-3.1677,-3.1677,-3.1677,-3.1677,-3.1677,-3.1677,-3.1677,-3.1677,-3.1677,-3.1677,-3.1677,-3.1677,-3.1677,-3.1677,-3.1677,-3.1677,-3.1677,-3.1677,-3.1677,-3.1677,-3.1677,-3.1677,-3.1677,-3.1677,-3.1677,-3.1677,-3.1677,-3.1677,-3.1677,-3.1677,-3.1677,-3.1677,-3.1677,-3.1677,-3.1677,-3.1677,-3.1677,-3.1677,-3.1677,-3.1677,-3.1677,-3.1677,-3.1677,-3.1677,-3.1677,-3.1677,-3.1677,-3.1677,-3.1677,-3.1677,-3.1677,-3.1677,-3.1677,-3.1677,-3.1677,-3.1583,-3.141,-3.1236,-3.1183,-3.0982,-3.0835,-3.0835,-3.0929,-3.1102,-3.1289,-3.1463,-3.1517,-3.141,-3.1116,-3.0755,-3.0461,-3.0167,-3.002,-2.9967,-3.0314,-3.0621,-3.0835,-3.1036,-3.1062,-3.1116,-3.1316,-3.1517,-3.1583,-3.1623,-3.1664,-3.165,-3.165,-3.1677,-3.1677,-3.1677,-3.1677,-3.1677,-3.1677,-3.1677,-3.1677,-3.1677,-3.165,-3.1623,-3.1557,-3.1436,-3.1116,-3.0795,-3.0595,-3.1677,-3.1677,-3.1677,-3.1677,-3.1677,-3.1677,-3.1383,-3.0955,-3.0835,-3.0795,-3.0835,-3.1396,-3.1677,-3.1677,-3.1677,-3.1677,-3.1677,-3.1677,-3.1677,-3.1677,-3.1677,-3.1677,-3.1677,-3.1677,-3.1677,-3.1677,-3.1677,-3.1677,-3.1677,-3.1677,-3.1677,-3.1677,-3.1677,-3.1677,-3.1677,-3.1677,-3.1677,-3.1677,-3.1677,-3.1677,-3.1677,-3.1677,-3.1677,-3.1677,-3.1677,-3.1677,-3.1677,-3.1677,-3.1677,-3.1677,-3.1677,-3.1677,-3.1677,-3.1677,-3.1677,-3.1677,-3.1677,-3.1677,-3.1677,-3.1677,-3.1677,-3.1677,-3.1677,-3.1677,-3.1677,-3.1677,-3.1677,-3.165,-3.141,-3.1196,-3.1129,-3.0808,-3.0702,-3.0715,-3.0688,-3.0835,-3.1049,-3.1236,-3.1276,-3.1249,-3.0915,-3.0581,-3.0501,-3.0261,-3.0127,-3.0114,-3.0434,-3.0621,-3.0621,-3.0822,-3.0982,-3.1022,-3.1116,-3.1303,-3.1476,-3.157,-3.1637,-3.1503,-3.153,-3.165,-3.1677,-3.1677,-3.1677,-3.1677,-3.1677,-3.1677,-3.1677,-3.1677,-3.1677,-3.1664,-3.161,-3.1543,-3.1423,-3.1102,-3.0782,-3.1677,-3.1677,-3.1677,-3.1677,-3.1677,-3.1677,-3.1476,-3.1116,-3.0889,-3.0795,-3.0862,-3.141,-3.1677,-3.1677,-3.1677,-3.1677,-3.1677,-3.1677,-3.1677,-3.1677,-3.1677,-3.1677,-3.1677,-3.1677,-3.1677,-3.1677,-3.1677,-3.1677,-3.1677,-3.1677,-3.1677,-3.1677,-3.1677,-3.1677,-3.1677,-3.1677,-3.1677,-3.1677,-3.1677,-3.1677,-3.1677,-3.1677,-3.1677,-3.1677,-3.1677,-3.1677,-3.1677,-3.1677,-3.1677,-3.1677,-3.1677,-3.1677,-3.1677,-3.1677,-3.1677,-3.1677,-3.1677,-3.1677,-3.1677,-3.1677,-3.1677,-3.1677,-3.1677,-3.1677,-3.1677,-3.1677,-3.1677,-3.165,-3.1396,-3.1102,-3.0849,-3.0595,-3.0595,-3.0581,-3.0568,-3.0675,-3.0902,-3.1102,-3.1169,-3.0996,-3.0675,-3.0421,-3.0434,-3.0381,-3.0247,-3.0301,-3.0608,-3.0675,-3.0581,-3.0662,-3.0862,-3.0849,-3.0902,-3.1062,-3.1263,-3.153,-3.1597,-3.145,-3.145,-3.1597,-3.1677,-3.1677,-3.1677,-3.1677,-3.1677,-3.1677,-3.1677,-3.1677,-3.1677,-3.1677,-3.1677,-3.1623,-3.1543,-3.137,-3.1009,-3.1677,-3.1677,-3.1677,-3.1677,-3.1677,-3.1677,-3.1396,-3.0969,-3.0835,-3.0795,-3.0915,-3.141,-3.1677,-3.1677,-3.1677,-3.1677,-3.1677,-3.1677,-3.1677,-3.1677,-3.1677,-3.1677,-3.1677,-3.1677,-3.1677,-3.1677,-3.1677,-3.1677,-3.1677,-3.1677,-3.1677,-3.1677,-3.1677,-3.1677,-3.1677,-3.1677,-3.1677,-3.1677,-3.1677,-3.1677,-3.1677,-3.1677,-3.1677,-3.1677,-3.1677,-3.1677,-3.1677,-3.1677,-3.1677,-3.1677,-3.1677,-3.1677,-3.1677,-3.1677,-3.1677,-3.1677,-3.1677,-3.1677,-3.1677,-3.1677,-3.1677,-3.1677,-3.1677,-3.1677,-3.1677,-3.1677,-3.1677,-3.161,-3.1396,-3.1102,-3.0822,-3.0541,-3.0474,-3.0501,-3.0541,-3.0702,-3.0889,-3.1062,-3.1116,-3.0728,-3.0394,-3.0261,-3.0221,-3.0394,-3.0341,-3.0408,-3.0688,-3.0728,-3.0662,-3.0662,-3.0782,-3.0675,-3.0675,-3.0835,-3.1036,-3.1383,-3.145,-3.1276,-3.1396,-3.1637,-3.1677,-3.1677,-3.1677,-3.1677,-3.1677,-3.1677,-3.1677,-3.1677,-3.1677,-3.1677,-3.165,-3.1557,-3.1396,-3.1289,-3.1102,-3.1677,-3.1677,-3.1677,-3.1677,-3.1677,-3.1677,-3.1383,-3.1009,-3.1036,-3.1049,-3.1076,-3.1463,-3.1677,-3.1677,-3.1677,-3.1677,-3.1677,-3.1677,-3.1677,-3.1677,-3.1677,-3.1677,-3.1677,-3.1677,-3.1677,-3.1677,-3.1677,-3.1677,-3.1677,-3.1677,-3.1677,-3.1677,-3.1677,-3.1677,-3.1677,-3.1677,-3.1677,-3.1677,-3.1677,-3.1677,-3.1677,-3.1677,-3.1677,-3.1677,-3.1677,-3.1677,-3.1677,-3.1677,-3.1677,-3.1677,-3.1677,-3.1677,-3.1677,-3.1677,-3.1677,-3.1677,-3.1677,-3.1677,-3.1677,-3.1677,-3.1677,-3.1677,-3.1677,-3.1677,-3.1677,-3.1677,-3.1677,-3.1597,-3.1383,-3.1102,-3.0795,-3.0515,-3.0408,-3.0434,-3.0394,-3.0555,-3.0675,-3.0822,-3.0768,-3.0408,-3.0234,-3.01,-3.01,-3.0287,-3.0434,-3.0581,-3.0742,-3.0742,-3.0715,-3.0702,-3.0675,-3.0568,-3.0555,-3.0702,-3.0969,-3.1316,-3.1303,-3.1116,-3.1316,-3.161,-3.1677,-3.1677,-3.1677,-3.1664,-3.1664,-3.165,-3.1664,-3.1664,-3.1583,-3.1583,-3.161,-3.1463,-3.1263,-3.1236,-3.1223,-3.1677,-3.1677,-3.1677,-3.1677,-3.1677,-3.1704,-3.1517,-3.1249,-3.149,-3.145,-3.1249,-3.1517,-3.1664,-3.1677,-3.1677,-3.1677,-3.1677,-3.1677,-3.1677,-3.1677,-3.1677,-3.1677,-3.1677,-3.1677,-3.1677,-3.1677,-3.1677,-3.1677,-3.1677,-3.1677,-3.1677,-3.1677,-3.1677,-3.1677,-3.1677,-3.1677,-3.1677,-3.1677,-3.1677,-3.1677,-3.1677,-3.1677,-3.1677,-3.1677,-3.1677,-3.1677,-3.1677,-3.1677,-3.1677,-3.1677,-3.1677,-3.1677,-3.1677,-3.1677,-3.1677,-3.1677,-3.1677,-3.1677,-3.1677,-3.1677,-3.1677,-3.1677,-3.1677,-3.1677,-3.1677,-3.1664,-3.1637,-3.1543,-3.1343,-3.1062,-3.0768,-3.0568,-3.0368,-3.0287,-3.0154,-3.0247,-3.0341,-3.0368,-3.0301,-3.014,-3.0047,-3.002,-3.0167,-3.0341,-3.0541,-3.0728,-3.0835,-3.0755,-3.0728,-3.0648,-3.0595,-3.0501,-3.0515,-3.0621,-3.0889,-3.1209,-3.1276,-3.1129,-3.1316,-3.1557,-3.161,-3.1637,-3.161,-3.1597,-3.1623,-3.161,-3.1543,-3.1476,-3.1423,-3.1423,-3.137,-3.1303,-3.1089,-3.1436,-3.1436,-3.1677,-3.1677,-3.1677,-3.1677,-3.1704,-3.1891,-3.169,-3.1276,-3.133,-3.1289,-3.1249,-3.1543,-3.1664,-3.1677,-3.1677,-3.1677,-3.1677,-3.1677,-3.1677,-3.1677,-3.1677,-3.1677,-3.1677,-3.1677,-3.1677,-3.1677,-3.1677,-3.1677,-3.1677,-3.1677,-3.1677,-3.1677,-3.1677,-3.1677,-3.1677,-3.1677,-3.1677,-3.1677,-3.1677,-3.1677,-3.1677,-3.1677,-3.1677,-3.1677,-3.1677,-3.1677,-3.1677,-3.1677,-3.1677,-3.1677,-3.1677,-3.1677,-3.1677,-3.1677,-3.1677,-3.1677,-3.1677,-3.1677,-3.1677,-3.1677,-3.1677,-3.1677,-3.1677,-3.1677,-3.1677,-3.165,-3.1583,-3.1436,-3.1263,-3.0982,-3.0662,-3.0434,-3.0301,-3.0207,-3.0127,-3.0167,-3.0247,-3.0221,-3.014,-3.0034,-2.994,-3.002,-3.0181,-3.0434,-3.0648,-3.0849,-3.0915,-3.0795,-3.0688,-3.0595,-3.0461,-3.0354,-3.0461,-3.0568,-3.0768,-3.1049,-3.1142,-3.1196,-3.1303,-3.1423,-3.153,-3.1557,-3.153,-3.149,-3.145,-3.1396,-3.133,-3.1263,-3.1156,-3.1036,-3.0969,-3.0969,-3.1009,-3.1289,-3.1463,-3.1677,-3.1677,-3.1677,-3.161,-3.1557,-3.1797,-3.165,-3.1303,-3.1463,-3.1517,-3.1423,-3.1597,-3.1677,-3.1677,-3.1677,-3.1677,-3.1677,-3.1677,-3.1677,-3.1677,-3.1677,-3.1677,-3.1677,-3.1677,-3.1677,-3.1677,-3.1677,-3.1677,-3.1677,-3.1677,-3.1677,-3.1677,-3.1677,-3.1677,-3.1677,-3.1677,-3.1677,-3.1677,-3.1677,-3.1677,-3.1677,-3.1677,-3.1677,-3.1677,-3.1677,-3.1677,-3.1677,-3.1677,-3.1677,-3.1677,-3.1677,-3.1677,-3.1677,-3.1677,-3.1677,-3.1677,-3.1677,-3.1677,-3.1677,-3.1677,-3.1677,-3.1677,-3.1677,-3.1677,-3.1677,-3.1664,-3.149,-3.1316,-3.1116,-3.0889,-3.0555,-3.0261,-3.0221,-3.0167,-3.0167,-3.0167,-3.0181,-3.0181,-3.0074,-2.9953,-2.9953,-3.0007,-3.0194,-3.0474,-3.0675,-3.0768,-3.0755,-3.0621,-3.0541,-3.0474,-3.0314,-3.0154,-3.0341,-3.0528,-3.0715,-3.0835,-3.0889,-3.0942,-3.0982,-3.1129,-3.1343,-3.1423,-3.1356,-3.1289,-3.1223,-3.1142,-3.1049,-3.0955,-3.0862,-3.0728,-3.0675,-3.0742,-3.0795,-3.0942,-3.1062,-3.1677,-3.1677,-3.1677,-3.1476,-3.1249,-3.1543,-3.149,-3.1289,-3.1744,-3.1904,-3.1677,-3.1664,-3.1677,-3.1677,-3.1677,-3.1677,-3.1677,-3.1677,-3.1677,-3.1677,-3.1677,-3.1677,-3.1677,-3.1677,-3.1677,-3.1677,-3.1677,-3.1677,-3.1677,-3.1677,-3.1677,-3.1677,-3.1677,-3.1677,-3.1677,-3.1677,-3.1677,-3.1677,-3.1677,-3.1677,-3.1677,-3.1677,-3.1677,-3.1677,-3.1677,-3.1677,-3.1677,-3.1677,-3.1677,-3.1677,-3.1677,-3.1677,-3.1677,-3.1677,-3.1677,-3.1677,-3.1677,-3.1677,-3.1677,-3.1677,-3.1677,-3.1677,-3.1677,-3.1677,-3.1677,-3.1677,-3.1517,-3.1183,-3.0955,-3.0675,-3.0341,-3.014,-3.0047,-3.0034,-3.0034,-3.0034,-3.0034,-3.0034,-3.0007,-2.9913,-2.9927,-3.0007,-3.0221,-3.0501,-3.0608,-3.0675,-3.0608,-3.0474,-3.0394,-3.0341,-3.0247,-3.006,-3.0247,-3.0448,-3.0501,-3.0608,-3.0621,-3.0662,-3.0702,-3.0849,-3.1102,-3.1169,-3.1183,-3.1036,-3.0875,-3.0822,-3.0742,-3.0621,-3.0515,-3.0421,-3.0408,-3.0541,-3.0635,-3.0755,-3.0889,-3.1677,-3.1677,-3.1677,-3.137,-3.0996,-3.145,-3.137,-3.0969,-3.1517,-3.1744,-3.1677,-3.1677,-3.1677,-3.1677,-3.1677,-3.1677,-3.1677,-3.1677,-3.1677,-3.1677,-3.1677,-3.1677,-3.1677,-3.1677,-3.1677,-3.1677,-3.1677,-3.1677,-3.1677,-3.1677,-3.1677,-3.1677,-3.1677,-3.1677,-3.1677,-3.1677,-3.1677,-3.1677,-3.1677,-3.1677,-3.1677,-3.1677,-3.1677,-3.1677,-3.1677,-3.1677,-3.1677,-3.1677,-3.1677,-3.1677,-3.1677,-3.1677,-3.1677,-3.1677,-3.1677,-3.1677,-3.1677,-3.1677,-3.1677,-3.1677,-3.1677,-3.1677,-3.1677,-3.1677,-3.1677,-3.1677,-3.149,-3.1089,-3.0768,-3.0474,-3.0194,-3.0034,-2.9913,-2.9913,-2.9913,-2.9913,-2.9913,-2.9913,-2.9913,-2.9913,-2.9913,-3.006,-3.0261,-3.0408,-3.0541,-3.0541,-3.0461,-3.0368,-3.0274,-3.0221,-3.0274,-3.0167,-3.0247,-3.0368,-3.0408,-3.0368,-3.0394,-3.0448,-3.0501,-3.0675,-3.0862,-3.0875,-3.0862,-3.0648,-3.0488,-3.0461,-3.0394,-3.0234,-3.0127,-3.0167,-3.0301,-3.0488,-3.0608,-3.0715,-3.0875,-3.1677,-3.1677,-3.1677,-3.133,-3.0969,-3.1423,-3.133,-3.0969,-3.1423,-3.1677,-3.1677,-3.1677,-3.1677,-3.1677,-3.1677,-3.1677,-3.1677,-3.1677,-3.1677,-3.1677,-3.1677,-3.1677,-3.1677,-3.1677,-3.1677,-3.1677,-3.1677,-3.1677,-3.1677,-3.1677,-3.1677,-3.1677,-3.1677,-3.1677,-3.1677,-3.1677,-3.1677,-3.1677,-3.1677,-3.1677,-3.1677,-3.1677,-3.1677,-3.1677,-3.1677,-3.1677,-3.1677,-3.1677,-3.1677,-3.1677,-3.1677,-3.1677,-3.1677,-3.1677,-3.1677,-3.1677,-3.1677,-3.1677,-3.1677,-3.1677,-3.1677,-3.1677,-3.1677,-3.1677,-3.1623,-3.1583,-3.1289,-3.0942,-3.0835,-3.0581,-3.0167,-2.9927,-2.9913,-2.9913,-2.9913,-2.9913,-2.9913,-2.9913,-2.9913,-2.9913,-2.9913,-2.9953,-3.01,-3.0114,-3.0221,-3.0221,-3.0167,-3.0207,-3.0127,-3.0127,-3.0181,-3.0221,-3.0274,-3.0327,-3.0394,-3.0287,-3.0167,-3.0234,-3.0327,-3.0408,-3.0528,-3.0568,-3.0541,-3.0394,-3.0274,-3.0167,-3.006,-3.006,-3.014,-3.0247,-3.0368,-3.0488,-3.0608,-3.0755,-3.0969,-3.1677,-3.1677,-3.1677,-3.133,-3.0929,-3.1423,-3.1343,-3.0955,-3.141,-3.1677,-3.1677,-3.1677,-3.1677,-3.1677,-3.1677,-3.1677,-3.1677,-3.1677,-3.1677,-3.1677,-3.1677,-3.1677,-3.1677,-3.1677,-3.1677,-3.1677,-3.1677,-3.1677,-3.1677,-3.1677,-3.1677,-3.1677,-3.1677,-3.1677,-3.1677,-3.1677,-3.1677,-3.1677,-3.1677,-3.1677,-3.1677,-3.1677,-3.1677,-3.1677,-3.1677,-3.1677,-3.1677,-3.1677,-3.1677,-3.1677,-3.1677,-3.1677,-3.1677,-3.1677,-3.1677,-3.1677,-3.1677,-3.1677,-3.1677,-3.1677,-3.1677,-3.1677,-3.1677,-3.1637,-3.1583,-3.1436,-3.1142,-3.0862,-3.0768,-3.0555,-3.014,-2.9913,-2.9913,-2.9913,-2.9913,-2.9913,-2.9913,-2.9913,-2.9913,-2.9913,-2.9927,-2.994,-2.998,-2.998,-2.9953,-2.994,-2.994,-2.9953,-2.9993,-3.0074,-3.014,-3.0167,-3.0207,-3.0274,-3.0408,-3.0207,-3.0034,-3.0127,-3.0221,-3.0207,-3.0207,-3.0261,-3.0287,-3.0261,-3.0127,-3.0047,-3.0114,-3.0194,-3.0274,-3.0368,-3.0488,-3.0635,-3.0849,-3.0996,-3.1156,-3.1677,-3.1677,-3.1677,-3.133,-3.0942,-3.1423,-3.133,-3.0942,-3.141,-3.1677,-3.1677,-3.1677,-3.1677,-3.1677,-3.1677,-3.1853,-3.2219,-3.1948,-3.1772,-3.1677,-3.1758,-3.1758,-3.1677,-3.1677,-3.1677,-3.1677,-3.1677,-3.1677,-3.1677,-3.1677,-3.1677,-3.1677,-3.1677,-3.1677,-3.1677,-3.1677,-3.1677,-3.1677,-3.1677,-3.1677,-3.1677,-3.1677,-3.1677,-3.1677,-3.1677,-3.1677,-3.1677,-3.1677,-3.1677,-3.1677,-3.1677,-3.1677,-3.1677,-3.1677,-3.1677,-3.1677,-3.1677,-3.1677,-3.1677,-3.1677,-3.1677,-3.1677,-3.165,-3.157,-3.1543,-3.153,-3.1156,-3.0635,-3.0488,-3.0341,-3.0034,-2.994,-2.9913,-2.9913,-2.9913,-2.9913,-2.9913,-2.9913,-2.9913,-2.9927,-2.9953,-3.0034,-3.0167,-3.0127,-3.006,-3.0034,-2.9967,-2.998,-3.0087,-3.01,-3.01,-3.0181,-3.0221,-3.0394,-3.0581,-3.0167,-2.998,-3.006,-3.01,-3.0074,-3.0034,-2.998,-2.9993,-3.006,-3.0074,-3.0034,-3.0127,-3.0261,-3.0474,-3.0581,-3.0675,-3.0822,-3.1036,-3.1209,-3.1343]},{"header":{"parameterUnit":"m.s-1","parameterCategory":1,"la1":31.0,"la2":29.5877,"lo1":-88.7671,"lo2":-86.6584,"dx":0.0162,"dy":0.0185,"nx":115,"ny":88,"refTime":"2022-11-24T18:00:00:Z","depth":0,"parameterNumber":3,"parameterNumberName":"V-component_of_WINDS"},"data":[0.0,0.0,0.0,0.0,0.0,0.0,0.0,0.0,0.0,0.0,0.0,0.0,0.0,0.0,0.0,0.0,0.0,0.0,0.0,0.0,0.0,0.0,0.0,0.0,0.0,0.0,0.0,0.0,0.0,0.0,0.0,0.0,0.0,0.0,0.0,0.0,0.0,0.0,0.0,0.0,0.0,0.0,0.0,0.0,0.0,0.0,0.0,0.0,0.0,0.0,0.0,0.0,0.0,0.0,0.0,0.0,0.0,0.0,0.0,0.0,0.0,0.0,0.0,0.0,0.0,0.0,0.0,0.0,0.0,0.0,0.0,0.0,0.0,0.0,0.0,0.0,0.0,0.0,0.0,0.0,0.0,0.0,0.0,0.0,0.0,0.0,0.0,0.0,0.0,0.0,0.0,0.0,0.0,0.0,0.0,0.0,0.0,0.0,0.0,0.0,0.0,0.0,0.0,0.0,0.0,0.0,0.0,0.0,0.0,0.0,0.0,0.0,0.0,0.0,0.0,0.0,0.0,0.0,0.0,0.0,0.0,0.0,0.0,0.0,0.0,0.0,0.0,0.0,0.0,0.0,0.0,0.0,0.0,0.0,0.0,0.0,0.0,0.0,0.0,0.0,0.0,0.0,0.0,0.0,0.0,0.0,0.0,0.0,0.0,0.0,0.0,0.0,0.0,0.0,0.0,0.0,0.0,0.0,0.0,0.0,0.0,0.0,0.0,0.0,0.0,0.0,0.0,0.0,0.0,0.0,0.0,0.0,0.0,0.0,0.0,0.0,0.0,0.0,0.0,0.0,0.0,0.0,0.0,0.0,0.0,0.0,0.0,0.0,0.0,0.0,0.0,0.0,0.0,0.0,0.0,0.0,0.0,0.0,0.0,0.0,0.0,0.0,0.0,0.0,0.0,0.0,0.0,0.0,0.0,0.0,0.0,0.0,0.0,0.0,0.0,0.0,0.0,0.0,0.0,0.0,0.0,0.0,0.0,0.0,0.0,0.0,0.0,0.0,0.0,0.0,0.0,0.0,0.0,0.0,0.0,0.0,0.0,0.0,0.0,0.0,0.0,0.0,0.0,0.0,0.0,0.0,0.0,0.0,0.0,0.0,0.0,0.0,0.0,0.0,0.0,0.0,0.0,0.0,0.0,0.0,0.0,0.0,0.0,0.0,0.0,0.0,0.0,0.0,0.0,0.0,0.0,0.0,0.0,0.0,0.0,0.0,0.0,0.0,0.0,0.0,0.0,0.0,0.0,0.0,0.0,0.0,0.0,0.0,0.0,0.0,0.0,0.0,0.0,0.0,0.0,0.0,0.0,0.0,0.0,0.0,0.0,0.0,0.0,0.0,0.0,0.0,0.0,0.0,0.0,0.0,0.0,0.0,0.0,0.0,0.0,0.0,0.0,0.0,0.0,0.0,0.0,0.0,0.0,0.0,0.0,0.0,0.0,0.0,0.0,0.0,0.0,0.0,0.0,0.0,0.0,0.0,0.0,0.0,0.0,0.0,0.0,0.0,0.0,0.0,0.0,0.0,0.0,0.0,0.0,0.0,0.0,0.0,0.0,0.0,0.0,0.0,0.0,0.0,0.0,0.0,0.0,0.0,0.0,0.0,0.0,0.0,0.0,0.0,0.0,0.0,0.0,0.0,0.0,0.0,0.0,0.0,0.0,0.0,0.0,0.0,0.0,0.0,0.0,0.0,0.0,0.0,0.0,0.0,0.0,0.0,0.0,0.0,0.0,0.0,0.0,0.0,0.0,0.0,0.0,0.0,0.0,0.0,0.0,0.0,0.0,0.0,0.0,0.0,0.0,0.0,0.0,0.0,0.0,0.0,0.0,0.0,0.0,0.0,0.0,0.0,0.0,0.0,0.0,0.0,0.0,0.0,0.0,0.0,0.0,0.0,0.0,0.0,0.0,0.0,0.0,0.0,0.0,0.0,0.0,0.0,0.0,0.0,0.0,0.0,0.0,0.0,0.0,0.0,0.0,0.0,0.0,0.0,0.0,0.0,0.0,0.0,0.0,0.0,0.0,0.0,0.0,0.0,0.0,0.0,0.0,0.0,0.0,0.0,0.0,0.0,0.0,0.0,0.0,0.0,0.0,0.0,0.0,0.0,0.0,0.0,0.0,0.0,0.0,0.0,0.0,0.0,0.0,0.0,0.0,0.0,0.0,0.0,0.0,0.0,0.0,0.0,0.0,0.0,0.0,0.0,0.0,0.0,0.0,0.0,0.0,0.0,0.0,0.0,0.0,0.0,0.0,0.0,0.0,0.0,0.0,0.0,0.0,0.0,0.0,0.0,0.0,0.0,0.0,0.0,0.0,0.0,0.0,0.0,0.0,0.0,0.0,0.0,0.0,0.0,0.0,0.0,0.0,0.0,0.0,0.0,0.0,0.0,0.0,0.0,0.0,0.0,0.0,0.0,0.0,0.0,0.0,0.0,0.0,0.0,0.0,0.0,0.0,0.0,0.0,0.0,0.0,0.0,0.0,0.0,0.0,0.0,0.0,0.0,0.0,0.0,0.0,0.0,0.0,0.0,0.0,0.0,0.0,0.0,0.0,0.0,0.0,0.0,0.0,0.0,0.0,0.0,0.0,0.0,0.0,0.0,0.0,0.0,0.0,0.0,0.0,0.0,0.0,0.0,0.0,0.0,0.0,0.0,0.0,0.0,0.0,0.0,0.0,0.0,0.0,0.0,0.0,0.0,0.0,0.0,0.0,0.0,0.0,0.0,0.0,0.0,0.0,0.0,0.0,0.0,0.0,0.0,0.0,0.0,0.0,0.0,0.0,0.0,0.0,0.0,0.0,0.0,0.0,0.0,0.0,0.0,0.0,0.0,0.0,0.0,0.0,0.0,0.0,0.0,0.0,0.0,0.0,0.0,0.0,0.0,0.0,0.0,0.0,0.0,0.0,0.0,0.0,0.0,0.0,0.0,0.0,0.0,0.0,0.0,0.0,0.0,0.0,0.0,0.0,0.0,0.0,0.0,0.0,0.0,0.0,0.0,0.0,0.0,0.0,0.0,0.0,0.0,0.0,0.0,0.0,0.0,0.0,0.0,0.0,0.0,0.0,0.0,0.0,0.0,0.0,0.0,0.0,0.0,0.0,0.0,0.0,0.0,0.0,0.0,0.0,0.0,0.0,0.0,0.0,0.0,0.0,0.0,0.0,0.0,0.0,0.0,0.0,0.0,0.0,0.0,0.0,0.0,0.0,0.0,0.0,0.0,0.0,0.0,0.0,0.0,0.0,0.0,0.0,0.0,0.0,0.0,0.0,0.0,0.0,0.0,0.0,0.0,0.0,0.0,0.0,0.0,0.0,0.0,0.0,0.0,0.0,0.0,0.0,0.0,0.0,0.0,0.0,0.0,0.0,0.0,0.0,0.0,0.0,0.0,0.0,0.0,0.0,0.0,0.0,0.0,0.0,0.0,0.0,0.0,0.0,0.0,0.0,0.0,0.0,0.0,0.0,0.0,0.0,0.0,0.0,0.0,0.0,0.0,0.0,0.0,0.0,0.0,0.0,0.0,0.0,0.0,0.0,0.0,0.0,0.0,0.0,0.0,0.0,0.0,0.0,0.0,0.0,0.0,0.0,0.0,0.0,0.0,0.0,0.0,0.0,0.0,0.0,0.0,0.0,0.0,0.0,0.0,0.0,0.0,0.0,0.0,0.0,0.0,0.0,0.0,0.0,0.0,0.0,0.0,0.0,0.0,0.0,0.0,0.0,0.0,0.0,0.0,0.0,0.0,0.0,0.0,0.0,0.0,0.0,0.0,0.0,0.0,0.0,0.0,0.0,0.0,0.0,0.0,0.0,0.0,0.0,0.0,0.0,0.0,0.0,0.0,0.0,0.0,0.0,0.0,0.0,0.0,0.0,0.0,0.0,0.0,0.0,0.0,0.0,0.0,0.0,0.0,0.0,0.0,0.0,0.0,0.0,0.0,0.0,0.0,0.0,0.0,0.0,0.0,0.0,0.0,0.0,0.0,0.0,0.0,0.0,0.0,0.0,0.0,0.0,0.0,0.0,0.0,0.0,0.0,0.0,0.0,0.0,0.0,0.0,0.0,0.0,0.0,0.0,0.0,0.0,0.0,0.0,0.0,0.0,0.0,0.0,0.0,0.0,0.0,0.0,0.0,0.0,0.0,0.0,0.0,0.0,0.0,0.0,0.0,0.0,0.0,0.0,0.0,0.0,0.0,0.0,0.0,0.0,0.0,0.0,0.0,0.0,0.0,0.0,0.0,0.0,0.0,3.3581,0.0,0.0,0.0,3.0151,0.0,0.0,0.0,0.0,0.0,0.0,0.0,0.0,0.0,0.0,0.0,0.0,0.0,0.0,0.0,0.0,0.0,0.0,0.0,0.0,0.0,0.0,0.0,0.0,0.0,0.0,0.0,0.0,0.0,0.0,0.0,0.0,0.0,0.0,0.0,0.0,0.0,0.0,0.0,0.0,0.0,0.0,0.0,0.0,0.0,0.0,0.0,0.0,0.0,0.0,0.0,0.0,0.0,0.0,0.0,0.0,0.0,0.0,0.0,0.0,0.0,0.0,0.0,0.0,0.0,0.0,0.0,0.0,0.0,0.0,0.0,0.0,0.0,0.0,0.0,0.0,0.0,0.0,0.0,0.0,0.0,0.0,0.0,0.0,0.0,0.0,0.0,0.0,0.0,0.0,0.0,0.0,0.0,0.0,0.0,0.0,0.0,0.0,0.0,0.0,0.0,0.0,0.0,0.0,0.0,0.0,0.0,0.0,0.0,0.0,3.3267,3.1621,3.1993,3.1171,2.8925,0.0,0.0,0.0,0.0,0.0,0.0,0.0,0.0,0.0,0.0,0.0,0.0,0.0,0.0,0.0,0.0,0.0,0.0,0.0,0.0,0.0,0.0,0.0,0.0,0.0,0.0,0.0,0.0,0.0,0.0,0.0,0.0,0.0,0.0,0.0,0.0,0.0,0.0,0.0,0.0,0.0,0.0,0.0,0.0,0.0,0.0,0.0,0.0,0.0,0.0,0.0,0.0,0.0,0.0,0.0,0.0,0.0,0.0,0.0,0.0,0.0,0.0,0.0,0.0,0.0,0.0,0.0,0.0,0.0,0.0,0.0,0.0,0.0,0.0,0.0,0.0,0.0,0.0,0.0,0.0,0.0,0.0,0.0,0.0,0.0,0.0,0.0,0.0,0.0,0.0,0.0,0.0,0.0,0.0,0.0,0.0,0.0,0.0,0.0,0.0,0.0,0.0,0.0,0.0,0.0,0.0,0.0,0.0,0.0,0.0,0.0,0.0,3.3456,3.2384,2.8017,0.0,0.0,0.0,0.0,0.0,0.0,0.0,0.0,0.0,0.0,0.0,0.0,0.0,0.0,0.0,0.0,0.0,0.0,0.0,0.0,0.0,0.0,0.0,0.0,0.0,0.0,0.0,0.0,0.0,0.0,0.0,0.0,0.0,0.0,0.0,0.0,0.0,0.0,0.0,0.0,0.0,0.0,0.0,0.0,0.0,0.0,0.0,0.0,0.0,0.0,0.0,0.0,0.0,0.0,0.0,0.0,0.0,0.0,0.0,0.0,0.0,0.0,0.0,0.0,0.0,0.0,0.0,0.0,0.0,0.0,0.0,0.0,0.0,0.0,0.0,0.0,0.0,0.0,0.0,0.0,0.0,0.0,0.0,0.0,0.0,0.0,0.0,0.0,0.0,0.0,0.0,0.0,0.0,0.0,0.0,0.0,0.0,0.0,0.0,0.0,0.0,0.0,0.0,0.0,0.0,0.0,0.0,0.0,0.0,0.0,3.2774,3.4579,3.3433,0.0,2.863,0.0,0.0,0.0,0.0,0.0,0.0,0.0,0.0,0.0,0.0,0.0,0.0,0.0,0.0,0.0,0.0,0.0,0.0,0.0,0.0,0.0,0.0,0.0,0.0,0.0,0.0,0.0,0.0,0.0,0.0,0.0,0.0,0.0,0.0,0.0,0.0,0.0,0.0,0.0,0.0,0.0,0.0,0.0,0.0,0.0,0.0,0.0,0.0,0.0,0.0,0.0,0.0,0.0,0.0,0.0,0.0,0.0,0.0,0.0,0.0,0.0,0.0,0.0,0.0,0.0,0.0,0.0,0.0,0.0,0.0,0.0,0.0,0.0,0.0,0.0,0.0,0.0,0.0,0.0,0.0,0.0,0.0,0.0,0.0,0.0,0.0,0.0,0.0,0.0,0.0,0.0,0.0,0.0,0.0,0.0,0.0,0.0,0.0,0.0,0.0,0.0,0.0,0.0,0.0,0.0,0.0,0.0,0.0,0.0,0.0,3.3508,3.3091,3.191,3.0882,0.0,0.0,0.0,0.0,0.0,0.0,0.0,0.0,0.0,0.0,0.0,0.0,0.0,0.0,0.0,0.0,0.0,0.0,0.0,0.0,0.0,0.0,0.0,0.0,0.0,0.0,0.0,0.0,0.0,0.0,0.0,0.0,0.0,0.0,0.0,0.0,0.0,0.0,0.0,0.0,0.0,0.0,0.0,0.0,0.0,0.0,0.0,0.0,0.0,0.0,0.0,0.0,0.0,0.0,0.0,0.0,0.0,0.0,0.0,0.0,0.0,0.0,0.0,0.0,0.0,0.0,0.0,0.0,0.0,0.0,0.0,0.0,0.0,0.0,0.0,0.0,0.0,0.0,0.0,0.0,0.0,0.0,0.0,0.0,0.0,0.0,0.0,0.0,0.0,0.0,0.0,0.0,0.0,0.0,0.0,0.0,0.0,0.0,0.0,0.0,0.0,0.0,0.0,0.0,0.0,0.0,0.0,0.0,0.0,0.0,3.3439,3.3999,3.3018,3.2166,3.1248,3.0316,0.0,0.0,0.0,0.0,0.0,0.0,0.0,0.0,0.0,0.0,0.0,0.0,0.0,0.0,0.0,0.0,0.0,0.0,0.0,0.0,0.0,0.0,0.0,0.0,0.0,0.0,0.0,0.0,0.0,0.0,0.0,0.0,0.0,0.0,0.0,0.0,0.0,0.0,0.0,0.0,0.0,0.0,0.0,0.0,0.0,0.0,0.0,0.0,0.0,0.0,0.0,0.0,0.0,0.0,0.0,0.0,0.0,0.0,0.0,0.0,0.0,0.0,0.0,0.0,0.0,0.0,0.0,0.0,0.0,0.0,0.0,0.0,0.0,0.0,0.0,0.0,0.0,0.0,0.0,0.0,0.0,0.0,0.0,0.0,0.0,0.0,0.0,0.0,0.0,0.0,0.0,0.0,0.0,0.0,0.0,0.0,0.0,0.0,0.0,0.0,0.0,0.0,0.0,0.0,0.0,0.0,0.0,0.0,3.3737,3.3346,3.4047,3.6072,3.5343,3.2881,0.0,0.0,0.0,0.0,0.0,0.0,0.0,0.0,0.0,0.0,0.0,0.0,0.0,0.0,0.0,0.0,0.0,0.0,0.0,0.0,0.0,0.0,0.0,0.0,0.0,0.0,0.0,0.0,0.0,0.0,0.0,0.0,0.0,0.0,0.0,0.0,0.0,0.0,0.0,0.0,0.0,0.0,0.0,0.0,0.0,0.0,0.0,0.0,0.0,0.0,0.0,0.0,0.0,0.0,0.0,0.0,0.0,0.0,0.0,0.0,0.0,0.0,0.0,0.0,0.0,0.0,0.0,0.0,0.0,0.0,0.0,0.0,0.0,0.0,0.0,0.0,0.0,0.0,0.0,0.0,0.0,0.0,0.0,0.0,0.0,0.0,0.0,0.0,0.0,0.0,0.0,0.0,0.0,0.0,0.0,0.0,0.0,0.0,0.0,0.0,0.0,0.0,0.0,0.0,0.0,0.0,0.0,0.0,0.0,3.0198,3.1429,3.4256,3.8346,3.4318,3.1708,0.0,0.0,0.0,0.0,0.0,0.0,0.0,0.0,0.0,0.0,0.0,0.0,0.0,0.0,0.0,0.0,0.0,0.0,0.0,0.0,0.0,0.0,0.0,0.0,0.0,0.0,0.0,0.0,0.0,0.0,0.0,0.0,0.0,0.0,0.0,0.0,0.0,0.0,0.0,0.0,0.0,0.0,0.0,0.0,0.0,0.0,0.0,0.0,0.0,0.0,0.0,0.0,0.0,0.0,0.0,0.0,0.0,0.0,0.0,0.0,0.0,0.0,0.0,0.0,0.0,0.0,0.0,0.0,0.0,0.0,0.0,0.0,0.0,0.0,0.0,0.0,0.0,0.0,0.0,0.0,0.0,0.0,0.0,0.0,0.0,0.0,0.0,0.0,0.0,0.0,0.0,0.0,0.0,0.0,0.0,0.0,0.0,0.0,0.0,0.0,0.0,0.0,0.0,0.0,0.0,0.0,0.0,0.0,0.0,3.0417,3.2613,3.5454,3.8442,3.3891,3.1028,0.0,0.0,0.0,0.0,0.0,0.0,0.0,0.0,0.0,0.0,0.0,0.0,0.0,0.0,0.0,0.0,0.0,0.0,0.0,0.0,0.0,0.0,0.0,0.0,0.0,0.0,0.0,0.0,0.0,0.0,0.0,0.0,0.0,0.0,0.0,0.0,0.0,0.0,0.0,0.0,0.0,0.0,0.0,0.0,0.0,0.0,0.0,0.0,0.0,0.0,0.0,0.0,0.0,0.0,0.0,0.0,0.0,0.0,0.0,0.0,0.0,0.0,0.0,0.0,0.0,0.0,0.0,0.0,0.0,0.0,0.0,0.0,0.0,0.0,0.0,0.0,0.0,0.0,0.0,0.0,0.0,0.0,0.0,0.0,0.0,0.0,0.0,0.0,0.0,0.0,0.0,0.0,0.0,0.0,0.0,0.0,0.0,0.0,0.0,0.0,0.0,0.0,0.0,0.0,0.0,0.0,0.0,0.0,3.0488,3.5158,3.7164,3.7726,3.6489,3.45,3.1073,0.0,0.0,0.0,0.0,0.0,0.0,0.0,0.0,0.0,0.0,0.0,0.0,0.0,0.0,0.0,0.0,0.0,0.0,0.0,0.0,0.0,0.0,0.0,0.0,0.0,0.0,0.0,0.0,0.0,0.0,0.0,0.0,0.0,0.0,0.0,0.0,0.0,0.0,0.0,0.0,0.0,0.0,0.0,0.0,0.0,0.0,0.0,0.0,0.0,0.0,0.0,0.0,0.0,0.0,0.0,0.0,0.0,0.0,0.0,0.0,0.0,0.0,0.0,0.0,0.0,0.0,0.0,0.0,0.0,0.0,0.0,0.0,0.0,0.0,0.0,0.0,0.0,0.0,0.0,0.0,0.0,0.0,0.0,0.0,0.0,0.0,0.0,0.0,0.0,0.0,0.0,0.0,0.0,0.0,0.0,0.0,0.0,0.0,0.0,0.0,0.0,0.0,0.0,0.0,0.0,0.0,0.0,0.0,0.0,3.3109,3.8294,4.0571,3.9375,3.6119,3.4061,0.0,0.0,0.0,0.0,0.0,0.0,0.0,0.0,0.0,0.0,0.0,0.0,0.0,0.0,0.0,0.0,0.0,0.0,0.0,0.0,0.0,0.0,0.0,0.0,0.0,0.0,0.0,0.0,0.0,0.0,0.0,0.0,0.0,0.0,0.0,0.0,0.0,0.0,0.0,0.0,0.0,0.0,0.0,0.0,0.0,0.0,0.0,0.0,0.0,0.0,0.0,0.0,0.0,0.0,0.0,0.0,0.0,0.0,0.0,0.0,0.0,0.0,0.0,0.0,0.0,0.0,0.0,0.0,0.0,0.0,0.0,0.0,0.0,0.0,0.0,0.0,0.0,0.0,0.0,0.0,0.0,0.0,0.0,0.0,0.0,0.0,0.0,0.0,0.0,0.0,0.0,0.0,0.0,0.0,0.0,0.0,0.0,0.0,0.0,0.0,0.0,0.0,0.0,0.0,0.0,0.0,0.0,0.0,0.0,3.7509,4.2825,4.499,4.3276,3.9272,3.6749,3.5964,0.0,0.0,0.0,0.0,0.0,0.0,0.0,0.0,0.0,0.0,0.0,0.0,0.0,0.0,0.0,0.0,0.0,0.0,0.0,0.0,0.0,0.0,0.0,0.0,0.0,0.0,0.0,0.0,0.0,0.0,0.0,0.0,0.0,0.0,0.0,0.0,0.0,0.0,0.0,0.0,0.0,0.0,0.0,0.0,0.0,0.0,0.0,0.0,0.0,0.0,0.0,0.0,0.0,0.0,0.0,0.0,0.0,0.0,0.0,0.0,0.0,0.0,0.0,0.0,0.0,0.0,0.0,0.0,0.0,0.0,0.0,0.0,0.0,0.0,0.0,0.0,0.0,0.0,0.0,0.0,0.0,0.0,0.0,0.0,0.0,0.0,0.0,0.0,0.0,0.0,0.0,0.0,0.0,0.0,0.0,0.0,0.0,0.0,0.0,0.0,0.0,0.0,0.0,0.0,0.0,0.0,0.0,0.0,4.6417,5.0084,5.0582,4.7718,4.3509,3.9386,0.0,0.0,0.0,0.0,0.0,0.0,0.0,0.0,0.0,0.0,0.0,0.0,0.0,0.0,0.0,0.0,0.0,0.0,0.0,0.0,0.0,0.0,0.0,0.0,0.0,0.0,0.0,0.0,0.0,0.0,0.0,0.0,0.0,0.0,0.0,0.0,0.0,0.0,0.0,0.0,0.0,0.0,0.0,0.0,0.0,0.0,0.0,0.0,0.0,0.0,0.0,0.0,0.0,0.0,0.0,0.0,0.0,0.0,0.0,0.0,0.0,0.0,0.0,0.0,0.0,0.0,0.0,0.0,0.0,0.0,0.0,0.0,0.0,0.0,0.0,0.0,0.0,0.0,0.0,0.0,0.0,0.0,0.0,0.0,0.0,0.0,0.0,0.0,0.0,0.0,0.0,0.0,0.0,0.0,0.0,0.0,0.0,0.0,0.0,0.0,0.0,0.0,0.0,0.0,0.0,0.0,0.0,0.0,0.0,5.053,5.5306,5.5755,5.1419,4.6935,4.3541,0.0,0.0,0.0,0.0,0.0,0.0,0.0,0.0,0.0,0.0,0.0,0.0,0.0,0.0,0.0,0.0,0.0,0.0,0.0,0.0,0.0,0.0,0.0,0.0,0.0,0.0,0.0,0.0,0.0,0.0,0.0,0.0,0.0,0.0,0.0,0.0,0.0,0.0,0.0,0.0,0.0,0.0,0.0,0.0,0.0,0.0,0.0,0.0,0.0,0.0,0.0,0.0,0.0,0.0,0.0,0.0,0.0,0.0,0.0,0.0,0.0,0.0,0.0,0.0,0.0,0.0,0.0,0.0,0.0,0.0,0.0,0.0,0.0,0.0,0.0,0.0,0.0,0.0,0.0,0.0,0.0,0.0,0.0,0.0,0.0,0.0,0.0,0.0,0.0,0.0,0.0,0.0,0.0,0.0,0.0,0.0,0.0,0.0,0.0,0.0,0.0,0.0,0.0,0.0,0.0,0.0,0.0,0.0,5.0063,5.5107,5.8189,5.8635,5.6163,5.1799,4.7729,0.0,0.0,0.0,0.0,0.0,0.0,0.0,0.0,0.0,0.0,0.0,0.0,0.0,0.0,0.0,0.0,0.0,0.0,0.0,0.0,0.0,0.0,0.0,0.0,0.0,0.0,0.0,0.0,0.0,0.0,0.0,0.0,0.0,0.0,0.0,0.0,0.0,0.0,0.0,0.0,0.0,0.0,0.0,0.0,0.0,0.0,0.0,0.0,0.0,0.0,0.0,0.0,0.0,0.0,0.0,0.0,0.0,0.0,0.0,0.0,0.0,0.0,0.0,0.0,0.0,0.0,0.0,0.0,0.0,0.0,0.0,0.0,0.0,0.0,0.0,0.0,0.0,0.0,0.0,0.0,0.0,0.0,0.0,0.0,0.0,0.0,0.0,0.0,0.0,0.0,0.0,0.0,0.0,0.0,0.0,0.0,0.0,0.0,0.0,0.0,0.0,0.0,0.0,0.0,0.0,0.0,0.0,0.0,5.4115,5.9346,5.9543,5.9946,6.0642,5.6747,5.1644,0.0,0.0,0.0,0.0,0.0,0.0,0.0,0.0,0.0,0.0,0.0,0.0,0.0,0.0,0.0,0.0,0.0,0.0,0.0,0.0,0.0,0.0,0.0,0.0,0.0,0.0,0.0,0.0,0.0,0.0,0.0,0.0,0.0,0.0,0.0,0.0,0.0,0.0,0.0,0.0,0.0,0.0,0.0,0.0,0.0,0.0,0.0,0.0,0.0,0.0,0.0,0.0,0.0,0.0,0.0,0.0,0.0,0.0,0.0,0.0,0.0,0.0,0.0,0.0,0.0,0.0,0.0,0.0,0.0,0.0,0.0,0.0,0.0,0.0,0.0,0.0,0.0,0.0,0.0,0.0,0.0,0.0,0.0,0.0,0.0,0.0,0.0,0.0,0.0,0.0,0.0,0.0,0.0,0.0,0.0,0.0,0.0,0.0,0.0,0.0,0.0,0.0,0.0,0.0,0.0,0.0,0.0,0.0,5.5638,5.9385,6.0149,6.061,6.0781,5.6957,5.2946,0.0,0.0,0.0,0.0,0.0,0.0,0.0,0.0,0.0,0.0,0.0,0.0,0.0,0.0,0.0,0.0,0.0,0.0,0.0,0.0,0.0,0.0,0.0,0.0,0.0,0.0,0.0,0.0,0.0,0.0,0.0,0.0,0.0,0.0,0.0,0.0,0.0,0.0,0.0,0.0,0.0,0.0,0.0,0.0,0.0,0.0,0.0,0.0,3.0302,0.0,0.0,0.0,0.0,0.0,0.0,0.0,0.0,0.0,0.0,0.0,0.0,0.0,0.0,0.0,0.0,0.0,0.0,0.0,0.0,0.0,0.0,0.0,0.0,0.0,0.0,0.0,0.0,0.0,0.0,0.0,0.0,0.0,0.0,0.0,0.0,0.0,0.0,0.0,0.0,0.0,0.0,0.0,0.0,0.0,0.0,0.0,0.0,0.0,0.0,0.0,0.0,0.0,0.0,0.0,0.0,0.0,0.0,0.0,5.6319,5.9973,6.055,6.0781,6.0704,5.8807,5.5097,0.0,0.0,0.0,0.0,0.0,0.0,0.0,0.0,0.0,0.0,0.0,0.0,0.0,0.0,0.0,0.0,0.0,0.0,0.0,0.0,0.0,0.0,0.0,0.0,0.0,0.0,0.0,0.0,0.0,0.0,0.0,0.0,0.0,0.0,0.0,0.0,0.0,0.0,0.0,0.0,0.0,0.0,0.0,0.0,0.0,0.0,0.0,0.0,0.0,0.0,0.0,0.0,0.0,0.0,0.0,0.0,0.0,0.0,0.0,0.0,0.0,0.0,0.0,0.0,0.0,0.0,0.0,0.0,0.0,0.0,0.0,0.0,0.0,0.0,0.0,0.0,0.0,0.0,0.0,0.0,0.0,0.0,0.0,0.0,0.0,0.0,0.0,0.0,0.0,0.0,0.0,0.0,0.0,0.0,0.0,0.0,0.0,0.0,0.0,0.0,0.0,0.0,0.0,0.0,0.0,0.0,0.0,5.2972,5.6934,6.0973,6.1166,6.1166,6.1166,6.105,5.7355,4.9717,0.0,0.0,0.0,0.0,0.0,0.0,0.0,0.0,0.0,0.0,0.0,0.0,0.0,0.0,0.0,0.0,0.0,0.0,0.0,0.0,0.0,0.0,0.0,0.0,0.0,0.0,0.0,0.0,0.0,0.0,0.0,0.0,0.0,0.0,0.0,0.0,0.0,0.0,3.1846,3.5154,0.0,0.0,0.0,0.0,0.0,0.0,0.0,0.0,3.2814,0.0,0.0,0.0,0.0,0.0,0.0,0.0,0.0,0.0,0.0,0.0,0.0,0.0,0.0,0.0,0.0,0.0,0.0,0.0,0.0,0.0,0.0,0.0,0.0,0.0,0.0,0.0,0.0,0.0,0.0,0.0,0.0,0.0,0.0,0.0,0.0,0.0,0.0,0.0,0.0,0.0,0.0,0.0,0.0,0.0,0.0,0.0,0.0,0.0,0.0,0.0,0.0,0.0,0.0,0.0,0.0,5.4318,5.5857,5.8627,6.2781,6.2897,6.2897,6.2858,6.2243,5.8496,5.1491,0.0,0.0,0.0,0.0,0.0,0.0,0.0,0.0,0.0,0.0,0.0,0.0,0.0,0.0,0.0,0.0,0.0,0.0,0.0,0.0,0.0,0.0,0.0,0.0,0.0,0.0,0.0,0.0,0.0,0.0,0.0,0.0,0.0,0.0,0.0,0.0,0.0,0.0,0.0,4.0085,4.0923,0.0,0.0,0.0,0.0,0.0,0.0,0.0,0.0,3.3891,0.0,0.0,0.0,0.0,0.0,0.0,0.0,0.0,0.0,0.0,0.0,0.0,0.0,0.0,0.0,0.0,0.0,0.0,0.0,0.0,0.0,0.0,0.0,0.0,0.0,0.0,0.0,0.0,0.0,0.0,0.0,0.0,0.0,0.0,0.0,0.0,0.0,0.0,0.0,0.0,0.0,0.0,0.0,0.0,0.0,0.0,0.0,0.0,0.0,0.0,0.0,0.0,0.0,0.0,0.0,5.3059,5.7407,6.0819,6.3192,6.3308,6.3308,6.3269,6.1902,5.8004,0.0,0.0,0.0,0.0,0.0,0.0,0.0,0.0,0.0,0.0,0.0,0.0,0.0,0.0,0.0,0.0,0.0,0.0,0.0,0.0,0.0,0.0,0.0,0.0,0.0,0.0,0.0,0.0,0.0,0.0,0.0,0.0,0.0,0.0,0.0,0.0,0.0,0.0,0.0,0.0,4.3239,4.4085,4.4932,0.0,0.0,0.0,0.0,0.0,0.0,3.6238,3.5276,0.0,0.0,0.0,0.0,0.0,0.0,0.0,0.0,0.0,0.0,0.0,0.0,0.0,0.0,0.0,0.0,0.0,0.0,0.0,0.0,0.0,0.0,0.0,0.0,0.0,0.0,0.0,0.0,0.0,0.0,0.0,0.0,0.0,0.0,0.0,0.0,0.0,0.0,0.0,0.0,0.0,0.0,0.0,0.0,0.0,0.0,0.0,0.0,0.0,0.0,0.0,0.0,0.0,0.0,0.0,5.1318,5.8061,6.2243,6.3474,6.3551,6.3474,6.3269,6.1695,5.7728,0.0,0.0,0.0,0.0,0.0,0.0,0.0,0.0,0.0,0.0,0.0,0.0,0.0,0.0,0.0,0.0,0.0,0.0,0.0,0.0,0.0,0.0,0.0,0.0,0.0,0.0,0.0,0.0,0.0,0.0,0.0,0.0,0.0,0.0,0.0,0.0,0.0,0.0,0.0,0.0,0.0,4.6278,4.7394,4.4547,0.0,0.0,0.0,0.0,3.9969,3.9469,0.0,0.0,0.0,0.0,0.0,0.0,0.0,0.0,0.0,0.0,0.0,0.0,0.0,0.0,0.0,0.0,0.0,0.0,0.0,0.0,0.0,0.0,0.0,0.0,0.0,0.0,0.0,0.0,0.0,0.0,0.0,0.0,0.0,0.0,0.0,0.0,0.0,0.0,0.0,0.0,0.0,0.0,0.0,0.0,0.0,0.0,0.0,0.0,0.0,0.0,0.0,0.0,0.0,0.0,0.0,0.0,5.2818,5.7434,6.132,6.4282,6.4474,6.4089,6.332,6.3052,5.9192,0.0,0.0,0.0,0.0,0.0,0.0,0.0,0.0,0.0,0.0,0.0,0.0,0.0,0.0,0.0,0.0,0.0,0.0,0.0,0.0,0.0,0.0,0.0,0.0,0.0,0.0,0.0,0.0,0.0,0.0,0.0,0.0,0.0,0.0,0.0,0.0,0.0,0.0,0.0,0.0,0.0,4.6547,4.597,4.4816,4.4162,0.0,0.0,4.4355,4.6586,4.6855,0.0,0.0,0.0,0.0,0.0,0.0,0.0,0.0,0.0,0.0,0.0,0.0,0.0,0.0,0.0,0.0,0.0,0.0,0.0,0.0,0.0,0.0,0.0,0.0,0.0,0.0,0.0,0.0,0.0,0.0,0.0,0.0,0.0,0.0,0.0,0.0,0.0,0.0,0.0,0.0,0.0,0.0,0.0,0.0,0.0,0.0,0.0,0.0,0.0,0.0,0.0,0.0,0.0,0.0,0.0,4.9987,5.4626,6.0242,6.432,6.6628,6.582,6.5359,6.5436,6.3807,5.9496,0.0,0.0,0.0,0.0,0.0,0.0,0.0,0.0,0.0,0.0,0.0,0.0,0.0,0.0,0.0,0.0,0.0,0.0,0.0,0.0,0.0,0.0,0.0,0.0,0.0,0.0,0.0,0.0,0.0,0.0,0.0,0.0,0.0,0.0,0.0,0.0,0.0,0.0,0.0,0.0,0.0,0.0,5.1058,4.9365,0.0,0.0,0.0,4.724,4.7394,0.0,0.0,0.0,0.0,0.0,0.0,0.0,0.0,0.0,0.0,0.0,0.0,0.0,0.0,0.0,0.0,0.0,0.0,0.0,0.0,0.0,0.0,0.0,0.0,0.0,0.0,0.0,0.0,0.0,0.0,0.0,0.0,0.0,0.0,0.0,0.0,0.0,0.0,0.0,0.0,0.0,0.0,0.0,0.0,0.0,0.0,0.0,0.0,0.0,0.0,0.0,0.0,0.0,0.0,0.0,0.0,0.0,5.5742,6.2627,6.6705,6.7667,6.632,6.5743,6.609,6.4214,0.0,0.0,0.0,0.0,0.0,0.0,0.0,0.0,0.0,0.0,0.0,0.0,0.0,0.0,0.0,0.0,0.0,0.0,0.0,0.0,0.0,0.0,0.0,0.0,0.0,0.0,0.0,2.7038,0.0,0.0,0.0,0.0,0.0,0.0,0.0,0.0,0.0,0.0,0.0,0.0,0.0,0.0,5.0202,5.4203,5.3126,5.2097,0.0,0.0,5.0394,4.9548,5.0471,4.9933,0.0,0.0,0.0,0.0,0.0,0.0,0.0,0.0,0.0,0.0,0.0,0.0,0.0,0.0,0.0,0.0,0.0,0.0,0.0,0.0,0.0,0.0,0.0,0.0,0.0,0.0,0.0,0.0,0.0,0.0,0.0,0.0,0.0,0.0,0.0,0.0,0.0,0.0,0.0,0.0,0.0,0.0,0.0,0.0,0.0,0.0,0.0,0.0,0.0,0.0,0.0,0.0,0.0,0.0,5.3067,5.5818,6.3166,6.6744,6.609,6.5166,6.432,6.3628,6.418,6.0468,0.0,0.0,0.0,0.0,0.0,0.0,0.0,0.0,0.0,0.0,0.0,0.0,0.0,0.0,0.0,0.0,0.0,0.0,0.0,0.0,0.0,0.0,0.0,0.0,0.0,0.0,0.0,0.0,0.0,0.0,0.0,0.0,0.0,0.0,0.0,0.0,0.0,0.0,0.0,0.0,0.0,4.8308,5.1692,5.401,5.5934,0.0,5.5742,5.4664,5.606,5.6368,5.3751,4.5701,0.0,0.0,0.0,0.0,0.0,0.0,0.0,0.0,0.0,0.0,0.0,0.0,0.0,0.0,0.0,0.0,0.0,0.0,0.0,0.0,0.0,0.0,0.0,0.0,0.0,0.0,0.0,0.0,0.0,0.0,0.0,0.0,0.0,0.0,0.0,0.0,0.0,0.0,0.0,0.0,0.0,0.0,0.0,0.0,0.0,0.0,0.0,0.0,0.0,0.0,0.0,0.0,0.0,5.3508,5.7319,6.4282,6.8244,6.8898,6.7667,6.7,6.7244,6.6551,6.3091,0.0,0.0,0.0,0.0,0.0,0.0,0.0,0.0,0.0,0.0,0.0,0.0,0.0,0.0,0.0,0.0,0.0,0.0,0.0,0.0,0.0,0.0,0.0,0.0,0.0,0.0,0.0,0.0,3.8238,3.9392,3.8661,0.0,0.0,0.0,0.0,0.0,0.0,0.0,0.0,0.0,0.0,5.4972,5.778,5.9011,0.0,0.0,5.8127,5.7049,5.7703,5.6472,5.401,4.9663,4.7855,0.0,0.0,0.0,0.0,0.0,0.0,0.0,0.0,0.0,0.0,0.0,0.0,0.0,0.0,0.0,0.0,0.0,0.0,0.0,0.0,0.0,0.0,0.0,0.0,0.0,0.0,3.8963,3.9251,0.0,0.0,0.0,0.0,0.0,0.0,0.0,0.0,0.0,0.0,0.0,0.0,0.0,0.0,0.0,0.0,0.0,0.0,0.0,0.0,0.0,0.0,0.0,0.0,5.4503,5.8269,6.5474,6.959,7.0514,6.9129,6.8706,6.9244,6.7859,6.482,6.0012,0.0,0.0,0.0,0.0,0.0,0.0,0.0,0.0,0.0,0.0,0.0,0.0,0.0,0.0,0.0,0.0,0.0,0.0,0.0,0.0,0.0,0.0,0.0,0.0,0.0,0.0,0.0,4.0699,4.1585,4.0593,0.0,0.0,0.0,0.0,0.0,0.0,0.0,0.0,0.0,0.0,5.9973,6.2486,6.2627,6.2166,6.132,5.955,5.8127,5.7588,5.6857,5.5472,5.2741,0.0,0.0,0.0,0.0,0.0,0.0,0.0,0.0,0.0,0.0,0.0,0.0,0.0,0.0,0.0,0.0,0.0,0.0,0.0,0.0,0.0,0.0,0.0,0.0,0.0,0.0,0.0,4.1216,0.0,0.0,4.2621,0.0,0.0,0.0,0.0,0.0,0.0,0.0,0.0,0.0,0.0,0.0,0.0,0.0,0.0,0.0,0.0,0.0,0.0,0.0,0.0,0.0,0.0,5.6165,5.8346,6.6538,7.0475,6.9783,6.8859,6.8462,6.8513,6.759,6.514,6.0858,0.0,0.0,0.0,0.0,0.0,0.0,0.0,0.0,0.0,0.0,0.0,0.0,0.0,0.0,0.0,0.0,0.0,0.0,0.0,0.0,0.0,0.0,0.0,0.0,0.0,0.0,3.5529,3.7731,3.9746,0.0,0.0,0.0,0.0,0.0,0.0,0.0,0.0,0.0,5.5808,5.9088,6.1743,6.4243,6.3897,6.3243,6.2358,6.0089,5.7857,5.6357,5.8588,5.8973,0.0,0.0,0.0,0.0,0.0,0.0,0.0,0.0,0.0,0.0,0.0,0.0,0.0,0.0,0.0,0.0,0.0,0.0,0.0,0.0,0.0,0.0,0.0,0.0,0.0,0.0,0.0,4.7671,4.7193,0.0,0.0,0.0,0.0,0.0,0.0,0.0,0.0,0.0,0.0,0.0,6.4205,6.5051,0.0,0.0,0.0,0.0,0.0,0.0,0.0,0.0,0.0,0.0,0.0,0.0,5.5681,5.8872,6.6383,7.0409,7.0462,7.0206,7.0321,7.0898,7.0052,6.6859,6.0973,0.0,0.0,0.0,0.0,0.0,0.0,0.0,0.0,0.0,0.0,0.0,0.0,0.0,0.0,0.0,0.0,0.0,0.0,0.0,0.0,0.0,0.0,0.0,0.0,0.0,3.9591,0.0,0.0,0.0,0.0,0.0,0.0,0.0,0.0,0.0,0.0,5.1856,5.6857,5.9973,6.4512,6.7821,6.8667,6.9052,6.8898,0.0,0.0,0.0,0.0,0.0,0.0,0.0,0.0,0.0,0.0,0.0,0.0,0.0,5.6742,5.6472,4.8355,4.6624,4.6278,4.574,0.0,0.0,0.0,0.0,0.0,0.0,0.0,0.0,0.0,0.0,0.0,0.0,0.0,0.0,5.4261,5.3445,5.3139,5.1721,0.0,0.0,0.0,0.0,0.0,0.0,0.0,6.9052,7.0898,7.1206,7.1975,7.0898,6.8167,6.6436,6.232,0.0,0.0,0.0,0.0,0.0,0.0,0.0,0.0,5.7191,6.0704,6.7332,7.0769,7.0622,7.0791,7.1168,7.1706,7.0937,6.8398,6.4051,6.1627,5.9127,0.0,0.0,0.0,0.0,0.0,0.0,0.0,0.0,0.0,0.0,0.0,0.0,0.0,0.0,0.0,0.0,0.0,0.0,0.0,0.0,0.0,0.0,0.0,4.2438,0.0,0.0,0.0,0.0,0.0,0.0,0.0,0.0,0.0,5.1818,5.8011,6.3435,6.5743,6.936,7.1822,7.1822,0.0,0.0,0.0,0.0,0.0,0.0,0.0,6.332,6.4166,6.2281,6.0396,5.9742,6.2935,6.4974,6.2947,0.0,0.0,5.6857,5.4857,5.4675,5.4675,5.5318,5.5742,5.5511,5.7049,5.8396,0.0,0.0,0.0,0.0,5.8731,0.0,0.0,0.0,6.1358,6.0858,0.0,5.9192,0.0,0.0,0.0,0.0,6.2755,6.9052,0.0,0.0,7.8284,8.0169,8.0669,7.8361,7.7284,7.7207,7.5438,7.2552,6.8282,6.0358,5.4395,0.0,0.0,0.0,0.0,0.0,6.0724,6.3816,6.9198,7.1413,7.0183,7.0637,7.0898,7.0975,7.0321,6.986,6.9513,6.5051,6.237,6.1985,5.3472,0.0,0.0,0.0,0.0,0.0,0.0,0.0,0.0,0.0,0.0,0.0,0.0,0.0,0.0,0.0,0.0,0.0,0.0,0.0,0.0,4.4013,0.0,0.0,0.0,0.0,0.0,0.0,0.0,0.0,0.0,6.3012,5.9165,6.3089,6.7936,7.2591,0.0,0.0,0.0,0.0,6.9898,6.9898,6.7782,6.6013,6.5205,6.7628,6.9398,6.8769,0.0,0.0,6.582,6.9013,7.095,6.7013,7.0244,7.2014,6.7013,6.4012,6.2524,6.2447,6.1897,6.155,6.237,6.4282,6.6128,6.8898,0.0,0.0,0.0,0.0,6.6936,6.9321,7.3283,7.1475,7.0244,6.9436,6.859,0.0,0.0,0.0,0.0,0.0,0.0,7.5053,7.6938,7.8284,7.9323,8.0169,7.9438,7.8746,7.813,7.763,7.6476,7.4668,7.1668,6.4205,5.2741,0.0,0.0,0.0,0.0,6.2057,6.4378,6.8164,7.0132,7.0112,7.0622,7.1206,7.1822,7.2783,7.2437,7.0629,6.9744,6.7321,6.3128,5.9281,0.0,0.0,0.0,0.0,0.0,0.0,0.0,0.0,0.0,0.0,0.0,0.0,0.0,0.0,0.0,0.0,0.0,0.0,0.0,4.1864,4.6336,4.8629,0.0,0.0,0.0,0.0,0.0,0.0,0.0,0.0,0.0,6.6474,6.9783,7.1822,0.0,0.0,7.4207,7.1206,7.2206,7.3091,7.25,7.2283,0.0,7.186,7.1091,7.1321,7.3476,7.4437,7.4399,7.2976,7.3937,7.4514,7.3206,7.4284,7.4745,7.3437,7.1552,7.0244,7.0206,7.0014,6.9937,7.0244,7.0898,7.1321,7.6899,7.3413,7.0744,7.0898,7.286,7.2783,7.513,7.8938,7.7746,7.713,7.6938,7.5707,7.3591,7.086,7.0706,0.0,0.0,0.0,7.8669,8.0323,8.0823,8.1323,8.1785,8.1477,8.0862,8.0015,8.0015,7.9246,7.7784,7.6938,7.086,6.0127,0.0,6.0467,5.8489,6.1777,6.4613,6.6843,6.8804,7.0095,7.0763,7.1544,7.2206,7.2706,7.3707,7.3514,7.2014,7.2091,7.0514,6.6974,6.3935,6.0935,0.0,0.0,0.0,0.0,0.0,0.0,0.0,0.0,0.0,0.0,0.0,4.3282,3.9205,0.0,0.0,0.0,4.8159,4.8896,5.038,5.3881,0.0,0.0,0.0,0.0,0.0,0.0,0.0,6.5205,6.8975,7.1668,7.3053,7.4938,7.5207,7.2552,7.4399,7.4938,7.2091,0.0,7.4938,7.4077,7.4668,7.5207,7.5207,7.4207,7.4168,7.6169,7.6207,7.6015,7.5976,7.5976,7.5976,7.5976,7.5976,7.5976,7.5976,7.5168,7.4514,7.4476,7.4207,7.3976,7.3976,7.3745,7.3437,8.3632,8.317,7.7015,7.5322,7.6746,7.763,7.8861,8.0362,8.117,8.19,8.2477,8.09,7.9746,7.8784,7.7361,0.0,7.9015,8.1477,8.3362,8.4786,8.4863,8.4863,8.4747,8.3939,8.317,8.2401,8.2401,8.1131,7.8746,7.79,7.5091,7.0475,6.9475,6.8398,6.7231,6.6881,6.7992,7.0537,7.055,7.1007,7.1962,7.3029,7.3664,7.3692,7.3783,7.3745,7.3577,7.2822,7.2322,7.2052,6.7667,6.4051,6.1666,0.0,0.0,0.0,0.0,0.0,0.0,0.0,0.0,0.0,0.0,0.0,0.0,0.0,0.0,5.4597,6.0519,0.0,6.4282,6.3858,0.0,0.0,0.0,5.8004,5.9453,6.4245,6.8112,7.0032,0.0,0.0,7.8316,7.8431,7.7869,7.6399,7.6207,7.5784,7.4668,7.5284,7.5668,7.4668,7.5322,7.5861,7.5745,7.6322,7.6823,7.713,7.6553,7.6015,7.5976,7.5861,7.5899,7.5707,7.5822,7.5861,7.5899,7.5822,7.5976,7.5784,7.5207,7.4668,7.463,7.4053,7.3322,8.3978,8.4439,8.2862,8.2401,8.2862,8.367,8.4247,8.4632,8.4824,8.5016,8.5132,8.4132,8.3208,8.2401,8.267,8.2631,8.2477,8.4362,8.4709,8.3978,8.4593,8.4555,8.3901,8.367,8.3478,8.3285,8.3285,8.2324,8.0477,7.9631,7.8284,7.6438,7.4899,7.2168,6.8294,6.969,7.0793,7.1463,7.1043,7.1658,7.3326,7.4267,7.4922,7.5385,7.6053,7.5784,7.4476,7.4207,7.3514,7.2245,7.0398,6.9129,6.8436,5.9781,0.0,0.0,0.0,0.0,0.0,0.0,0.0,0.0,0.0,5.1721,4.6599,0.0,5.4243,0.0,6.7564,6.8513,6.232,6.4397,0.0,0.0,6.3135,6.3757,7.0331,7.0173,7.0969,7.4647,7.6107,7.7088,7.7719,7.7811,7.7875,7.7893,7.79,7.6669,7.3476,7.4668,7.5476,7.4245,7.4553,7.5014,7.513,7.5745,7.6553,7.7207,7.6592,7.6015,7.5976,7.5438,7.4822,7.4284,7.463,7.4976,7.5053,7.5553,7.5707,7.5168,7.4822,7.4707,7.4707,7.4053,7.3423,8.5016,8.5478,8.5824,8.5786,8.544,8.5555,8.5786,8.6094,8.5747,8.5978,8.6671,8.6209,8.5324,8.4286,8.5055,8.517,8.4786,8.567,8.5593,8.4747,8.5209,8.517,8.4709,8.4709,8.4709,8.4709,8.4709,8.3632,8.1708,8.117,8.0092,7.8515,7.7291,7.5299,7.2608,7.2395,7.2142,7.1744,7.1953,7.2866,7.454,7.5323,7.5625,7.55,7.6976,7.6861,7.4784,7.4835,7.3875,7.1731,7.0191,6.9165,6.8615,6.3243,6.0704,0.0,0.0,0.0,0.0,0.0,0.0,0.0,0.0,0.0,0.0,0.0,5.9473,6.2666,7.036,7.2366,6.5552,6.8731,7.1274,7.135,6.9489,7.027,7.5297,7.4228,7.4199,7.6904,7.7229,7.7515,7.818,7.8297,7.8458,7.8752,7.8502,7.7232,7.4711,7.5476,7.5976,7.4361,7.4745,7.5438,7.5784,7.5938,7.6284,7.7015,7.6553,7.5976,7.5976,7.5592,7.513,7.4745,7.4976,7.5284,7.5284,7.5284,7.5245,7.4784,7.4091,7.3783,7.4091,7.3808,7.3437,8.6517,8.6671,8.7401,8.7325,8.6709,8.5796,8.5681,8.6055,8.5363,8.5863,8.7209,8.7248,8.6368,8.501,8.5753,8.606,8.5971,8.5971,8.6005,8.6077,8.6026,8.6026,8.6094,8.6094,8.617,8.6247,8.6055,8.4824,8.267,8.2324,8.1,7.8769,7.7962,7.7551,7.736,7.4729,7.2972,7.2124,7.298,7.411,7.5485,7.6102,7.6008,7.5332,7.7438,7.763,7.55,7.548,7.4375,7.1832,6.9705,6.809,6.7115,6.709,6.5397,0.0,6.1666,0.0,0.0,0.0,0.0,0.0,0.0,0.0,0.0,6.6628,6.5974,6.2324,7.1247,7.5446,7.1251,7.4162,7.6366,7.6504,7.603,7.5946,7.6639,7.6832,7.7236,7.8049,7.8162,7.8449,7.9284,7.9383,7.9383,7.9343,7.8971,7.8078,7.6711,7.6755,7.6502,7.5062,7.563,7.6438,7.7092,7.6707,7.6515,7.7169,7.663,7.6015,7.5976,7.5861,7.5745,7.563,7.5592,7.5745,7.5822,7.5284,7.4899,7.4707,7.3553,7.2783,7.3168,7.3129,7.2937,8.8594,8.921,8.9363,8.9748,9.0136,8.8729,8.737,8.6094,8.594,8.6055,8.6324,8.6363,8.5887,8.513,8.5769,8.5772,8.5282,8.53,8.557,8.6077,8.5532,8.557,8.6077,8.6094,8.6478,8.7055,8.5747,8.4863,8.4362,8.2324,8.08,7.9761,7.8332,7.7338,7.6857,0.0,0.0,0.0,7.3665,7.4038,7.5441,7.6082,7.6849,7.7769,7.8938,0.0,7.8846,7.8208,7.7324,7.613,7.498,0.0,7.3038,0.0,0.0,0.0,0.0,0.0,0.0,0.0,0.0,0.0,6.8936,6.859,6.8859,7.3245,7.3996,6.919,7.342,7.6275,7.5539,7.5556,7.5685,7.5742,7.6305,7.68,7.6961,7.7691,7.8537,7.9342,7.9416,7.9652,8.0179,8.041,8.0286,8.005,8.045,8.0007,7.8484,7.7335,7.642,7.5902,7.6515,7.7323,7.813,7.7553,7.7323,7.7861,7.6976,7.613,7.6015,7.5476,7.4745,7.4284,7.4514,7.5014,7.5014,7.5361,7.5438,7.4861,7.3899,7.3091,7.2552,7.1898,7.1321,8.894,8.9325,8.9325,8.9556,0.0,8.8744,8.7745,8.6815,8.6482,8.6358,8.6358,8.6358,8.6149,8.5865,8.6192,8.6171,8.5842,8.5842,8.6192,8.6777,8.6149,8.64,8.7363,8.6581,8.6637,8.7325,8.6094,8.513,8.4381,8.3137,8.192,8.0813,7.9691,7.8986,7.8666,7.7984,7.6699,7.4918,7.4698,7.5259,7.6708,7.7736,7.8168,7.7962,7.9939,0.0,0.0,0.0,0.0,0.0,0.0,0.0,0.0,7.0206,6.8744,6.9538,6.7323,6.649,6.7602,6.7875,6.9879,7.4308,7.5165,7.4577,7.2563,7.4851,7.5266,7.2649,7.4905,7.6452,7.629,7.6254,7.6319,7.6372,7.6505,7.6688,7.7111,7.762,7.8295,7.9029,7.9213,7.9326,7.9616,7.9675,7.9422,7.8962,7.8749,7.8626,7.8127,7.8084,7.7911,7.737,7.7553,7.8015,7.8376,7.8207,7.7977,7.8246,7.7784,7.713,7.6707,7.6284,7.5707,7.4976,7.5091,7.5322,7.5322,7.5399,7.5207,7.4745,7.4053,7.3437,7.286,7.1822,7.0898,8.9133,8.9133,8.9133,8.9133,8.9098,8.8221,8.7733,8.7464,8.6883,0.0,0.0,8.6618,8.6541,8.6463,8.6529,8.6503,8.6437,8.6399,8.6781,8.7382,8.6732,8.7155,8.8398,8.7003,8.6717,8.7397,8.6282,8.511,8.3967,8.368,8.2785,8.1507,8.0939,8.0656,8.0505,8.0014,7.8378,7.5875,7.6047,7.6689,7.7787,7.9049,7.8919,7.7243,8.0257,8.0597,7.7946,7.9462,7.9288,7.6985,7.496,7.3778,7.3524,7.1982,7.2016,7.3998,7.367,7.3621,7.4204,7.4476,7.5432,7.7303,7.8733,7.8517,7.597,7.5439,7.5072,7.4845,7.6004,7.6566,7.6101,7.6557,7.6968,7.7072,7.6644,7.6607,7.7231,7.7457,7.7965,7.8626,7.8883,7.8809,7.8914,7.8914,7.8479,7.7702,7.7452,7.6823,7.7412,7.8438,7.8903,7.8551,7.8592,7.8784,7.8938,7.8823,7.8746,7.8784,7.8592,7.8246,7.7707,7.753,7.7169,7.6322,7.6245,7.6169,7.5976,7.5476,7.4938,7.4938,7.4284,7.3692,7.3577,7.2476,7.1437,9.0825,9.0864,9.0864,9.0864,9.0754,8.9421,8.8214,8.7073,8.6742,8.6618,8.6618,8.6618,8.6304,8.5786,8.632,8.6304,8.5757,8.5728,8.6114,8.6682,8.6059,8.6451,8.7663,8.676,8.6781,8.7419,8.5319,8.4191,8.3994,8.2652,8.152,8.0895,8.073,8.0436,8.0008,8.0382,8.007,7.8843,7.7847,7.721,7.6912,7.7582,7.7586,7.6949,7.9149,8.022,7.9762,8.0524,8.0799,8.04,7.9377,7.8762,7.8692,7.7241,7.6651,7.6977,7.6452,7.6479,7.7209,7.7332,7.7483,7.7754,7.7625,7.7828,7.855,7.8565,7.8066,7.7,7.6892,7.7057,7.7024,7.6567,7.6346,7.638,7.6827,7.7163,7.731,7.7965,7.8662,7.9433,7.9617,7.9617,7.9617,7.9617,7.9323,7.8682,7.8537,7.8932,7.8703,7.828,7.8274,7.8748,7.9275,7.9908,8.0238,8.0054,7.9669,7.9631,7.9054,7.8631,7.8415,7.8361,7.8054,7.7246,7.713,7.6861,7.6284,7.5938,7.5861,7.5822,7.5168,7.4668,7.4553,7.3745,7.286,9.121,9.121,9.121,9.0971,9.0488,8.9148,8.7985,8.7024,8.6868,8.6801,8.6838,8.6801,8.6623,8.6412,8.6685,8.6654,8.6348,8.6348,8.6486,8.6752,8.6499,8.6607,8.7014,8.6291,8.6127,8.6335,8.4856,8.3923,8.3618,8.2864,8.2146,8.1568,8.1507,8.1138,8.0588,8.1429,8.1334,8.0199,7.9848,7.9143,7.8104,7.9122,7.9143,7.8104,7.9567,8.0262,8.0105,8.0848,8.1423,8.1731,8.0977,8.0477,8.0462,7.8665,7.7627,7.7551,7.6746,7.6539,7.7206,7.7643,7.8119,7.8534,7.8066,7.7995,7.8641,7.7547,7.6588,7.611,7.6301,7.6581,7.6674,7.6717,7.6754,7.6754,7.709,7.7273,7.7384,7.8075,7.8919,7.9653,8.0167,8.0424,8.0424,8.0461,8.0131,7.9428,7.951,7.9607,7.954,7.9416,7.916,7.9161,7.9553,8.006,8.0514,8.0603,8.0484,8.0516,8.0169,7.9746,7.9361,7.9208,7.8823,7.813,7.7938,7.7823,7.7361,7.7361,7.7207,7.6707,7.6438,7.6015,7.5515,7.4745,7.3745,9.121,9.121,9.121,9.0762,8.9968,8.8663,8.7773,8.7228,8.6877,8.6848,8.6995,8.7031,8.7031,8.7031,8.7031,8.7031,8.7031,8.7031,8.6852,8.666,8.6709,8.6634,8.6406,8.5685,8.5293,8.5094,8.4355,8.3651,8.3053,8.2965,8.2739,8.2251,8.2186,8.1953,8.155,8.2623,8.2511,8.1319,8.1717,8.117,7.9636,8.0791,8.0769,7.9516,8.0117,8.0499,8.0514,8.1248,8.186,8.2253,8.1708,8.1285,8.1023,7.9111,7.7948,7.7848,7.6804,7.6431,7.7105,7.7891,7.8629,7.9267,7.8911,7.8657,7.8489,7.7039,7.5836,7.5616,7.6307,7.6747,7.6864,7.7451,7.7892,7.7892,7.7855,7.7965,7.7965,7.8479,7.9066,7.9764,8.0351,8.0718,8.0718,8.0755,8.0424,7.9874,7.9832,7.9832,7.9858,8.0237,8.0107,7.9766,7.9948,8.0576,8.0619,8.1093,8.1409,8.1391,8.1362,8.0939,8.0362,8.0092,7.9746,7.9054,7.8784,7.8631,7.8554,7.8453,7.8169,7.7669,7.7476,7.7246,7.6438,7.563,7.4476,9.121,9.121,9.1154,9.0762,8.9923,8.8608,8.8015,8.7756,8.6557,8.6334,8.6995,8.7031,8.6995,8.7031,8.6995,8.6995,8.6995,8.6995,8.6586,8.5989,8.5925,8.5835,8.5587,8.4866,8.4522,8.4413,8.3676,8.2965,8.2375,8.2311,8.2284,8.2186,8.2186,8.246,8.2962,8.3686,8.3601,8.2723,8.3357,8.2642,8.0736,8.1307,8.1053,7.9787,8.0337,8.0949,8.1396,8.2146,8.2454,8.2314,8.2247,8.1862,8.109,7.9814,7.9063,7.9018,7.7858,7.75,7.8363,7.9173,7.9633,7.9756,7.9682,7.959,7.959,7.9423,7.8626,7.7598,7.7892,7.8295,7.8405,7.9029,7.9396,7.9323,7.9396,7.9543,7.947,7.9617,7.9727,7.9795,8.0057,7.9942,8.0167,8.0204,8.0057,8.0094,8.0094,8.0094,8.0089,8.0147,8.0198,8.0096,8.0688,8.1551,8.1977,8.2375,8.2224,8.2155,8.2208,8.1753,8.1199,8.0907,8.0708,7.99,7.9669,7.9438,7.8938,7.853,7.8592,7.8477,7.8323,7.8092,7.7323,7.6476,7.5322,9.0971,9.0566,9.0528,8.9916,8.8856,8.7861,8.7423,8.739,8.6798,8.6701,8.6995,8.7031,8.6738,8.6297,8.6297,8.6297,8.6297,8.6297,8.5857,8.5196,8.5563,8.4993,8.3693,8.3767,8.3582,8.3096,8.2764,8.2465,8.2251,8.2186,8.2186,8.2186,8.2186,8.2343,8.2647,8.3275,8.341,8.3099,8.3761,8.3451,8.2277,8.1489,8.0712,7.9915,8.0032,8.0427,8.1099,8.1712,8.2167,8.2453,8.283,8.2748,8.203,8.116,8.0502,8.0088,7.9261,7.8919,7.9286,7.9617,7.9832,7.9832,7.9832,7.9832,7.9832,7.9832,7.9433,7.8993,7.9103,7.9323,7.9323,7.9617,7.9832,7.9832,7.9832,7.9832,7.9832,8.0241,8.0498,8.0534,8.0901,8.1195,8.1195,8.1195,8.1232,8.1232,8.1195,8.1122,8.1158,8.1195,8.1232,8.1291,8.1673,8.1699,8.1696,8.2168,8.2271,8.2182,8.2562,8.2699,8.1566,8.1618,8.1516,8.0692,8.0484,8.0369,8.0208,7.9977,7.9939,7.9515,7.8707,7.8376,7.8068,7.7361,7.6476,9.0467,8.9855,8.9645,8.9122,8.8309,8.7394,8.7132,8.7228,8.6841,8.6701,8.6701,8.6921,8.6554,8.5894,8.6004,8.6004,8.5783,8.5783,8.5233,8.4425,8.4903,8.4058,8.2406,8.2774,8.2774,8.2333,8.2476,8.2517,8.2517,8.2517,8.2406,8.2223,8.2186,8.2316,8.2528,8.3132,8.3461,8.3543,8.4129,8.4054,8.3172,8.2006,8.1103,8.052,8.0461,8.0727,8.1382,8.1852,8.2373,8.2945,8.3425,8.3438,8.2894,8.2162,8.1332,8.0551,8.0254,8.0131,8.0131,8.0314,8.0461,8.0461,8.0461,8.0461,8.0461,8.0424,8.0461,8.0461,8.0424,8.0424,8.0131,8.0314,8.0424,8.0424,8.0461,8.0461,8.0498,8.1012,8.1342,8.1379,8.1746,8.2186,8.2186,8.2113,8.2076,8.2076,8.2113,8.2186,8.2186,8.2113,8.2113,8.2186,8.2182,8.2018,8.1549,8.2171,8.2425,8.2331,8.2825,8.2817,8.1621,8.1805,8.1883,8.0864,8.0946,8.092,8.0731,8.0862,8.0923,8.0246,7.9515,7.8938,7.8861,7.8169,7.7746,8.9763,8.9095,8.8446,8.8503,8.8937,8.7549,8.7394,8.783,8.6594,8.5894,8.604,8.6775,8.6591,8.5894,8.6554,8.6518,8.5857,8.5673,8.4903,8.3618,8.3581,8.3104,8.2223,8.226,8.226,8.237,8.303,8.3361,8.3361,8.3361,8.2957,8.226,8.226,8.2565,8.309,8.3752,8.4142,8.4242,8.4727,8.449,8.3405,8.3134,8.2683,8.2123,8.2039,8.2276,8.2888,8.3069,8.331,8.3801,8.3844,8.3792,8.3487,8.2412,8.1237,8.0186,8.0566,8.0938,8.1048,8.1562,8.1966,8.2003,8.1893,8.2003,8.1856,8.1856,8.1856,8.2003,8.1856,8.1636,8.1122,8.1452,8.1856,8.1893,8.1966,8.1966,8.2003,8.1893,8.2113,8.2076,8.2113,8.2186,8.2186,8.2186,8.2186,8.2186,8.2186,8.2186,8.2186,8.2186,8.2186,8.2186,8.2251,8.2365,8.2875,8.2974,8.2954,8.281,8.2698,8.2737,8.1812,8.1141,8.1138,8.0936,8.06,8.062,8.0948,8.1077,8.1023,8.0638,8.0246,7.9823,7.9746,7.9015,7.8554,8.9095,8.8388,8.7678,8.7554,8.7672,8.7197,8.7129,8.7361,8.7389,8.6738,8.6224,8.7729,8.7802,8.6591,8.6885,8.6554,8.5747,8.4756,8.3948,8.3434,8.3434,8.2994,8.2296,8.27,8.2994,8.3104,8.3801,8.4168,8.4168,8.4168,8.3765,8.3104,8.2994,8.3084,8.3392,8.4,8.4508,8.4946,8.5177,8.502,8.4472,8.4054,8.3515,8.2883,8.2439,8.2279,8.256,8.2965,8.3284,8.3425,8.4218,8.4466,8.3948,8.3125,8.2267,8.1497,8.1599,8.1746,8.1782,8.2003,8.2186,8.2186,8.2186,8.2186,8.2186,8.2186,8.2186,8.2186,8.2186,8.2003,8.1929,8.2039,8.2186,8.2186,8.2186,8.2186,8.2186,8.2186,8.2186,8.2186,8.2186,8.2186,8.2296,8.2186,8.2186,8.2186,8.2186,8.226,8.2223,8.2186,8.2296,8.2223,8.2186,8.2284,8.2465,8.2928,8.3125,8.2948,8.2827,8.274,8.2155,8.1946,8.1948,8.1021,8.0491,8.0206,8.0542,8.0581,8.0616,8.0795,8.0443,8.0382,8.0631,7.9792,7.9423,8.8123,8.7678,8.7197,8.7031,8.7031,8.7031,8.7178,8.7435,8.7949,8.7582,8.7105,8.8867,8.8904,8.7582,8.7399,8.6775,8.5673,8.4168,8.3287,8.303,8.303,8.2847,8.2737,8.3141,8.3544,8.3875,8.4609,8.4976,8.4976,8.4976,8.4572,8.3838,8.3801,8.3801,8.393,8.4644,8.536,8.5738,8.5947,8.604,8.5842,8.4984,8.4317,8.3842,8.2994,8.2407,8.2219,8.2647,8.2994,8.3266,8.4054,8.4287,8.3876,8.3433,8.2876,8.2279,8.2186,8.2186,8.2186,8.2186,8.2186,8.2186,8.2186,8.2186,8.2186,8.2186,8.2186,8.2223,8.248,8.259,8.2663,8.281,8.2774,8.2333,8.2186,8.2186,8.2223,8.2443,8.2737,8.2994,8.3067,8.303,8.2957,8.2994,8.303,8.2957,8.2957,8.2994,8.2957,8.2957,8.2957,8.2957,8.3067,8.2957,8.2941,8.3176,8.2985,8.2769,8.2615,8.2607,8.2538,8.2488,8.214,8.1156,8.0543,8.019,8.0028,8.0065,8.0253,8.0598,8.0476,8.0322,8.0443,8.0514,8.0168,8.7029,8.7064,8.7031,8.7031,8.7031,8.7105,8.7472,8.7876,8.8206,8.8059,8.7692,8.9711,8.9528,8.8316,8.7912,8.7252,8.571,8.4058,8.292,8.2333,8.2296,8.27,8.3254,8.3471,8.4022,8.4756,8.5453,8.5783,8.5783,8.5783,8.538,8.4756,8.4609,8.4609,8.4609,8.5834,8.6543,8.6704,8.7152,8.7503,8.7475,8.6133,8.5355,8.521,8.4104,8.3061,8.2325,8.2288,8.2523,8.3082,8.3246,8.3246,8.3266,8.3218,8.2876,8.2311,8.2186,8.2186,8.2186,8.2186,8.2186,8.2223,8.2223,8.2296,8.2223,8.2333,8.2406,8.2443,8.2994,8.3434,8.3508,8.3985,8.3838,8.259,8.248,8.248,8.2517,8.2957,8.3691,8.4242,8.4352,8.4535,8.4535,8.4315,8.4242,8.4242,8.4278,8.4278,8.4205,8.4205,8.4425,8.4425,8.4168,8.3838,8.3618,8.3361,8.2916,8.2545,8.2385,8.2318,8.2227,8.2147,8.1941,8.1157,8.0526,8.0217,8.033,8.0311,8.0226,8.0412,8.0283,8.0334,8.0335,8.0428,8.0651,8.7031,8.7031,8.7031,8.7031,8.7105,8.7582,8.7399,8.6811,8.8243,8.7802,8.6628,8.916,8.9417,8.7766,8.7362,8.6811,8.5637,8.3618,8.2443,8.226,8.2223,8.2663,8.3434,8.3985,8.4939,8.6077,8.6481,8.6628,8.6591,8.6628,8.6224,8.5563,8.5416,8.5416,8.5518,8.6742,8.7461,8.755,8.8535,8.893,8.8439,8.7845,8.7152,8.6265,8.5748,8.4806,8.3129,8.2517,8.2316,8.2528,8.2935,8.3189,8.3189,8.3189,8.2876,8.2279,8.2186,8.2186,8.2186,8.2223,8.226,8.2296,8.27,8.27,8.2443,8.3214,8.3508,8.3214,8.3765,8.4242,8.4278,8.4425,8.4389,8.3911,8.3838,8.3765,8.3801,8.4058,8.4315,8.4535,8.4609,8.4609,8.4609,8.4646,8.4756,8.4719,8.4719,8.4719,8.4682,8.4792,8.4609,8.4609,8.4572,8.4682,8.4389,8.4132,8.3801,8.3141,8.27,8.2296,8.2113,8.1998,8.1713,8.1365,8.0751,8.0467,8.059,8.0559,8.0477,8.048,8.0612,8.0545,8.0384,8.0435,8.0602,8.7031,8.7031,8.7031,8.7031,8.7105,8.7839,8.7472,8.6664,8.85,8.8096,8.6921,8.8904,8.916,8.7729,8.7435,8.6811,8.571,8.4132,8.3361,8.3067,8.2737,8.3251,8.4278,8.5123,8.593,8.6811,8.7031,8.7031,8.7031,8.6995,8.6738,8.6334,8.6261,8.6261,8.636,8.7347,8.8039,8.8368,8.9092,8.957,8.9448,8.8725,8.8015,8.7426,8.6654,8.5582,8.4247,8.3226,8.2517,8.232,8.2616,8.2823,8.2823,8.2793,8.2647,8.2385,8.2443,8.2553,8.2296,8.281,8.292,8.2847,8.3141,8.3361,8.3214,8.3985,8.3911,8.3985,8.4572,8.5049,8.5086,8.538,8.5343,8.5049,8.4719,8.4756,8.4939,8.5049,8.5233,8.5453,8.5563,8.549,8.549,8.549,8.549,8.549,8.549,8.549,8.549,8.5563,8.5453,8.5453,8.5673,8.5563,8.5159,8.4903,8.4682,8.3985,8.3251,8.27,8.226,8.215,8.1953,8.1838,8.135,8.1008,8.1052,8.0867,8.0761,8.0841,8.0866,8.0705,8.0493,8.0356,8.0465,8.7031,8.7031,8.7031,8.7031,8.7105,8.7839,8.7582,8.7068,8.8573,8.861,8.8023,8.8757,8.8867,8.8206,8.7876,8.7105,8.593,8.5453,8.4976,8.4462,8.4058,8.4352,8.549,8.6334,8.6811,8.6995,8.7031,8.7031,8.7031,8.7031,8.7031,8.6921,8.6885,8.6995,8.7019,8.7704,8.8371,8.8764,8.8971,8.962,9.0608,8.8953,8.802,8.8585,8.6981,8.5812,8.5294,8.4166,8.3067,8.2333,8.2247,8.2353,8.2325,8.226,8.2398,8.2517,8.3104,8.303,8.2884,8.3618,8.4132,8.3581,8.3691,8.3765,8.4278,8.4278,8.4352,8.4682,8.5416,8.5857,8.6004,8.6371,8.6444,8.5894,8.5123,8.4976,8.5563,8.5637,8.5894,8.6518,8.6885,8.6958,8.6775,8.6775,8.6811,8.6811,8.6775,8.6701,8.6701,8.6591,8.6885,8.6811,8.6554,8.6334,8.5894,8.582,8.5563,8.4866,8.4095,8.3471,8.2627,8.237,8.2186,8.2039,8.1893,8.1631,8.1443,8.1308,8.1082,8.096,8.0918,8.0757,8.0644,8.0505,8.0438,8.7031,8.7031,8.7031,8.7031,8.7142,8.7839,8.7031,8.5673,8.7619,8.7509,8.6371,8.7655,8.8096,8.7399,8.7325,8.6738,8.593,8.527,8.5233,8.5416,8.5306,8.5343,8.5894,8.6628,8.7031,8.7031,8.7031,8.7031,8.7031,8.7031,8.7031,8.7031,8.7031,8.7031,8.7132,8.7709,8.8167,8.8417,8.8854,8.9186,8.9507,8.9108,8.8556,8.8204,8.7652,8.6802,8.5812,8.4816,8.3618,8.2333,8.2186,8.248,8.2994,8.3104,8.3287,8.3801,8.4095,8.4205,8.4095,8.4389,8.4499,8.4389,8.4719,8.4976,8.4646,8.5527,8.5747,8.582,8.6187,8.6664,8.6701,8.6811,8.6811,8.6591,8.5306,8.4609,8.5013,8.5453,8.5894,8.6114,8.6628,8.6885,8.7031,8.7031,8.7031,8.7031,8.7031,8.7031,8.7031,8.7031,8.7031,8.7031,8.6885,8.6848,8.6738,8.6701,8.6407,8.571,8.5086,8.4535,8.3544,8.2663,8.2406,8.215,8.2076,8.1888,8.1925,8.1921,8.1595,8.1232,8.1166,8.1138,8.0903,8.0782,8.0692,8.7031,8.7031,8.7031,8.7031,8.7105,8.7839,8.7031,8.5783,8.7178,8.7068,8.582,8.6885,8.7435,8.7031,8.7031,8.6775,8.6261,8.582,8.5894,8.6224,8.6261,8.6297,8.6444,8.6848,8.7031,8.7031,8.7031,8.7031,8.7031,8.7031,8.7031,8.7031,8.7031,8.7031,8.7031,8.7361,8.7804,8.8107,8.8503,8.8774,8.9069,8.8801,8.8532,8.8076,8.7799,8.6988,8.5888,8.5343,8.4352,8.3177,8.303,8.3287,8.3398,8.3765,8.4132,8.4609,8.4903,8.4976,8.4792,8.5159,8.5416,8.5233,8.56,8.571,8.5673,8.6297,8.6261,8.6407,8.6775,8.6958,8.6885,8.6444,8.604,8.571,8.4572,8.4058,8.4903,8.5196,8.549,8.5783,8.6187,8.6664,8.6921,8.7031,8.7031,8.7031,8.7031,8.7031,8.7031,8.7031,8.7031,8.7031,8.7031,8.6958,8.6921,8.6885,8.6885,8.6297,8.582,8.5306,8.4205,8.3067,8.259,8.237,8.226,8.2186,8.2186,8.2186,8.2039,8.1746,8.1599,8.1553,8.1418,8.1107,8.0992,8.7031,8.7031,8.7031,8.6958,8.6958,8.7619,8.6848,8.5967,8.7068,8.6958,8.6004,8.6591,8.7068,8.7031,8.7031,8.6995,8.6958,8.6811,8.6885,8.6921,8.6921,8.6921,8.6885,8.6958,8.7031,8.7031,8.7031,8.7031,8.7031,8.7031,8.7031,8.7031,8.7031,8.7031,8.7031,8.7064,8.7361,8.7804,8.7929,8.819,8.8475,8.822,8.7923,8.7804,8.7394,8.6835,8.6221,8.5857,8.5233,8.3765,8.4278,8.4205,8.3801,8.4425,8.4792,8.5049,8.5563,8.5637,8.5233,8.6187,8.6628,8.6077,8.593,8.6187,8.6591,8.6481,8.6371,8.6848,8.6995,8.7031,8.6848,8.571,8.527,8.5123,8.3728,8.3728,8.4976,8.5013,8.4792,8.5563,8.571,8.6187,8.6701,8.7031,8.7031,8.7031,8.7031,8.7031,8.7031,8.7031,8.7031,8.7031,8.7031,8.7031,8.6995,8.6995,8.6995,8.6775,8.6371,8.5747,8.4646,8.3654,8.2994,8.2553,8.2296,8.2186,8.2186,8.2186,8.2186,8.215,8.1929,8.2003,8.2072,8.1622,8.1396,8.7031,8.7031,8.7031,8.6628,8.6151,8.6187,8.5453,8.4278,8.571,8.593,8.5416,8.6407,8.6995,8.7031,8.7031,8.7031,8.7031,8.7031,8.7031,8.7031,8.7031,8.7031,8.7031,8.7031,8.7031,8.7031,8.7031,8.7031,8.7031,8.7031,8.7031,8.7031,8.7031,8.7031,8.7031,8.6995,8.7029,8.7231,8.7265,8.7361,8.7521,8.746,8.7332,8.7298,8.7098,8.6993,8.6811,8.6738,8.6261,8.5453,8.4939,8.4866,8.5123,8.538,8.5783,8.6224,8.6518,8.6628,8.6591,8.6738,8.6958,8.6738,8.6664,8.6811,8.6958,8.6848,8.6811,8.7031,8.7031,8.7031,8.6921,8.6114,8.5783,8.571,8.4939,8.4389,8.5233,8.4572,8.4278,8.4829,8.549,8.6114,8.6885,8.6995,8.7031,8.7031,8.7031,8.7031,8.7031,8.7031,8.7031,8.7031,8.7031,8.7031,8.7031,8.7031,8.7031,8.7031,8.6738,8.6224,8.5086,8.4242,8.3618,8.2884,8.2223,8.2186,8.226,8.2186,8.2186,8.2186,8.2186,8.2186,8.2113,8.1856,8.1746,8.7362,8.7031,8.7031,8.6775,8.6334,8.5967,8.5747,8.5637,8.5673,8.6004,8.6334,8.6921,8.7031,8.7031,8.7031,8.7031,8.7031,8.7031,8.7031,8.7031,8.7031,8.7031,8.7031,8.7031,8.7031,8.7031,8.7031,8.7031,8.7031,8.7031,8.7031,8.7031,8.7031,8.7031,8.7031,8.7031,8.7031,8.7066,8.7031,8.7031,8.7031,8.7031,8.7031,8.7031,8.7031,8.7031,8.6995,8.6995,8.6775,8.6371,8.5967,8.5673,8.5857,8.6151,8.6591,8.6885,8.7031,8.7031,8.6995,8.7031,8.7031,8.7031,8.7031,8.7031,8.7031,8.7031,8.7031,8.7031,8.7031,8.6995,8.6958,8.6261,8.6151,8.6077,8.538,8.4866,8.5013,8.4462,8.4278,8.4976,8.56,8.6187,8.6664,8.6848,8.6958,8.6958,8.7031,8.7031,8.7031,8.7031,8.7031,8.7031,8.7031,8.7031,8.7031,8.7031,8.7031,8.7031,8.6921,8.6407,8.56,8.4903,8.4242,8.3508,8.2737,8.2406,8.2406,8.2296,8.2186,8.2186,8.2186,8.2186,8.215,8.2039,8.2003,8.7509,8.7031,8.7031,8.6958,8.6738,8.6077,8.6261,8.6921,8.6334,8.6261,8.7399,8.7105,8.7031,8.7031,8.7031,8.7031,8.7031,8.7031,8.7031,8.7031,8.7031,8.7031,8.7031,8.7031,8.7031,8.7031,8.7031,8.7031,8.7031,8.7031,8.7031,8.7031,8.7031,8.7031,8.7031,8.7031,8.7031,8.7031,8.7031,8.7031,8.7031,8.7031,8.7031,8.7031,8.7031,8.7031,8.7031,8.7031,8.6995,8.7031,8.7031,8.6664,8.6371,8.6554,8.7031,8.7031,8.7031,8.7031,8.7031,8.7031,8.7031,8.7031,8.7031,8.7031,8.7031,8.7031,8.7031,8.7031,8.7031,8.7031,8.6958,8.6518,8.6114,8.5967,8.5416,8.5013,8.4939,8.4939,8.5343,8.549,8.549,8.571,8.6297,8.6628,8.6738,8.6885,8.6921,8.7031,8.7031,8.7031,8.7031,8.7031,8.7031,8.7031,8.7031,8.7031,8.7031,8.7031,8.7031,8.6664,8.6151,8.5857,8.5196,8.4095,8.3398,8.303,8.2627,8.237,8.2296,8.2223,8.2186,8.2186,8.2186,8.2186,8.2186,8.6518,8.7031,8.7031,8.6628,8.604,8.582,8.5306,8.4499,8.5527,8.5527,8.549,8.6444,8.7031,8.7031,8.7031,8.7031,8.7031,8.7031,8.7031,8.7031,8.7031,8.7031,8.7031,8.7031,8.7031,8.7031,8.7031,8.7031,8.7031,8.7031,8.7031,8.7031,8.7031,8.7031,8.7031,8.7031,8.7031,8.7031,8.7031,8.7031,8.7031,8.7031,8.7031,8.7031,8.7031,8.7031,8.7031,8.7031,8.7031,8.7031,8.7031,8.6921,8.6775,8.6921,8.6995,8.7031,8.7031,8.7031,8.7031,8.7031,8.7031,8.7031,8.7031,8.7031,8.7031,8.7031,8.7031,8.7031,8.7031,8.7031,8.7031,8.6775,8.6811,8.6738,8.6591,8.6407,8.6444,8.6407,8.6187,8.6004,8.5563,8.5159,8.582,8.6187,8.6151,8.6334,8.6591,8.6811,8.7031,8.7031,8.7031,8.7031,8.7031,8.7031,8.7031,8.7031,8.7031,8.7031,8.7031,8.7031,8.6701,8.6811,8.6224,8.5123,8.4168,8.3544,8.3104,8.2663,8.2333,8.226,8.2223,8.2186,8.2186,8.2186,8.2186,8.7031,8.7031,8.7031,8.6775,8.6371,8.5967,8.5637,8.538,8.5673,8.582,8.6077,8.6664,8.7031,8.7031,8.7031,8.7031,8.7031,8.7031,8.7031,8.7031,8.7031,8.7031,8.7031,8.7031,8.7031,8.7031,8.7031,8.7031,8.7031,8.7031,8.7031,8.7031,8.7031,8.7031,8.7031,8.7031,8.7031,8.7031,8.7031,8.7031,8.7031,8.7031,8.7031,8.7031,8.7031,8.7031,8.7031,8.7031,8.7031,8.7031,8.7031,8.7031,8.7031,8.7031,8.7031,8.7031,8.7031,8.7031,8.7031,8.7031,8.7031,8.7031,8.7031,8.7031,8.7031,8.7031,8.7031,8.7031,8.7031,8.7031,8.7031,8.7031,8.7031,8.7031,8.7031,8.7031,8.7031,8.7031,8.6738,8.6334,8.582,8.5527,8.5527,8.571,8.5527,8.5747,8.6114,8.6481,8.6811,8.7031,8.7031,8.7031,8.7031,8.7031,8.7031,8.7031,8.7031,8.7031,8.7031,8.7031,8.7031,8.6995,8.6811,8.6224,8.527,8.4389,8.3544,8.3067,8.27,8.237,8.2333,8.2296,8.2223,8.2186,8.2186,8.7435,8.7031,8.7031,8.7031,8.6885,8.6334,8.6151,8.6407,8.6187,8.6151,8.6518,8.6848,8.7031,8.7031,8.7031,8.7031,8.7031,8.7031,8.7031,8.7031,8.7031,8.7031,8.7031,8.7031,8.7031,8.7031,8.7031,8.7031,8.7031,8.7031,8.7031,8.7031,8.7031,8.7031,8.7031,8.7031,8.7031,8.7031,8.7031,8.7031,8.7031,8.7031,8.7031,8.7031,8.7031,8.7031,8.7031,8.7031,8.7031,8.7031,8.7031,8.7031,8.7031,8.7031,8.7031,8.7031,8.7031,8.7031,8.7031,8.7031,8.7031,8.7031,8.7031,8.7031,8.7031,8.7031,8.7031,8.7031,8.7031,8.7031,8.7031,8.7031,8.7031,8.7031,8.7031,8.7031,8.7031,8.7031,8.7031,8.6591,8.6077,8.5637,8.538,8.4829,8.4572,8.5013,8.538,8.5747,8.6151,8.6885,8.6995,8.7031,8.7031,8.7031,8.7031,8.7031,8.7031,8.7031,8.7031,8.7031,8.7031,8.7031,8.6811,8.6701,8.6444,8.5527,8.4535,8.3691,8.3508,8.3214,8.27,8.2517,8.2663,8.2406,8.2186,8.6444,8.7031,8.7031,8.7031,8.6995,8.6885,8.604,8.5159,8.6261,8.604,8.5196,8.6334,8.6958,8.7031,8.7031,8.7031,8.7031,8.7031,8.7031,8.7031,8.7031,8.7031,8.7031,8.7031,8.7031,8.7031,8.7031,8.7031,8.7031,8.7031,8.7031,8.7031,8.7031,8.7031,8.7031,8.7031,8.7031,8.7031,8.7031,8.7031,8.7031,8.7031,8.7031,8.7031,8.7031,8.7031,8.7031,8.7031,8.7031,8.7031,8.7031,8.7031,8.7031,8.7031,8.7031,8.7031,8.7031,8.7031,8.7031,8.7031,8.7031,8.7031,8.7031,8.7031,8.7031,8.7031,8.7031,8.7031,8.7031,8.7031,8.7031,8.7031,8.7031,8.6995,8.6958,8.6921,8.6921,8.7031,8.7031,8.6518,8.5894,8.527,8.4792,8.4132,8.3618,8.4168,8.4646,8.5049,8.549,8.6261,8.6738,8.6701,8.6958,8.7031,8.7031,8.7031,8.7031,8.7031,8.7031,8.7031,8.7031,8.7031,8.7031,8.6885,8.6738,8.6554,8.5637,8.4939,8.4535,8.4022,8.3508,8.3324,8.3287,8.2884,8.237,8.6701,8.7031,8.7031,8.7031,8.7031,8.7031,8.6114,8.5049,8.5783,8.5673,8.4939,8.5783,8.6554,8.6921,8.7031,8.7031,8.7031,8.7031,8.7031,8.7031,8.7031,8.7031,8.7031,8.7031,8.7031,8.7031,8.7031,8.7031,8.7031,8.7031,8.7031,8.7031,8.7031,8.7031,8.7031,8.7031,8.7031,8.7031,8.7031,8.7031,8.7031,8.7031,8.7031,8.7031,8.7031,8.7031,8.7031,8.7031,8.7031,8.7031,8.7031,8.7031,8.7031,8.7031,8.7031,8.7031,8.7031,8.7031,8.7031,8.7031,8.7031,8.7031,8.7031,8.7031,8.7031,8.7031,8.7031,8.7031,8.7031,8.6995,8.6995,8.7031,8.6701,8.6591,8.6701,8.6664,8.6701,8.6958,8.6885,8.6297,8.571,8.5086,8.4352,8.3508,8.3177,8.3654,8.4242,8.4829,8.5196,8.5673,8.604,8.6224,8.6628,8.7031,8.7031,8.7031,8.7031,8.7031,8.7031,8.7031,8.7031,8.7031,8.7031,8.7031,8.6921,8.6664,8.6407,8.5894,8.5233,8.4756,8.4315,8.4095,8.3875,8.3361,8.2847,8.7031,8.7031,8.7031,8.7031,8.7031,8.7031,8.6224,8.5086,8.5563,8.5453,8.5233,8.5783,8.6518,8.6885,8.7031,8.7031,8.7031,8.7031,8.7031,8.7031,8.7031,8.7031,8.7031,8.7031,8.7031,8.7031,8.7031,8.7031,8.7031,8.7031,8.7031,8.7031,8.7031,8.7031,8.7031,8.7031,8.7031,8.7031,8.7031,8.7031,8.7031,8.7031,8.7031,8.7031,8.7031,8.7031,8.7031,8.7031,8.7031,8.7031,8.7031,8.7031,8.7031,8.7031,8.7031,8.7031,8.7031,8.7031,8.7031,8.7031,8.7031,8.7031,8.7031,8.7031,8.7031,8.7031,8.7031,8.7031,8.6701,8.6701,8.6664,8.6518,8.6187,8.6114,8.6297,8.6261,8.6297,8.6738,8.6921,8.6518,8.5857,8.4939,8.4095,8.2994,8.2774,8.3177,8.3765,8.4499,8.5013,8.538,8.56,8.593,8.6518,8.6958,8.7031,8.7031,8.7031,8.7031,8.7031,8.7031,8.7031,8.7031,8.7031,8.7031,8.7031,8.6921,8.6701,8.6297,8.593,8.5673,8.5343,8.4756,8.4352,8.3838,8.3324,8.7031,8.7031,8.7031,8.7031,8.7031,8.7031,8.6518,8.549,8.5673,8.5673,8.56,8.6481,8.6885,8.6995,8.7031,8.7031,8.7031,8.7031,8.7031,8.7031,8.7031,8.7031,8.7031,8.7031,8.7031,8.7031,8.7031,8.7031,8.7031,8.7031,8.7031,8.7031,8.7031,8.7031,8.7031,8.7031,8.7031,8.7031,8.7031,8.7031,8.7031,8.7031,8.7031,8.7031,8.7031,8.7031,8.7031,8.7031,8.7031,8.7031,8.7031,8.7031,8.7031,8.7031,8.7031,8.7031,8.7031,8.7031,8.7031,8.7031,8.7031,8.7031,8.7031,8.7031,8.7031,8.7031,8.7031,8.6921,8.6518,8.6077,8.5783,8.538,8.5343,8.5416,8.5673,8.6004,8.6224,8.6738,8.6885,8.6664,8.593,8.4866,8.3985,8.292,8.237,8.2737,8.3618,8.4352,8.4976,8.538,8.549,8.582,8.6444,8.6848,8.6995,8.7031,8.7031,8.7031,8.7031,8.7031,8.7031,8.7031,8.7031,8.7031,8.7031,8.7031,8.6995,8.6701,8.6518,8.6628,8.6334,8.5637,8.4829,8.4132,8.3691,8.7031,8.7031,8.7031,8.7031,8.7031,8.7031,8.6261,8.5196,8.5049,8.5049,8.5159,8.6371,8.7031,8.7031,8.7031,8.7031,8.7031,8.7031,8.7031,8.7031,8.7031,8.7031,8.7031,8.7031,8.7031,8.7031,8.7031,8.7031,8.7031,8.7031,8.7031,8.7031,8.7031,8.7031,8.7031,8.7031,8.7031,8.7031,8.7031,8.7031,8.7031,8.7031,8.7031,8.7031,8.7031,8.7031,8.7031,8.7031,8.7031,8.7031,8.7031,8.7031,8.7031,8.7031,8.7031,8.7031,8.7031,8.7031,8.7031,8.7031,8.7031,8.7031,8.7031,8.7031,8.7031,8.7031,8.7031,8.6775,8.6297,8.582,8.5673,8.5123,8.4719,8.4719,8.4976,8.5453,8.5967,8.6444,8.6591,8.6297,8.549,8.4499,8.3691,8.2884,8.248,8.2333,8.3287,8.4132,8.4719,8.527,8.5343,8.549,8.604,8.6591,8.6775,8.6885,8.6995,8.6958,8.6958,8.7031,8.7031,8.7031,8.7031,8.7031,8.7031,8.7031,8.7031,8.7031,8.6958,8.6885,8.6701,8.6371,8.549,8.4609,8.4058,8.7031,8.7031,8.7031,8.7031,8.7031,8.7031,8.6224,8.5049,8.4719,8.4609,8.4719,8.6261,8.7031,8.7031,8.7031,8.7031,8.7031,8.7031,8.7031,8.7031,8.7031,8.7031,8.7031,8.7031,8.7031,8.7031,8.7031,8.7031,8.7031,8.7031,8.7031,8.7031,8.7031,8.7031,8.7031,8.7031,8.7031,8.7031,8.7031,8.7031,8.7031,8.7031,8.7031,8.7031,8.7031,8.7031,8.7031,8.7031,8.7031,8.7031,8.7031,8.7031,8.7031,8.7031,8.7031,8.7031,8.7031,8.7031,8.7031,8.7031,8.7031,8.7031,8.7031,8.7031,8.7031,8.7031,8.7031,8.6958,8.6297,8.571,8.5527,8.4646,8.4352,8.4389,8.4315,8.4719,8.5306,8.582,8.593,8.5857,8.4939,8.4022,8.3801,8.3141,8.2774,8.2737,8.3618,8.4132,8.4132,8.4682,8.5123,8.5233,8.549,8.6004,8.6481,8.6738,8.6921,8.6554,8.6628,8.6958,8.7031,8.7031,8.7031,8.7031,8.7031,8.7031,8.7031,8.7031,8.7031,8.6995,8.6848,8.6664,8.6334,8.5453,8.4572,8.7031,8.7031,8.7031,8.7031,8.7031,8.7031,8.6481,8.549,8.4866,8.4609,8.4792,8.6297,8.7031,8.7031,8.7031,8.7031,8.7031,8.7031,8.7031,8.7031,8.7031,8.7031,8.7031,8.7031,8.7031,8.7031,8.7031,8.7031,8.7031,8.7031,8.7031,8.7031,8.7031,8.7031,8.7031,8.7031,8.7031,8.7031,8.7031,8.7031,8.7031,8.7031,8.7031,8.7031,8.7031,8.7031,8.7031,8.7031,8.7031,8.7031,8.7031,8.7031,8.7031,8.7031,8.7031,8.7031,8.7031,8.7031,8.7031,8.7031,8.7031,8.7031,8.7031,8.7031,8.7031,8.7031,8.7031,8.6958,8.6261,8.5453,8.4756,8.4058,8.4058,8.4022,8.3985,8.4278,8.4903,8.5453,8.5637,8.5159,8.4278,8.3581,8.3618,8.3471,8.3104,8.3251,8.4095,8.4278,8.4022,8.4242,8.4792,8.4756,8.4903,8.5343,8.5894,8.6628,8.6811,8.6407,8.6407,8.6811,8.7031,8.7031,8.7031,8.7031,8.7031,8.7031,8.7031,8.7031,8.7031,8.7031,8.7031,8.6885,8.6664,8.6187,8.5196,8.7031,8.7031,8.7031,8.7031,8.7031,8.7031,8.6261,8.5086,8.4719,8.4609,8.4939,8.6297,8.7031,8.7031,8.7031,8.7031,8.7031,8.7031,8.7031,8.7031,8.7031,8.7031,8.7031,8.7031,8.7031,8.7031,8.7031,8.7031,8.7031,8.7031,8.7031,8.7031,8.7031,8.7031,8.7031,8.7031,8.7031,8.7031,8.7031,8.7031,8.7031,8.7031,8.7031,8.7031,8.7031,8.7031,8.7031,8.7031,8.7031,8.7031,8.7031,8.7031,8.7031,8.7031,8.7031,8.7031,8.7031,8.7031,8.7031,8.7031,8.7031,8.7031,8.7031,8.7031,8.7031,8.7031,8.7031,8.6848,8.6261,8.5453,8.4682,8.3911,8.3728,8.3801,8.3911,8.4352,8.4866,8.5343,8.549,8.4425,8.3508,8.3141,8.303,8.3508,8.3361,8.3544,8.4315,8.4425,8.4242,8.4242,8.4572,8.4278,8.4278,8.4719,8.527,8.6224,8.6407,8.593,8.6261,8.6921,8.7031,8.7031,8.7031,8.7031,8.7031,8.7031,8.7031,8.7031,8.7031,8.7031,8.6958,8.6701,8.6261,8.5967,8.5453,8.7031,8.7031,8.7031,8.7031,8.7031,8.7031,8.6224,8.5196,8.527,8.5306,8.538,8.6444,8.7031,8.7031,8.7031,8.7031,8.7031,8.7031,8.7031,8.7031,8.7031,8.7031,8.7031,8.7031,8.7031,8.7031,8.7031,8.7031,8.7031,8.7031,8.7031,8.7031,8.7031,8.7031,8.7031,8.7031,8.7031,8.7031,8.7031,8.7031,8.7031,8.7031,8.7031,8.7031,8.7031,8.7031,8.7031,8.7031,8.7031,8.7031,8.7031,8.7031,8.7031,8.7031,8.7031,8.7031,8.7031,8.7031,8.7031,8.7031,8.7031,8.7031,8.7031,8.7031,8.7031,8.7031,8.7031,8.6811,8.6224,8.5453,8.4609,8.3838,8.3544,8.3618,8.3508,8.3948,8.4278,8.4682,8.4535,8.3544,8.3067,8.27,8.27,8.3214,8.3618,8.4022,8.4462,8.4462,8.4389,8.4352,8.4278,8.3985,8.3948,8.4352,8.5086,8.604,8.6004,8.549,8.604,8.6848,8.7031,8.7031,8.7031,8.6995,8.6995,8.6958,8.6995,8.6995,8.6775,8.6775,8.6848,8.6444,8.5894,8.582,8.5783,8.7031,8.7031,8.7031,8.7031,8.7031,8.7105,8.6591,8.5857,8.6518,8.6407,8.5857,8.6591,8.6995,8.7031,8.7031,8.7031,8.7031,8.7031,8.7031,8.7031,8.7031,8.7031,8.7031,8.7031,8.7031,8.7031,8.7031,8.7031,8.7031,8.7031,8.7031,8.7031,8.7031,8.7031,8.7031,8.7031,8.7031,8.7031,8.7031,8.7031,8.7031,8.7031,8.7031,8.7031,8.7031,8.7031,8.7031,8.7031,8.7031,8.7031,8.7031,8.7031,8.7031,8.7031,8.7031,8.7031,8.7031,8.7031,8.7031,8.7031,8.7031,8.7031,8.7031,8.7031,8.7031,8.6995,8.6921,8.6664,8.6114,8.5343,8.4535,8.3985,8.3434,8.3214,8.2847,8.3104,8.3361,8.3434,8.3251,8.281,8.2553,8.248,8.2884,8.3361,8.3911,8.4425,8.4719,8.4499,8.4425,8.4205,8.4058,8.3801,8.3838,8.4132,8.4866,8.5747,8.593,8.5527,8.604,8.6701,8.6848,8.6921,8.6848,8.6811,8.6885,8.6848,8.6664,8.6481,8.6334,8.6334,8.6187,8.6004,8.5416,8.6371,8.6371,8.7031,8.7031,8.7031,8.7031,8.7105,8.7619,8.7068,8.593,8.6077,8.5967,8.5857,8.6664,8.6995,8.7031,8.7031,8.7031,8.7031,8.7031,8.7031,8.7031,8.7031,8.7031,8.7031,8.7031,8.7031,8.7031,8.7031,8.7031,8.7031,8.7031,8.7031,8.7031,8.7031,8.7031,8.7031,8.7031,8.7031,8.7031,8.7031,8.7031,8.7031,8.7031,8.7031,8.7031,8.7031,8.7031,8.7031,8.7031,8.7031,8.7031,8.7031,8.7031,8.7031,8.7031,8.7031,8.7031,8.7031,8.7031,8.7031,8.7031,8.7031,8.7031,8.7031,8.7031,8.7031,8.6958,8.6775,8.6371,8.5894,8.5123,8.4242,8.3618,8.3251,8.2994,8.2774,8.2884,8.3104,8.303,8.281,8.2517,8.226,8.248,8.292,8.3618,8.4205,8.4756,8.4939,8.4609,8.4315,8.4058,8.3691,8.3398,8.3691,8.3985,8.4535,8.5306,8.5563,8.571,8.6004,8.6334,8.6628,8.6701,8.6628,8.6518,8.6407,8.6261,8.6077,8.5894,8.56,8.527,8.5086,8.5086,8.5196,8.5967,8.6444,8.7031,8.7031,8.7031,8.6848,8.6701,8.7362,8.6958,8.6004,8.6444,8.6591,8.6334,8.6811,8.7031,8.7031,8.7031,8.7031,8.7031,8.7031,8.7031,8.7031,8.7031,8.7031,8.7031,8.7031,8.7031,8.7031,8.7031,8.7031,8.7031,8.7031,8.7031,8.7031,8.7031,8.7031,8.7031,8.7031,8.7031,8.7031,8.7031,8.7031,8.7031,8.7031,8.7031,8.7031,8.7031,8.7031,8.7031,8.7031,8.7031,8.7031,8.7031,8.7031,8.7031,8.7031,8.7031,8.7031,8.7031,8.7031,8.7031,8.7031,8.7031,8.7031,8.7031,8.7031,8.7031,8.6995,8.6518,8.604,8.549,8.4866,8.3948,8.3141,8.303,8.2884,8.2884,8.2884,8.292,8.292,8.2627,8.2296,8.2296,8.2443,8.2957,8.3728,8.4278,8.4535,8.4499,8.4132,8.3911,8.3728,8.3287,8.2847,8.3361,8.3875,8.4389,8.4719,8.4866,8.5013,8.5123,8.5527,8.6114,8.6334,8.6151,8.5967,8.5783,8.5563,8.5306,8.5049,8.4792,8.4425,8.4278,8.4462,8.4609,8.5013,8.5343,8.7031,8.7031,8.7031,8.6481,8.5857,8.6664,8.6518,8.5967,8.7215,8.7655,8.7031,8.6995,8.7031,8.7031,8.7031,8.7031,8.7031,8.7031,8.7031,8.7031,8.7031,8.7031,8.7031,8.7031,8.7031,8.7031,8.7031,8.7031,8.7031,8.7031,8.7031,8.7031,8.7031,8.7031,8.7031,8.7031,8.7031,8.7031,8.7031,8.7031,8.7031,8.7031,8.7031,8.7031,8.7031,8.7031,8.7031,8.7031,8.7031,8.7031,8.7031,8.7031,8.7031,8.7031,8.7031,8.7031,8.7031,8.7031,8.7031,8.7031,8.7031,8.7031,8.7031,8.7031,8.7031,8.7031,8.6591,8.5673,8.5049,8.4278,8.3361,8.281,8.2553,8.2517,8.2517,8.2517,8.2517,8.2517,8.2443,8.2186,8.2223,8.2443,8.303,8.3801,8.4095,8.4278,8.4095,8.3728,8.3508,8.3361,8.3104,8.259,8.3104,8.3654,8.3801,8.4095,8.4132,8.4242,8.4352,8.4756,8.5453,8.5637,8.5673,8.527,8.4829,8.4682,8.4462,8.4132,8.3838,8.3581,8.3544,8.3911,8.4168,8.4499,8.4866,8.7031,8.7031,8.7031,8.6187,8.5159,8.6407,8.6187,8.5086,8.6591,8.7215,8.7031,8.7031,8.7031,8.7031,8.7031,8.7031,8.7031,8.7031,8.7031,8.7031,8.7031,8.7031,8.7031,8.7031,8.7031,8.7031,8.7031,8.7031,8.7031,8.7031,8.7031,8.7031,8.7031,8.7031,8.7031,8.7031,8.7031,8.7031,8.7031,8.7031,8.7031,8.7031,8.7031,8.7031,8.7031,8.7031,8.7031,8.7031,8.7031,8.7031,8.7031,8.7031,8.7031,8.7031,8.7031,8.7031,8.7031,8.7031,8.7031,8.7031,8.7031,8.7031,8.7031,8.7031,8.7031,8.7031,8.6518,8.5416,8.4535,8.3728,8.2957,8.2517,8.2186,8.2186,8.2186,8.2186,8.2186,8.2186,8.2186,8.2186,8.2186,8.259,8.3141,8.3544,8.3911,8.3911,8.3691,8.3434,8.3177,8.303,8.3177,8.2884,8.3104,8.3434,8.3544,8.3434,8.3508,8.3654,8.3801,8.4278,8.4792,8.4829,8.4792,8.4205,8.3765,8.3691,8.3508,8.3067,8.2774,8.2884,8.3251,8.3765,8.4095,8.4389,8.4829,8.7031,8.7031,8.7031,8.6077,8.5086,8.6334,8.6077,8.5086,8.6334,8.7031,8.7031,8.7031,8.7031,8.7031,8.7031,8.7031,8.7031,8.7031,8.7031,8.7031,8.7031,8.7031,8.7031,8.7031,8.7031,8.7031,8.7031,8.7031,8.7031,8.7031,8.7031,8.7031,8.7031,8.7031,8.7031,8.7031,8.7031,8.7031,8.7031,8.7031,8.7031,8.7031,8.7031,8.7031,8.7031,8.7031,8.7031,8.7031,8.7031,8.7031,8.7031,8.7031,8.7031,8.7031,8.7031,8.7031,8.7031,8.7031,8.7031,8.7031,8.7031,8.7031,8.7031,8.7031,8.6885,8.6775,8.5967,8.5013,8.4719,8.4022,8.2884,8.2223,8.2186,8.2186,8.2186,8.2186,8.2186,8.2186,8.2186,8.2186,8.2186,8.2296,8.27,8.2737,8.303,8.303,8.2884,8.2994,8.2774,8.2774,8.292,8.303,8.3177,8.3324,8.3508,8.3214,8.2884,8.3067,8.3324,8.3544,8.3875,8.3985,8.3911,8.3508,8.3177,8.2884,8.259,8.259,8.281,8.3104,8.3434,8.3765,8.4095,8.4499,8.5086,8.7031,8.7031,8.7031,8.6077,8.4976,8.6334,8.6114,8.5049,8.6297,8.7031,8.7031,8.7031,8.7031,8.7031,8.7031,8.7031,8.7031,8.7031,8.7031,8.7031,8.7031,8.7031,8.7031,8.7031,8.7031,8.7031,8.7031,8.7031,8.7031,8.7031,8.7031,8.7031,8.7031,8.7031,8.7031,8.7031,8.7031,8.7031,8.7031,8.7031,8.7031,8.7031,8.7031,8.7031,8.7031,8.7031,8.7031,8.7031,8.7031,8.7031,8.7031,8.7031,8.7031,8.7031,8.7031,8.7031,8.7031,8.7031,8.7031,8.7031,8.7031,8.7031,8.7031,8.6921,8.6775,8.6371,8.5563,8.4792,8.4535,8.3948,8.281,8.2186,8.2186,8.2186,8.2186,8.2186,8.2186,8.2186,8.2186,8.2186,8.2223,8.226,8.237,8.237,8.2296,8.226,8.226,8.2296,8.2406,8.2627,8.281,8.2884,8.2994,8.3177,8.3544,8.2994,8.2517,8.2774,8.303,8.2994,8.2994,8.3141,8.3214,8.3141,8.2774,8.2553,8.2737,8.2957,8.3177,8.3434,8.3765,8.4168,8.4756,8.5159,8.56,8.7031,8.7031,8.7031,8.6077,8.5013,8.6334,8.6077,8.5013,8.6297,8.7031,8.7031,8.7031,8.7031,8.7031,8.7031,8.6925,8.6749,8.6891,8.6997,8.7031,8.696,8.696,8.7031,8.7031,8.7031,8.7031,8.7031,8.7031,8.7031,8.7031,8.7031,8.7031,8.7031,8.7031,8.7031,8.7031,8.7031,8.7031,8.7031,8.7031,8.7031,8.7031,8.7031,8.7031,8.7031,8.7031,8.7031,8.7031,8.7031,8.7031,8.7031,8.7031,8.7031,8.7031,8.7031,8.7031,8.7031,8.7031,8.7031,8.7031,8.7031,8.7031,8.6958,8.6738,8.6664,8.6628,8.56,8.4168,8.3765,8.3361,8.2517,8.226,8.2186,8.2186,8.2186,8.2186,8.2186,8.2186,8.2186,8.2223,8.2296,8.2517,8.2884,8.2774,8.259,8.2517,8.2333,8.237,8.2663,8.27,8.27,8.292,8.303,8.3508,8.4022,8.2884,8.237,8.259,8.27,8.2627,8.2517,8.237,8.2406,8.259,8.2627,8.2517,8.2774,8.3141,8.3728,8.4022,8.4278,8.4682,8.527,8.5747,8.6114]}]]